[[{"header":{"parameterUnit":"m.s-1","parameterCategory":1,"la1":31.0,"la2":29.5877,"lo1":-88.7671,"lo2":-86.6584,"dy":0.0162,"dx":0.0185,"nx":115,"ny":88,"refTime":"2023-03-06T06:00:00:Z","depth":0,"parameterNumber":2,"parameterNumberName":"U-component_of_WINDS"},"data":[0.0,0.0,0.0,0.0,0.0,0.0,0.0,0.0,0.0,0.0,0.0,0.0,0.0,0.0,0.0,0.0,0.0,0.0,0.0,0.0,0.0,0.0,0.0,0.0,0.0,0.0,0.0,0.0,0.0,0.0,0.0,0.0,0.0,0.0,0.0,0.0,0.0,0.0,0.0,0.0,0.0,0.0,0.0,0.0,0.0,0.0,0.0,0.0,0.0,0.0,0.0,0.0,0.0,0.0,0.0,0.0,0.0,0.0,0.0,0.0,0.0,0.0,0.0,0.0,0.0,0.0,0.0,0.0,0.0,0.0,0.0,0.0,0.0,0.0,0.0,0.0,0.0,0.0,0.0,0.0,0.0,0.0,0.0,0.0,0.0,0.0,0.0,0.0,0.0,0.0,0.0,0.0,0.0,0.0,0.0,0.0,0.0,0.0,0.0,0.0,0.0,0.0,0.0,0.0,0.0,0.0,0.0,0.0,0.0,0.0,0.0,0.0,0.0,0.0,0.0,0.0,0.0,0.0,0.0,0.0,0.0,0.0,0.0,0.0,0.0,0.0,0.0,0.0,0.0,0.0,0.0,0.0,0.0,0.0,0.0,0.0,0.0,0.0,0.0,0.0,0.0,0.0,0.0,0.0,0.0,0.0,0.0,0.0,0.0,0.0,0.0,0.0,0.0,0.0,0.0,0.0,0.0,0.0,0.0,0.0,0.0,0.0,0.0,0.0,0.0,0.0,0.0,0.0,0.0,0.0,0.0,0.0,0.0,0.0,0.0,0.0,0.0,0.0,0.0,0.0,0.0,0.0,0.0,0.0,0.0,0.0,0.0,0.0,0.0,0.0,0.0,0.0,0.0,0.0,0.0,0.0,0.0,0.0,0.0,0.0,0.0,0.0,0.0,0.0,0.0,0.0,0.0,0.0,0.0,0.0,0.0,0.0,0.0,0.0,0.0,0.0,0.0,0.0,0.0,0.0,0.0,0.0,0.0,0.0,0.0,0.0,0.0,0.0,0.0,0.0,0.0,0.0,0.0,0.0,0.0,0.0,0.0,0.0,0.0,0.0,0.0,0.0,0.0,0.0,0.0,0.0,0.0,0.0,0.0,0.0,0.0,0.0,0.0,0.0,0.0,0.0,0.0,0.0,0.0,0.0,0.0,0.0,0.0,0.0,0.0,0.0,0.0,0.0,0.0,0.0,0.0,0.0,0.0,0.0,0.0,0.0,0.0,0.0,0.0,0.0,0.0,0.0,0.0,0.0,0.0,0.0,0.0,0.0,0.0,0.0,0.0,0.0,0.0,0.0,0.0,0.0,0.0,0.0,0.0,0.0,0.0,0.0,0.0,0.0,0.0,0.0,0.0,0.0,0.0,0.0,0.0,0.0,0.0,0.0,0.0,0.0,0.0,0.0,0.0,0.0,0.0,0.0,0.0,0.0,0.0,0.0,0.0,0.0,0.0,0.0,0.0,0.0,0.0,0.0,0.0,0.0,0.0,0.0,0.0,0.0,0.0,0.0,0.0,0.0,0.0,0.0,0.0,0.0,0.0,0.0,0.0,0.0,0.0,0.0,0.0,0.0,0.0,0.0,0.0,0.0,0.0,0.0,0.0,0.0,0.0,0.0,0.0,0.0,0.0,0.0,0.0,0.0,0.0,0.0,0.0,0.0,0.0,0.0,0.0,0.0,0.0,0.0,0.0,0.0,0.0,0.0,0.0,0.0,0.0,0.0,0.0,0.0,0.0,0.0,0.0,0.0,0.0,0.0,0.0,0.0,0.0,0.0,0.0,0.0,0.0,0.0,0.0,0.0,0.0,0.0,0.0,0.0,0.0,0.0,0.0,0.0,0.0,0.0,0.0,0.0,0.0,0.0,0.0,0.0,0.0,0.0,0.0,0.0,0.0,0.0,0.0,0.0,0.0,0.0,0.0,0.0,0.0,0.0,0.0,0.0,0.0,0.0,0.0,0.0,0.0,0.0,0.0,0.0,0.0,0.0,0.0,0.0,0.0,0.0,0.0,0.0,0.0,0.0,0.0,0.0,0.0,0.0,0.0,0.0,0.0,0.0,0.0,0.0,0.0,0.0,0.0,0.0,0.0,0.0,0.0,0.0,0.0,0.0,0.0,0.0,0.0,0.0,0.0,0.0,0.0,0.0,0.0,0.0,0.0,0.0,0.0,0.0,0.0,0.0,0.0,0.0,0.0,0.0,0.0,0.0,0.0,0.0,0.0,0.0,0.0,0.0,0.0,0.0,0.0,0.0,0.0,0.0,0.0,0.0,0.0,0.0,0.0,0.0,0.0,0.0,0.0,0.0,0.0,0.0,0.0,0.0,0.0,0.0,0.0,0.0,0.0,0.0,0.0,0.0,0.0,0.0,0.0,0.0,0.0,0.0,0.0,0.0,0.0,0.0,0.0,0.0,0.0,0.0,0.0,0.0,0.0,0.0,0.0,0.0,0.0,0.0,0.0,0.0,0.0,0.0,0.0,0.0,0.0,0.0,0.0,0.0,0.0,0.0,0.0,0.0,0.0,0.0,0.0,0.0,0.0,0.0,0.0,0.0,0.0,0.0,0.0,0.0,0.0,0.0,0.0,0.0,0.0,0.0,0.0,0.0,0.0,0.0,0.0,0.0,0.0,0.0,0.0,0.0,0.0,0.0,0.0,0.0,0.0,0.0,0.0,0.0,0.0,0.0,0.0,0.0,0.0,0.0,0.0,0.0,0.0,0.0,0.0,0.0,0.0,0.0,0.0,0.0,0.0,0.0,0.0,0.0,0.0,0.0,0.0,0.0,0.0,0.0,0.0,0.0,0.0,0.0,0.0,0.0,0.0,0.0,0.0,0.0,0.0,0.0,0.0,0.0,0.0,0.0,0.0,0.0,0.0,0.0,0.0,0.0,0.0,0.0,0.0,0.0,0.0,0.0,0.0,0.0,0.0,0.0,0.0,0.0,0.0,0.0,0.0,0.0,0.0,0.0,0.0,0.0,0.0,0.0,0.0,0.0,0.0,0.0,0.0,0.0,0.0,0.0,0.0,0.0,0.0,0.0,0.0,0.0,0.0,0.0,0.0,0.0,0.0,0.0,0.0,0.0,0.0,0.0,0.0,0.0,0.0,0.0,0.0,0.0,0.0,0.0,0.0,0.0,0.0,0.0,0.0,0.0,0.0,0.0,0.0,0.0,0.0,0.0,0.0,0.0,0.0,0.0,0.0,0.0,0.0,0.0,0.0,0.0,0.0,0.0,0.0,0.0,0.0,0.0,0.0,0.0,0.0,0.0,0.0,0.0,0.0,0.0,0.0,0.0,0.0,0.0,0.0,0.0,0.0,0.0,0.0,0.0,0.0,0.0,0.0,0.0,0.0,0.0,0.0,0.0,0.0,0.0,0.0,0.0,0.0,0.0,0.0,0.0,0.0,0.0,0.0,0.0,0.0,0.0,0.0,0.0,0.0,0.0,0.0,0.0,0.0,0.0,0.0,0.0,0.0,0.0,0.0,0.0,0.0,0.0,0.0,0.0,0.0,0.0,0.0,0.0,0.0,0.0,0.0,0.0,0.0,0.0,0.0,0.0,0.0,0.0,0.0,0.0,0.0,0.0,0.0,0.0,0.0,0.0,0.0,0.0,0.0,0.0,0.0,0.0,0.0,0.0,0.0,0.0,0.0,0.0,0.0,0.0,0.0,0.0,0.0,0.0,0.0,0.0,0.0,0.0,0.0,0.0,0.0,0.0,0.0,0.0,0.0,0.0,0.0,0.0,0.0,0.0,0.0,0.0,0.0,0.0,0.0,0.0,0.0,0.0,0.0,0.0,0.0,0.0,0.0,0.0,0.0,0.0,0.0,0.0,0.0,0.0,0.0,0.0,0.0,0.0,0.0,0.0,0.0,0.0,0.0,0.0,0.0,0.0,0.0,0.0,0.0,0.0,0.0,0.0,0.0,0.0,0.0,0.0,0.0,0.0,0.0,0.0,0.0,0.0,0.0,0.0,0.0,0.0,0.0,0.0,0.0,0.0,0.0,0.0,0.0,0.0,0.0,0.0,0.0,0.0,0.0,0.0,0.0,0.0,0.0,0.0,0.0,0.0,0.0,0.0,0.0,0.0,0.0,0.0,0.0,0.0,0.0,0.0,0.0,0.0,0.0,0.0,0.0,0.0,0.0,0.0,0.0,0.0,0.0,0.0,0.0,0.0,0.0,0.0,0.0,0.0,0.0,0.0,0.0,0.0,0.0,0.0,0.0,0.0,0.0,0.0,0.0,0.0,0.0,0.0,0.0,0.0,-3.0559,0.0,0.0,0.0,0.0,0.0,0.0,0.0,0.0,0.0,0.0,0.0,0.0,0.0,0.0,0.0,0.0,0.0,0.0,0.0,0.0,0.0,0.0,0.0,0.0,0.0,0.0,0.0,0.0,0.0,0.0,0.0,0.0,0.0,0.0,0.0,0.0,0.0,0.0,0.0,0.0,0.0,0.0,0.0,0.0,0.0,0.0,0.0,0.0,0.0,0.0,0.0,0.0,0.0,0.0,0.0,0.0,0.0,0.0,0.0,0.0,0.0,0.0,0.0,0.0,0.0,0.0,0.0,0.0,0.0,0.0,0.0,0.0,0.0,0.0,0.0,0.0,0.0,0.0,0.0,0.0,0.0,0.0,0.0,0.0,0.0,0.0,0.0,0.0,0.0,0.0,0.0,0.0,0.0,0.0,0.0,0.0,0.0,0.0,0.0,0.0,0.0,0.0,0.0,0.0,0.0,0.0,0.0,0.0,0.0,0.0,-3.2581,-3.2123,-3.2496,-3.2031,-3.064,0.0,0.0,0.0,0.0,0.0,0.0,0.0,0.0,0.0,0.0,0.0,0.0,0.0,0.0,0.0,0.0,0.0,0.0,0.0,0.0,0.0,0.0,0.0,0.0,0.0,0.0,0.0,0.0,0.0,0.0,0.0,0.0,0.0,0.0,0.0,0.0,0.0,0.0,0.0,0.0,0.0,0.0,0.0,0.0,0.0,0.0,0.0,0.0,0.0,0.0,0.0,0.0,0.0,0.0,0.0,0.0,0.0,0.0,0.0,0.0,0.0,0.0,0.0,0.0,0.0,0.0,0.0,0.0,0.0,0.0,0.0,0.0,0.0,0.0,0.0,0.0,0.0,0.0,0.0,0.0,0.0,0.0,0.0,0.0,0.0,0.0,0.0,0.0,0.0,0.0,0.0,0.0,0.0,0.0,0.0,0.0,0.0,0.0,0.0,0.0,0.0,0.0,0.0,0.0,0.0,0.0,0.0,0.0,0.0,0.0,0.0,0.0,-3.2786,-3.2345,-3.0935,0.0,0.0,0.0,0.0,0.0,0.0,0.0,0.0,0.0,0.0,0.0,0.0,0.0,0.0,0.0,0.0,0.0,0.0,0.0,0.0,0.0,0.0,0.0,0.0,0.0,0.0,0.0,0.0,0.0,0.0,0.0,0.0,0.0,0.0,0.0,0.0,0.0,0.0,0.0,0.0,0.0,0.0,0.0,0.0,0.0,0.0,0.0,0.0,0.0,0.0,0.0,0.0,0.0,0.0,0.0,0.0,0.0,0.0,0.0,0.0,0.0,0.0,0.0,0.0,0.0,0.0,0.0,0.0,0.0,0.0,0.0,0.0,0.0,0.0,0.0,0.0,0.0,0.0,0.0,0.0,0.0,0.0,0.0,0.0,0.0,0.0,0.0,0.0,0.0,0.0,0.0,0.0,0.0,0.0,0.0,0.0,0.0,0.0,0.0,0.0,0.0,0.0,0.0,0.0,0.0,0.0,0.0,0.0,0.0,0.0,-3.1747,-3.321,-3.2525,0.0,-3.1657,0.0,0.0,0.0,0.0,0.0,0.0,0.0,0.0,0.0,0.0,0.0,0.0,0.0,0.0,0.0,0.0,0.0,0.0,0.0,0.0,0.0,0.0,0.0,0.0,0.0,0.0,0.0,0.0,0.0,0.0,0.0,0.0,0.0,0.0,0.0,0.0,0.0,0.0,0.0,0.0,0.0,0.0,0.0,0.0,0.0,0.0,0.0,0.0,0.0,0.0,0.0,0.0,0.0,0.0,0.0,0.0,0.0,0.0,0.0,0.0,0.0,0.0,0.0,0.0,0.0,0.0,0.0,0.0,0.0,0.0,0.0,0.0,0.0,0.0,0.0,0.0,0.0,0.0,0.0,0.0,0.0,0.0,0.0,0.0,0.0,0.0,0.0,0.0,0.0,0.0,0.0,0.0,0.0,0.0,0.0,0.0,0.0,0.0,0.0,0.0,0.0,0.0,0.0,0.0,0.0,0.0,0.0,0.0,0.0,0.0,-3.2398,-3.413,-3.2783,-3.1921,0.0,0.0,0.0,0.0,0.0,0.0,0.0,0.0,0.0,0.0,0.0,0.0,0.0,0.0,0.0,0.0,0.0,0.0,0.0,0.0,0.0,0.0,0.0,0.0,0.0,0.0,0.0,0.0,0.0,0.0,0.0,0.0,0.0,0.0,0.0,0.0,0.0,0.0,0.0,0.0,0.0,0.0,0.0,0.0,0.0,0.0,0.0,0.0,0.0,0.0,0.0,0.0,0.0,0.0,0.0,0.0,0.0,0.0,0.0,0.0,0.0,0.0,0.0,0.0,0.0,0.0,0.0,0.0,0.0,0.0,0.0,0.0,0.0,0.0,0.0,0.0,0.0,0.0,0.0,0.0,0.0,0.0,0.0,0.0,0.0,0.0,0.0,0.0,0.0,0.0,0.0,0.0,0.0,0.0,0.0,0.0,0.0,0.0,0.0,0.0,0.0,0.0,0.0,0.0,0.0,0.0,0.0,0.0,0.0,0.0,-3.2771,-3.3066,-3.4171,-3.2617,-3.1725,-3.1833,0.0,0.0,0.0,0.0,0.0,0.0,0.0,0.0,0.0,0.0,0.0,0.0,0.0,0.0,0.0,0.0,0.0,0.0,0.0,0.0,0.0,0.0,0.0,0.0,0.0,0.0,0.0,0.0,0.0,0.0,0.0,0.0,0.0,0.0,0.0,0.0,0.0,0.0,0.0,0.0,0.0,0.0,0.0,0.0,0.0,0.0,0.0,0.0,0.0,0.0,0.0,0.0,0.0,0.0,0.0,0.0,0.0,0.0,0.0,0.0,0.0,0.0,0.0,0.0,0.0,0.0,0.0,0.0,0.0,0.0,0.0,0.0,0.0,0.0,0.0,0.0,0.0,0.0,0.0,0.0,0.0,0.0,0.0,0.0,0.0,0.0,0.0,0.0,0.0,0.0,0.0,0.0,0.0,0.0,0.0,0.0,0.0,0.0,0.0,0.0,0.0,0.0,0.0,0.0,0.0,0.0,0.0,0.0,-3.334,-3.3365,-3.3379,-3.3472,-3.1759,-3.1176,0.0,0.0,0.0,0.0,0.0,0.0,0.0,0.0,0.0,0.0,0.0,0.0,0.0,0.0,0.0,0.0,0.0,0.0,0.0,0.0,0.0,0.0,0.0,0.0,0.0,0.0,0.0,0.0,0.0,0.0,0.0,0.0,0.0,0.0,0.0,0.0,0.0,0.0,0.0,0.0,0.0,0.0,0.0,0.0,0.0,0.0,0.0,0.0,0.0,0.0,0.0,0.0,0.0,0.0,0.0,0.0,0.0,0.0,0.0,0.0,0.0,0.0,0.0,0.0,0.0,0.0,0.0,0.0,0.0,0.0,0.0,0.0,0.0,0.0,0.0,0.0,0.0,0.0,0.0,0.0,0.0,0.0,0.0,0.0,0.0,0.0,0.0,0.0,0.0,0.0,0.0,0.0,0.0,0.0,0.0,0.0,0.0,0.0,0.0,0.0,0.0,0.0,0.0,0.0,0.0,0.0,0.0,0.0,0.0,-3.3308,-3.391,-3.4238,-3.4172,-3.2547,-3.1987,0.0,0.0,0.0,0.0,0.0,0.0,0.0,0.0,0.0,0.0,0.0,0.0,0.0,0.0,0.0,0.0,0.0,0.0,0.0,0.0,0.0,0.0,0.0,0.0,0.0,0.0,0.0,0.0,0.0,0.0,0.0,0.0,0.0,0.0,0.0,0.0,0.0,0.0,0.0,0.0,0.0,0.0,0.0,0.0,0.0,0.0,0.0,0.0,0.0,0.0,0.0,0.0,0.0,0.0,0.0,0.0,0.0,0.0,0.0,0.0,0.0,0.0,0.0,0.0,0.0,0.0,0.0,0.0,0.0,0.0,0.0,0.0,0.0,0.0,0.0,0.0,0.0,0.0,0.0,0.0,0.0,0.0,0.0,0.0,0.0,0.0,0.0,0.0,0.0,0.0,0.0,0.0,0.0,0.0,0.0,0.0,0.0,0.0,0.0,0.0,0.0,0.0,0.0,0.0,0.0,0.0,0.0,0.0,0.0,-3.4121,0.0,-3.4569,-3.4256,-3.2869,-3.2194,0.0,0.0,0.0,0.0,0.0,0.0,0.0,0.0,0.0,0.0,0.0,0.0,0.0,0.0,0.0,0.0,0.0,0.0,0.0,0.0,0.0,0.0,0.0,0.0,0.0,0.0,0.0,0.0,0.0,0.0,0.0,0.0,0.0,0.0,0.0,0.0,0.0,0.0,0.0,0.0,0.0,0.0,0.0,0.0,0.0,0.0,0.0,0.0,0.0,0.0,0.0,0.0,0.0,0.0,0.0,0.0,0.0,0.0,0.0,0.0,0.0,0.0,0.0,0.0,0.0,0.0,0.0,0.0,0.0,0.0,0.0,0.0,0.0,0.0,0.0,0.0,0.0,0.0,0.0,0.0,0.0,0.0,0.0,0.0,0.0,0.0,0.0,0.0,0.0,0.0,0.0,0.0,0.0,0.0,0.0,0.0,0.0,0.0,0.0,0.0,0.0,0.0,0.0,0.0,0.0,0.0,0.0,0.0,-3.4964,-3.5716,-3.5054,-3.4313,-3.3437,-3.2588,-3.1664,0.0,0.0,0.0,0.0,0.0,0.0,0.0,0.0,0.0,0.0,0.0,0.0,0.0,0.0,0.0,0.0,0.0,0.0,0.0,0.0,0.0,0.0,0.0,0.0,0.0,0.0,0.0,0.0,0.0,0.0,0.0,0.0,0.0,0.0,0.0,0.0,0.0,0.0,0.0,0.0,0.0,0.0,0.0,0.0,0.0,0.0,0.0,0.0,0.0,0.0,0.0,0.0,0.0,0.0,0.0,0.0,0.0,0.0,0.0,0.0,0.0,0.0,0.0,0.0,0.0,0.0,0.0,0.0,0.0,0.0,0.0,0.0,0.0,0.0,0.0,0.0,0.0,0.0,0.0,0.0,0.0,0.0,0.0,0.0,0.0,0.0,0.0,0.0,0.0,0.0,0.0,0.0,0.0,0.0,0.0,0.0,0.0,0.0,0.0,0.0,0.0,0.0,0.0,0.0,0.0,0.0,0.0,0.0,0.0,-3.3339,-3.4165,-3.4541,-3.4257,-3.2862,-3.2216,0.0,0.0,0.0,0.0,0.0,0.0,0.0,0.0,0.0,0.0,0.0,0.0,0.0,0.0,0.0,0.0,0.0,0.0,0.0,0.0,0.0,0.0,0.0,0.0,0.0,0.0,0.0,0.0,0.0,0.0,0.0,0.0,0.0,0.0,0.0,0.0,0.0,0.0,0.0,0.0,0.0,0.0,0.0,0.0,0.0,0.0,0.0,0.0,0.0,0.0,0.0,0.0,0.0,0.0,0.0,0.0,0.0,0.0,0.0,0.0,0.0,0.0,0.0,0.0,0.0,0.0,0.0,0.0,0.0,0.0,0.0,0.0,0.0,0.0,0.0,0.0,0.0,0.0,0.0,0.0,0.0,0.0,0.0,0.0,0.0,0.0,0.0,0.0,0.0,0.0,0.0,0.0,0.0,0.0,0.0,0.0,0.0,0.0,0.0,0.0,0.0,0.0,0.0,0.0,0.0,0.0,0.0,0.0,0.0,-3.3147,-3.4359,-3.4802,-3.4232,-3.3141,-3.2502,-3.2325,0.0,0.0,0.0,0.0,0.0,0.0,0.0,0.0,0.0,0.0,0.0,0.0,0.0,0.0,0.0,0.0,0.0,0.0,0.0,0.0,0.0,0.0,0.0,0.0,0.0,0.0,0.0,0.0,0.0,0.0,0.0,0.0,0.0,0.0,0.0,0.0,0.0,0.0,0.0,0.0,0.0,0.0,0.0,0.0,0.0,0.0,0.0,0.0,0.0,0.0,0.0,0.0,0.0,0.0,0.0,0.0,0.0,0.0,0.0,0.0,0.0,0.0,0.0,0.0,0.0,0.0,0.0,0.0,0.0,0.0,0.0,0.0,0.0,0.0,0.0,0.0,0.0,0.0,0.0,0.0,0.0,0.0,0.0,0.0,0.0,0.0,0.0,0.0,0.0,0.0,0.0,0.0,0.0,0.0,0.0,0.0,0.0,0.0,0.0,0.0,0.0,0.0,0.0,0.0,0.0,0.0,0.0,0.0,-3.4571,-3.5438,-3.5153,-3.3628,-3.3457,-3.2596,0.0,0.0,0.0,0.0,0.0,0.0,0.0,0.0,0.0,0.0,0.0,0.0,0.0,0.0,0.0,0.0,0.0,0.0,0.0,0.0,0.0,0.0,0.0,0.0,0.0,0.0,0.0,0.0,0.0,0.0,0.0,0.0,0.0,0.0,0.0,0.0,0.0,0.0,0.0,0.0,0.0,0.0,0.0,0.0,0.0,0.0,0.0,0.0,0.0,0.0,0.0,0.0,0.0,0.0,0.0,0.0,0.0,0.0,0.0,0.0,0.0,0.0,0.0,0.0,0.0,0.0,0.0,0.0,0.0,0.0,0.0,0.0,0.0,0.0,0.0,0.0,0.0,0.0,0.0,0.0,0.0,0.0,0.0,0.0,0.0,0.0,0.0,0.0,0.0,0.0,0.0,0.0,0.0,0.0,0.0,0.0,0.0,0.0,0.0,0.0,0.0,0.0,0.0,0.0,0.0,0.0,0.0,0.0,0.0,-3.5417,-3.5723,-3.5678,-3.523,-3.4042,-3.3151,0.0,0.0,0.0,0.0,0.0,0.0,0.0,0.0,0.0,0.0,0.0,0.0,0.0,0.0,0.0,0.0,0.0,0.0,0.0,0.0,0.0,0.0,0.0,0.0,0.0,0.0,0.0,0.0,0.0,0.0,0.0,0.0,0.0,0.0,0.0,0.0,0.0,0.0,0.0,0.0,0.0,0.0,0.0,0.0,0.0,0.0,0.0,0.0,0.0,0.0,0.0,0.0,0.0,0.0,0.0,0.0,0.0,0.0,0.0,0.0,0.0,0.0,0.0,0.0,0.0,0.0,0.0,0.0,0.0,0.0,0.0,0.0,0.0,0.0,0.0,0.0,0.0,0.0,0.0,0.0,0.0,0.0,0.0,0.0,0.0,0.0,0.0,0.0,0.0,0.0,0.0,0.0,0.0,0.0,0.0,0.0,0.0,0.0,0.0,0.0,0.0,0.0,0.0,0.0,0.0,0.0,0.0,0.0,-3.5683,-3.5708,-3.5795,-3.5878,-3.5896,-3.4625,-3.3589,0.0,0.0,0.0,0.0,0.0,0.0,0.0,0.0,0.0,0.0,0.0,0.0,0.0,0.0,0.0,0.0,0.0,0.0,0.0,0.0,0.0,0.0,0.0,0.0,0.0,0.0,0.0,0.0,0.0,0.0,0.0,0.0,0.0,0.0,0.0,0.0,0.0,0.0,0.0,0.0,0.0,0.0,0.0,0.0,0.0,0.0,0.0,0.0,0.0,0.0,0.0,0.0,0.0,0.0,0.0,0.0,0.0,0.0,0.0,0.0,0.0,0.0,0.0,0.0,0.0,0.0,0.0,0.0,0.0,0.0,0.0,0.0,0.0,0.0,0.0,0.0,0.0,0.0,0.0,0.0,0.0,0.0,0.0,0.0,0.0,0.0,0.0,0.0,0.0,0.0,0.0,0.0,0.0,0.0,0.0,0.0,0.0,0.0,0.0,0.0,0.0,0.0,0.0,0.0,0.0,0.0,0.0,0.0,-3.5643,-3.5713,-3.5763,-3.5824,-3.5868,-3.5105,-3.3925,0.0,0.0,0.0,0.0,0.0,0.0,0.0,0.0,0.0,0.0,0.0,0.0,0.0,0.0,0.0,0.0,0.0,0.0,0.0,0.0,0.0,0.0,0.0,0.0,0.0,0.0,0.0,0.0,0.0,0.0,0.0,0.0,0.0,0.0,0.0,0.0,0.0,0.0,0.0,0.0,0.0,0.0,0.0,0.0,0.0,0.0,0.0,0.0,0.0,0.0,0.0,0.0,0.0,0.0,0.0,0.0,0.0,0.0,0.0,0.0,0.0,0.0,0.0,0.0,0.0,0.0,0.0,0.0,0.0,0.0,0.0,0.0,0.0,0.0,0.0,0.0,0.0,0.0,0.0,0.0,0.0,0.0,0.0,0.0,0.0,0.0,0.0,0.0,0.0,0.0,0.0,0.0,0.0,0.0,0.0,0.0,0.0,0.0,0.0,0.0,0.0,0.0,0.0,0.0,0.0,0.0,0.0,0.0,-3.5658,-3.5766,-3.5799,-3.584,-3.5892,-3.5071,-3.4159,0.0,0.0,0.0,0.0,0.0,0.0,0.0,0.0,0.0,0.0,0.0,0.0,0.0,0.0,0.0,0.0,0.0,0.0,0.0,0.0,0.0,0.0,0.0,0.0,0.0,0.0,0.0,0.0,0.0,0.0,0.0,0.0,0.0,0.0,0.0,0.0,0.0,0.0,0.0,0.0,0.0,0.0,0.0,0.0,0.0,0.0,0.0,0.0,-3.3687,0.0,0.0,0.0,0.0,0.0,0.0,0.0,0.0,0.0,0.0,0.0,0.0,0.0,0.0,0.0,0.0,0.0,0.0,0.0,0.0,0.0,0.0,0.0,0.0,0.0,0.0,0.0,0.0,0.0,0.0,0.0,0.0,0.0,0.0,0.0,0.0,0.0,0.0,0.0,0.0,0.0,0.0,0.0,0.0,0.0,0.0,0.0,0.0,0.0,0.0,0.0,0.0,0.0,0.0,0.0,0.0,0.0,0.0,0.0,-3.5643,-3.5766,-3.5773,-3.5834,-3.5878,-3.5459,-3.464,0.0,0.0,0.0,0.0,0.0,0.0,0.0,0.0,0.0,0.0,0.0,0.0,0.0,0.0,0.0,0.0,0.0,0.0,0.0,0.0,0.0,0.0,0.0,0.0,0.0,0.0,0.0,0.0,0.0,0.0,0.0,0.0,0.0,0.0,0.0,0.0,0.0,0.0,0.0,0.0,0.0,0.0,0.0,0.0,0.0,0.0,0.0,0.0,0.0,0.0,0.0,0.0,0.0,0.0,0.0,0.0,0.0,0.0,0.0,0.0,0.0,0.0,0.0,0.0,0.0,0.0,0.0,0.0,0.0,0.0,0.0,0.0,0.0,0.0,0.0,0.0,0.0,0.0,0.0,0.0,0.0,0.0,0.0,0.0,0.0,0.0,0.0,0.0,0.0,0.0,0.0,0.0,0.0,0.0,0.0,0.0,0.0,0.0,0.0,0.0,0.0,0.0,0.0,0.0,0.0,0.0,0.0,-3.5577,-3.5635,-3.5713,-3.5761,-3.5826,-3.5882,-3.5885,-3.5172,-3.3671,0.0,0.0,0.0,0.0,0.0,0.0,0.0,0.0,0.0,0.0,0.0,0.0,0.0,0.0,0.0,0.0,0.0,0.0,0.0,0.0,0.0,0.0,0.0,0.0,0.0,0.0,0.0,0.0,0.0,0.0,0.0,0.0,0.0,0.0,0.0,0.0,0.0,0.0,-3.4585,-3.5628,0.0,0.0,0.0,0.0,0.0,0.0,0.0,0.0,-3.4326,0.0,0.0,0.0,0.0,0.0,0.0,0.0,0.0,0.0,0.0,0.0,0.0,0.0,0.0,0.0,0.0,0.0,0.0,0.0,0.0,0.0,0.0,0.0,0.0,0.0,0.0,0.0,0.0,0.0,0.0,0.0,0.0,0.0,0.0,0.0,0.0,0.0,0.0,0.0,0.0,0.0,0.0,0.0,0.0,0.0,0.0,0.0,0.0,0.0,0.0,0.0,0.0,0.0,0.0,0.0,0.0,-3.557,-3.5581,-3.5646,-3.5699,-3.5766,-3.5799,-3.5824,-3.588,-3.5465,-3.453,0.0,0.0,0.0,0.0,0.0,0.0,0.0,0.0,0.0,0.0,0.0,0.0,0.0,0.0,0.0,0.0,0.0,0.0,0.0,0.0,0.0,0.0,0.0,0.0,0.0,0.0,0.0,0.0,0.0,0.0,0.0,0.0,0.0,0.0,0.0,0.0,0.0,0.0,0.0,-3.6641,-3.7265,0.0,0.0,0.0,0.0,0.0,0.0,0.0,0.0,-3.3309,0.0,0.0,0.0,0.0,0.0,0.0,0.0,0.0,0.0,0.0,0.0,0.0,0.0,0.0,0.0,0.0,0.0,0.0,0.0,0.0,0.0,0.0,0.0,0.0,0.0,0.0,0.0,0.0,0.0,0.0,0.0,0.0,0.0,0.0,0.0,0.0,0.0,0.0,0.0,0.0,0.0,0.0,0.0,0.0,0.0,0.0,0.0,0.0,0.0,0.0,0.0,0.0,0.0,0.0,0.0,-3.5534,-3.5589,-3.564,-3.5703,-3.5737,-3.576,-3.5807,-3.5856,-3.5502,0.0,0.0,0.0,0.0,0.0,0.0,0.0,0.0,0.0,0.0,0.0,0.0,0.0,0.0,0.0,0.0,0.0,0.0,0.0,0.0,0.0,0.0,0.0,0.0,0.0,0.0,0.0,0.0,0.0,0.0,0.0,0.0,0.0,0.0,0.0,0.0,0.0,0.0,0.0,0.0,-3.6731,-3.6735,-3.5508,0.0,0.0,0.0,0.0,0.0,0.0,-3.4149,-3.3441,0.0,0.0,0.0,0.0,0.0,0.0,0.0,0.0,0.0,0.0,0.0,0.0,0.0,0.0,0.0,0.0,0.0,0.0,0.0,0.0,0.0,0.0,0.0,0.0,0.0,0.0,0.0,0.0,0.0,0.0,0.0,0.0,0.0,0.0,0.0,0.0,0.0,0.0,0.0,0.0,0.0,0.0,0.0,0.0,0.0,0.0,0.0,0.0,0.0,0.0,0.0,0.0,0.0,0.0,0.0,-3.5496,-3.5559,-3.5612,-3.5681,-3.5678,-3.5713,-3.5793,-3.5864,-3.5552,0.0,0.0,0.0,0.0,0.0,0.0,0.0,0.0,0.0,0.0,0.0,0.0,0.0,0.0,0.0,0.0,0.0,0.0,0.0,0.0,0.0,0.0,0.0,0.0,0.0,0.0,0.0,0.0,0.0,0.0,0.0,0.0,0.0,0.0,0.0,0.0,0.0,0.0,0.0,0.0,0.0,-3.6251,-3.5554,-3.5859,0.0,0.0,0.0,0.0,-3.5461,-3.4292,0.0,0.0,0.0,0.0,0.0,0.0,0.0,0.0,0.0,0.0,0.0,0.0,0.0,0.0,0.0,0.0,0.0,0.0,0.0,0.0,0.0,0.0,0.0,0.0,0.0,0.0,0.0,0.0,0.0,0.0,0.0,0.0,0.0,0.0,0.0,0.0,0.0,0.0,0.0,0.0,0.0,0.0,0.0,0.0,0.0,0.0,0.0,0.0,0.0,0.0,0.0,0.0,0.0,0.0,0.0,0.0,-3.5468,-3.5496,-3.556,-3.5616,-3.561,-3.5648,-3.5703,-3.5779,-3.5807,0.0,0.0,0.0,0.0,0.0,0.0,0.0,0.0,0.0,0.0,0.0,0.0,0.0,0.0,0.0,0.0,0.0,0.0,0.0,0.0,0.0,0.0,0.0,0.0,0.0,0.0,0.0,0.0,0.0,0.0,0.0,0.0,0.0,0.0,0.0,0.0,0.0,0.0,0.0,0.0,0.0,-3.7103,-3.4041,-3.5581,-3.6484,0.0,0.0,-3.4696,-3.4747,-3.449,0.0,0.0,0.0,0.0,0.0,0.0,0.0,0.0,0.0,0.0,0.0,0.0,0.0,0.0,0.0,0.0,0.0,0.0,0.0,0.0,0.0,0.0,0.0,0.0,0.0,0.0,0.0,0.0,0.0,0.0,0.0,0.0,0.0,0.0,0.0,0.0,0.0,0.0,0.0,0.0,0.0,0.0,0.0,0.0,0.0,0.0,0.0,0.0,0.0,0.0,0.0,0.0,0.0,0.0,0.0,-3.5089,-3.5434,-3.5515,-3.5585,-3.5598,-3.5622,-3.5618,-3.5643,-3.5703,-3.5772,0.0,0.0,0.0,0.0,0.0,0.0,0.0,0.0,0.0,0.0,0.0,0.0,0.0,0.0,0.0,0.0,0.0,0.0,0.0,0.0,0.0,0.0,0.0,0.0,0.0,0.0,0.0,0.0,0.0,0.0,0.0,0.0,0.0,0.0,0.0,0.0,0.0,0.0,0.0,0.0,0.0,0.0,-3.4296,-3.5843,0.0,0.0,0.0,-3.4703,-3.4668,0.0,0.0,0.0,0.0,0.0,0.0,0.0,0.0,0.0,0.0,0.0,0.0,0.0,0.0,0.0,0.0,0.0,0.0,0.0,0.0,0.0,0.0,0.0,0.0,0.0,0.0,0.0,0.0,0.0,0.0,0.0,0.0,0.0,0.0,0.0,0.0,0.0,0.0,0.0,0.0,0.0,0.0,0.0,0.0,0.0,0.0,0.0,0.0,0.0,0.0,0.0,0.0,0.0,0.0,0.0,0.0,0.0,-3.5376,-3.5489,-3.556,-3.556,-3.556,-3.559,-3.5574,-3.5629,0.0,0.0,0.0,0.0,0.0,0.0,0.0,0.0,0.0,0.0,0.0,0.0,0.0,0.0,0.0,0.0,0.0,0.0,0.0,0.0,0.0,0.0,0.0,0.0,0.0,0.0,0.0,-3.2518,0.0,0.0,0.0,0.0,0.0,0.0,0.0,0.0,0.0,0.0,0.0,0.0,0.0,0.0,-3.5236,-3.4377,-3.5555,-3.5726,0.0,0.0,-3.4564,-3.4101,-3.3137,-3.2528,0.0,0.0,0.0,0.0,0.0,0.0,0.0,0.0,0.0,0.0,0.0,0.0,0.0,0.0,0.0,0.0,0.0,0.0,0.0,0.0,0.0,0.0,0.0,0.0,0.0,0.0,0.0,0.0,0.0,0.0,0.0,0.0,0.0,0.0,0.0,0.0,0.0,0.0,0.0,0.0,0.0,0.0,0.0,0.0,0.0,0.0,0.0,0.0,0.0,0.0,0.0,0.0,0.0,0.0,0.0,-3.53,-3.5376,-3.542,-3.542,-3.5476,-3.5496,-3.5502,-3.5583,-3.561,0.0,0.0,0.0,0.0,0.0,0.0,0.0,0.0,0.0,0.0,0.0,0.0,0.0,0.0,0.0,0.0,0.0,0.0,0.0,0.0,0.0,0.0,0.0,0.0,0.0,0.0,0.0,0.0,0.0,0.0,0.0,0.0,0.0,0.0,0.0,0.0,0.0,0.0,0.0,0.0,0.0,-3.4275,-3.3415,-3.4149,-3.4141,0.0,0.0,-3.4134,-3.2523,-3.2868,-3.3026,-3.2221,0.0,0.0,0.0,0.0,0.0,0.0,0.0,0.0,0.0,0.0,0.0,0.0,0.0,0.0,0.0,0.0,0.0,0.0,0.0,0.0,0.0,0.0,0.0,0.0,0.0,0.0,0.0,0.0,0.0,0.0,0.0,0.0,0.0,0.0,0.0,0.0,0.0,0.0,0.0,0.0,0.0,0.0,0.0,0.0,0.0,0.0,0.0,0.0,0.0,0.0,0.0,0.0,0.0,-3.4737,-3.5234,-3.5312,-3.533,-3.533,-3.5367,-3.5395,-3.5435,-3.5502,-3.5547,0.0,0.0,0.0,0.0,0.0,0.0,0.0,0.0,0.0,0.0,0.0,0.0,0.0,0.0,0.0,0.0,0.0,0.0,0.0,0.0,0.0,0.0,0.0,0.0,0.0,0.0,0.0,0.0,-3.3544,-3.3675,-3.4509,0.0,0.0,0.0,0.0,0.0,0.0,0.0,0.0,0.0,0.0,-3.3867,-3.2478,-3.3514,0.0,0.0,-3.2953,-3.3574,-3.2941,-3.2243,-3.1869,-3.2031,-3.2336,0.0,0.0,0.0,0.0,0.0,0.0,0.0,0.0,0.0,0.0,0.0,0.0,0.0,0.0,0.0,0.0,0.0,0.0,0.0,0.0,0.0,0.0,0.0,0.0,0.0,0.0,0.0,0.0,0.0,0.0,0.0,0.0,0.0,0.0,0.0,0.0,0.0,0.0,0.0,0.0,0.0,0.0,0.0,0.0,0.0,0.0,0.0,0.0,0.0,0.0,0.0,0.0,-3.4644,-3.5193,-3.5258,-3.527,-3.5278,-3.527,-3.5304,-3.5354,-3.541,-3.5427,0.0,0.0,0.0,0.0,0.0,0.0,0.0,0.0,0.0,0.0,0.0,0.0,0.0,0.0,0.0,0.0,0.0,0.0,0.0,0.0,0.0,0.0,0.0,0.0,0.0,0.0,0.0,0.0,-3.386,-3.3929,-3.4553,0.0,0.0,0.0,0.0,0.0,0.0,0.0,0.0,0.0,0.0,-3.3118,-3.217,-3.3097,-3.3445,-3.228,-3.2948,-3.3394,-3.2927,-3.1873,-3.1242,-3.1621,0.0,0.0,0.0,0.0,0.0,0.0,0.0,0.0,0.0,0.0,0.0,0.0,0.0,0.0,0.0,0.0,0.0,0.0,0.0,0.0,0.0,0.0,0.0,0.0,0.0,0.0,0.0,0.0,0.0,0.0,-3.5293,0.0,0.0,0.0,0.0,0.0,0.0,0.0,0.0,0.0,0.0,0.0,0.0,0.0,0.0,0.0,0.0,0.0,0.0,0.0,0.0,0.0,0.0,-3.5143,-3.5181,-3.5204,-3.5209,-3.5209,-3.519,-3.519,-3.519,-3.5269,-3.5312,-3.53,0.0,0.0,0.0,0.0,0.0,0.0,0.0,0.0,0.0,0.0,0.0,0.0,0.0,0.0,0.0,0.0,0.0,0.0,0.0,0.0,0.0,0.0,0.0,0.0,0.0,0.0,-3.5744,-3.5112,-3.4573,0.0,0.0,0.0,0.0,0.0,0.0,0.0,0.0,0.0,0.0,-3.2679,-3.187,-3.2645,-3.2794,-3.284,-3.2821,-3.3672,-3.3761,-3.212,-3.1852,-3.1614,0.0,0.0,0.0,0.0,0.0,0.0,0.0,0.0,0.0,0.0,0.0,0.0,0.0,0.0,0.0,0.0,0.0,0.0,0.0,0.0,0.0,0.0,0.0,0.0,0.0,0.0,0.0,-3.527,-3.5211,0.0,0.0,0.0,0.0,0.0,0.0,0.0,0.0,0.0,0.0,0.0,-3.4607,-3.4649,0.0,0.0,0.0,0.0,0.0,0.0,0.0,0.0,0.0,0.0,0.0,0.0,-3.4467,-3.4973,-3.5101,-3.5117,-3.5136,-3.5136,-3.5117,-3.5126,-3.516,-3.5182,-3.5226,0.0,0.0,0.0,0.0,0.0,0.0,0.0,0.0,0.0,0.0,0.0,0.0,0.0,0.0,0.0,0.0,0.0,0.0,0.0,0.0,0.0,0.0,0.0,0.0,0.0,-3.4682,0.0,0.0,0.0,0.0,0.0,0.0,0.0,0.0,0.0,0.0,0.0,-3.3776,-3.3206,-3.3123,-3.2989,-3.2699,-3.2668,-3.2481,0.0,0.0,0.0,0.0,0.0,0.0,0.0,0.0,0.0,0.0,0.0,0.0,0.0,0.0,-3.3298,-3.4692,-3.4261,-3.3758,-3.4036,0.0,0.0,0.0,0.0,0.0,0.0,0.0,0.0,0.0,0.0,0.0,0.0,0.0,0.0,-3.5303,0.0,-3.4954,0.0,0.0,0.0,0.0,0.0,0.0,0.0,0.0,-3.4374,-3.4427,-3.4439,-3.4506,-3.4247,0.0,-3.4233,-3.452,0.0,0.0,0.0,0.0,0.0,0.0,0.0,0.0,-3.4358,-3.4841,-3.4946,-3.5002,-3.5001,-3.4983,-3.4974,-3.4993,-3.5019,-3.5081,-3.516,-3.5212,-3.5226,0.0,0.0,0.0,0.0,0.0,0.0,0.0,0.0,0.0,0.0,0.0,0.0,0.0,0.0,0.0,0.0,0.0,0.0,0.0,0.0,0.0,0.0,0.0,-3.4316,0.0,0.0,0.0,0.0,0.0,0.0,0.0,0.0,0.0,-3.3985,-3.3608,-3.3124,-3.2577,-3.2693,-3.2876,-3.2933,0.0,0.0,0.0,0.0,0.0,0.0,0.0,-3.159,-3.1292,-3.082,-3.0477,-3.0438,-3.0731,-3.1196,-3.1817,0.0,0.0,-3.3879,-3.3437,-3.2949,-3.3276,-3.314,-3.3022,-3.3284,-3.2679,-3.2113,0.0,0.0,0.0,0.0,0.0,0.0,0.0,0.0,-3.6068,-3.5555,0.0,-3.4821,0.0,0.0,0.0,0.0,0.0,-3.4335,0.0,0.0,-3.445,-3.4465,-3.4305,-3.4351,-3.4328,-3.4197,-3.4148,-3.413,-3.4203,-3.4602,0.0,0.0,0.0,0.0,0.0,0.0,-3.4791,-3.4788,-3.4807,-3.4771,-3.4802,-3.473,-3.4718,-3.4788,-3.485,-3.4964,-3.5075,-3.5084,-3.5082,-3.5107,-3.516,0.0,0.0,0.0,0.0,0.0,0.0,0.0,0.0,0.0,0.0,0.0,0.0,0.0,0.0,0.0,0.0,0.0,0.0,0.0,0.0,-3.4226,0.0,0.0,0.0,0.0,0.0,0.0,0.0,0.0,0.0,0.0,-3.3675,-3.295,-3.2325,-3.2355,0.0,0.0,0.0,0.0,-3.2864,-3.4509,-3.4323,-3.3609,-3.2684,-3.1953,-3.1185,-3.0329,0.0,0.0,-3.0284,-3.1035,-3.1631,-3.1748,-3.1705,-3.2051,-3.3008,-3.2506,-3.2237,-3.3038,-3.2576,-3.2369,-3.3005,-3.2498,-3.1991,-3.5994,0.0,0.0,0.0,0.0,-3.5902,-3.5647,-3.567,-3.5666,-3.5217,-3.4413,-3.4446,0.0,0.0,0.0,0.0,0.0,0.0,-3.4061,-3.3998,-3.413,-3.4161,-3.4142,-3.4221,-3.4233,-3.4197,-3.4136,-3.413,-3.4117,-3.4227,-3.4328,-3.4374,0.0,0.0,0.0,0.0,-3.4531,-3.4591,-3.4634,-3.4647,-3.4639,-3.4645,-3.4645,-3.4655,-3.4668,-3.4699,-3.4749,-3.4849,-3.4888,-3.4888,-3.4992,0.0,0.0,0.0,0.0,0.0,0.0,0.0,0.0,0.0,0.0,0.0,0.0,0.0,0.0,0.0,0.0,0.0,0.0,0.0,-3.4116,-3.3493,-3.3525,0.0,0.0,0.0,0.0,0.0,0.0,0.0,0.0,0.0,-3.2386,-3.2794,-3.3107,0.0,0.0,-3.3637,-3.3544,-3.3258,-3.2812,-3.2099,-3.2317,0.0,0.0,-3.0839,-3.0856,-2.9994,-2.9916,-2.9996,-3.0121,-3.0392,-3.0599,-3.0723,-3.0747,-3.0857,-3.1125,-3.1169,-3.1186,-3.1395,-3.1254,-3.1168,-3.1381,-3.1279,-3.1176,-3.657,-3.6012,-3.5164,-3.5316,-3.6027,-3.5525,-3.5321,-3.5347,-3.5347,-3.4871,-3.4099,-3.4161,-3.4136,-3.4061,-3.4067,0.0,0.0,0.0,-3.3934,-3.3895,-3.3959,-3.4011,-3.4023,-3.4086,-3.4111,-3.4105,-3.4036,-3.4005,-3.4023,-3.3998,-3.4036,-3.4148,0.0,0.0,-3.4185,-3.4293,-3.4363,-3.4374,-3.445,-3.4465,-3.4503,-3.4461,-3.4461,-3.4484,-3.4506,-3.4528,-3.455,-3.4666,-3.4727,-3.4727,-3.482,-3.4889,0.0,0.0,0.0,0.0,0.0,0.0,0.0,0.0,0.0,0.0,0.0,-3.4744,0.0,0.0,0.0,0.0,-3.3474,-3.3402,-3.3387,-3.3184,0.0,0.0,0.0,0.0,0.0,0.0,0.0,-3.3696,-3.2599,-3.1775,-3.1704,-3.2229,-3.2482,-3.2191,-3.2641,-3.293,-3.2764,0.0,-3.1936,-3.1235,-3.1325,-3.1092,-3.0078,-3.0151,-3.0189,-2.972,-2.9737,-2.9842,-2.9956,-2.9988,-3.0049,-3.018,-3.0227,-3.0254,-3.031,-3.0436,-3.0524,-3.0607,-3.0642,-3.0665,-3.0692,-3.0494,-3.0289,-3.7395,-3.6594,-3.4717,-3.4426,-3.5137,-3.5023,-3.5009,-3.5082,-3.5078,-3.4595,-3.3825,-3.3921,-3.3868,-3.3726,-3.378,0.0,-3.39,-3.3881,-3.3868,-3.3868,-3.3952,-3.3934,-3.3881,-3.3952,-3.3934,-3.3868,-3.3868,-3.3887,-3.3868,-3.382,-3.3815,-3.3868,-3.4074,-3.4099,-3.3998,-3.4161,-3.4252,-3.4185,-3.4233,-3.4269,-3.4288,-3.4221,-3.4209,-3.4269,-3.434,-3.4386,-3.4461,-3.4528,-3.4561,-3.4561,-3.4645,-3.4676,-3.4687,0.0,0.0,0.0,0.0,0.0,0.0,0.0,0.0,0.0,0.0,0.0,0.0,0.0,0.0,0.0,-3.2414,0.0,-3.2147,-3.292,0.0,0.0,0.0,-3.3006,-3.2076,-3.1784,-3.1669,-3.1678,0.0,0.0,-3.1365,-3.1293,-3.0931,-3.0051,-3.0215,-3.0658,-3.1381,-3.0847,-3.0565,-3.1228,-3.0843,-3.0429,-3.0179,-2.9758,-2.9448,-2.9443,-2.9588,-2.9683,-2.9755,-2.9763,-2.9841,-3.003,-3.008,-3.0091,-3.0168,-3.0125,-3.0132,-3.0283,-3.0457,-3.0606,-3.0625,-3.0157,-2.9722,-3.6683,-3.6482,-3.5398,-3.5557,-3.6417,-3.5256,-3.4772,-3.4805,-3.4844,-3.4448,-3.3726,-3.3753,-3.3788,-3.3842,-3.3887,-3.3855,-3.3815,-3.378,-3.3707,-3.3671,-3.3684,-3.3703,-3.3671,-3.3684,-3.3684,-3.3671,-3.3671,-3.3689,-3.3671,-3.3698,-3.3712,-3.3689,-3.378,-3.3815,-3.3842,-3.3895,-3.3934,-3.3972,-3.3985,-3.4023,-3.4074,-3.4061,-3.4061,-3.4074,-3.4136,-3.4161,-3.4105,-3.4233,-3.4293,-3.4293,-3.4397,-3.4495,-3.4539,-3.4687,0.0,0.0,0.0,0.0,0.0,0.0,0.0,0.0,0.0,-3.4418,-3.4886,0.0,-3.3935,0.0,-3.1996,-3.0999,-3.0939,-3.1038,0.0,0.0,-3.2008,-3.2014,-3.1712,-3.0979,-3.0798,-3.1466,-3.0785,-3.0219,-3.0137,-3.0111,-2.9748,-2.8833,-3.0104,-3.101,-3.0624,-3.0271,-2.9917,-2.9581,-2.9314,-2.9101,-2.9168,-2.9085,-2.906,-2.9178,-2.9265,-2.9359,-2.9482,-2.956,-2.9636,-2.9806,-2.9876,-2.9891,-2.9961,-2.9536,-2.9181,-2.9237,-2.9812,-3.0409,-3.0516,-3.0336,-3.0255,-3.656,-3.6774,-3.5293,-3.5465,-3.6619,-3.5146,-3.4322,-3.3979,-3.4024,-3.38,-3.3444,-3.3473,-3.3577,-3.3671,-3.3698,-3.3726,-3.373,-3.3671,-3.3633,-3.3563,-3.3609,-3.3573,-3.3563,-3.3591,-3.3605,-3.3605,-3.3605,-3.3605,-3.3605,-3.3629,-3.3629,-3.3605,-3.3629,-3.3657,-3.3671,-3.3726,-3.3762,-3.382,-3.3847,-3.39,-3.3947,-3.3921,-3.3895,-3.3887,-3.3934,-3.3934,-3.3868,-3.3998,-3.4086,-3.4111,-3.4209,-3.4269,-3.4281,-3.4374,-3.4397,0.0,0.0,0.0,0.0,0.0,0.0,0.0,0.0,0.0,0.0,0.0,-3.3402,-3.2987,-3.1468,-3.0649,-3.1002,-3.0924,-3.0893,-3.0944,-3.0879,-3.0674,-3.0247,-2.9635,-2.9468,-2.995,-2.9447,-2.9004,-2.895,-2.8954,-2.8738,-2.818,-2.9139,-2.9769,-2.9439,-2.931,-2.9109,-2.8667,-2.8531,-2.8536,-2.8594,-2.8712,-2.8803,-2.8929,-2.9021,-2.9123,-2.9267,-2.933,-2.9433,-2.9617,-2.9664,-2.971,-2.9742,-2.9177,-2.8692,-2.873,-2.8872,-2.9098,-2.9256,-2.9037,-2.882,-3.677,-3.7178,-3.5155,-3.503,-3.6132,-3.4909,-3.395,-3.3229,-3.314,-3.3119,-3.3119,-3.3229,-3.3322,-3.3396,-3.3452,-3.352,-3.3595,-3.3577,-3.3534,-3.3495,-3.3567,-3.3549,-3.3495,-3.3549,-3.3577,-3.3577,-3.3577,-3.3577,-3.3577,-3.3573,-3.3591,-3.3577,-3.3573,-3.3549,-3.3495,-3.3605,-3.3689,-3.3703,-3.3753,-3.3807,-3.3873,-3.3793,-3.3726,-3.3657,-3.3739,-3.3739,-3.3689,-3.3807,-3.3881,-3.3947,-3.4011,-3.4023,-3.3972,-3.403,-3.4018,0.0,-3.4005,0.0,0.0,0.0,0.0,0.0,0.0,0.0,0.0,-3.2901,-3.2924,-3.1787,-3.0969,-3.0734,-3.1231,-3.1228,-3.0821,-2.991,-2.9668,-2.9258,-2.8488,-2.8264,-2.8182,-2.82,-2.8112,-2.8056,-2.8032,-2.7968,-2.7968,-2.8,-2.8081,-2.8251,-2.8254,-2.8367,-2.838,-2.8273,-2.8313,-2.8367,-2.8445,-2.8523,-2.8612,-2.8737,-2.8822,-2.8929,-2.9093,-2.9156,-2.9243,-2.9402,-2.9351,-2.9371,-2.9598,-2.8941,-2.8336,-2.8311,-2.7834,-2.7514,-2.7771,-2.7503,-2.6868,-3.7002,-3.7111,-3.6689,-3.6021,-3.5244,-3.5047,-3.4596,-3.394,-3.3358,-3.3119,-3.3101,-3.3247,-3.3307,-3.3322,-3.3396,-3.3422,-3.3419,-3.3437,-3.3422,-3.3408,-3.3437,-3.3422,-3.3408,-3.3437,-3.3437,-3.3437,-3.3437,-3.3437,-3.3437,-3.3495,-3.3495,-3.3437,-3.3495,-3.3452,-3.3352,0.0,0.0,0.0,-3.3629,-3.3643,-3.3643,-3.3534,-3.3448,-3.3466,-3.3595,0.0,-3.3534,-3.3601,-3.3657,-3.3671,-3.3739,0.0,0.0,0.0,0.0,0.0,0.0,0.0,0.0,0.0,0.0,0.0,-3.3278,-3.2986,-3.2854,-3.3447,-3.2925,-3.0768,-3.0882,-3.0582,-2.9239,-2.9029,-2.8897,-2.8648,-2.8542,-2.8438,-2.8254,-2.8168,-2.8112,-2.8126,-2.8018,-2.7932,-2.7917,-2.7824,-2.7792,-2.7885,-2.7917,-2.7932,-2.7975,-2.8042,-2.8067,-2.8085,-2.814,-2.8196,-2.8268,-2.8313,-2.8388,-2.8536,-2.8594,-2.8694,-2.8791,-2.8909,-2.9048,-2.9158,-2.8777,-2.8596,-2.9187,-2.8268,-2.7306,-2.7388,-2.6806,-2.6556,-2.7437,-2.7542,-2.7539,-3.6716,0.0,-3.6262,-3.5789,0.0,-3.473,-3.4233,-3.3958,-3.3255,-3.2916,-3.2848,-3.2914,-3.2997,-3.3062,-3.3122,-3.318,-3.3256,-3.3337,-3.3349,-3.3393,-3.3393,-3.3393,-3.3393,-3.3367,-3.3352,-3.3352,-3.3271,-3.3256,-3.3256,-3.3349,-3.3378,-3.3352,-3.3426,-3.3408,-3.3352,-3.3408,-3.3477,-3.3549,-3.3549,-3.3563,-3.3605,-3.3534,-3.3481,-3.3452,0.0,0.0,0.0,0.0,0.0,0.0,0.0,0.0,0.0,0.0,0.0,-3.3657,-3.3368,-3.3018,-3.2612,-3.2208,-3.1792,-3.1364,-3.1245,-3.1321,-3.1555,-3.1758,-3.1192,-2.96,-2.9713,-2.9463,-2.854,-2.8367,-2.8327,-2.8264,-2.8223,-2.82,-2.8154,-2.8112,-2.8071,-2.8018,-2.7932,-2.7874,-2.781,-2.7748,-2.7716,-2.7795,-2.7795,-2.781,-2.781,-2.7911,-2.7982,-2.7982,-2.8028,-2.8056,-2.8099,-2.8122,-2.816,-2.8251,-2.8043,-2.79,-2.8002,-2.7797,-2.7664,-2.778,-2.7514,-2.7503,-2.7779,-2.7033,-2.6284,-2.6265,-2.5801,-2.5474,-2.6035,-2.6253,-2.6371,-3.6524,-3.6965,-3.5555,-3.5329,-3.5755,-3.4305,-3.3635,-3.3544,0.0,0.0,0.0,-3.2588,-3.2673,-3.2773,-3.2854,-3.293,-3.307,-3.3201,-3.3244,-3.3334,-3.3337,-3.3319,-3.3337,-3.3277,-3.3247,-3.3232,-3.3135,-3.307,-3.3055,-3.3168,-3.3247,-3.3247,-3.3304,-3.3364,-3.3411,-3.3437,-3.3448,-3.3481,-3.3481,-3.3509,-3.3563,-3.3534,-3.3491,-3.3433,-3.3419,-3.3422,-3.3396,-3.3422,-3.3448,-3.352,-3.3534,-3.3534,-3.3502,-3.3506,-3.3481,-3.339,-3.2817,-3.221,-3.1556,-3.0857,-3.0038,-2.9068,-2.9552,-2.9939,-3.0038,-2.9929,-2.9521,-2.8652,-2.8571,-2.8515,-2.8318,-2.8282,-2.8291,-2.8196,-2.8182,-2.8154,-2.8099,-2.8088,-2.8032,-2.7917,-2.7888,-2.7827,-2.7719,-2.7672,-2.7672,-2.7672,-2.7672,-2.7669,-2.7716,-2.7836,-2.7925,-2.7925,-2.794,-2.7954,-2.7968,-2.7773,-2.7819,-2.7796,-2.7246,-2.6839,-2.6853,-2.6543,-2.6275,-2.6523,-2.6359,-2.6416,-2.6562,-2.6088,-2.5501,-2.555,-2.514,-2.4719,-2.4637,-2.479,-2.5043,-3.6904,-3.6939,-3.6041,-3.5356,-3.4831,-3.4023,-3.33,-3.2682,-3.2642,-3.2622,-3.2588,-3.2588,-3.2606,-3.2622,-3.2773,-3.2854,-3.2932,-3.2948,-3.2979,0.0,-3.3013,-3.2995,-3.3042,-3.3042,-3.3026,-3.3044,-3.3011,-3.2979,-3.2948,-3.2948,-3.2997,-3.3044,-3.3119,-3.3226,-3.3382,-3.3241,-3.3241,-3.3408,-3.3426,-3.3408,-3.3422,-3.3256,-3.3162,-3.3147,-3.3147,-3.3211,-3.3307,-3.3229,-3.3147,-3.3178,-3.3292,-3.3289,-3.3196,-3.339,-3.3481,-3.3393,-3.3299,-3.319,-3.3064,-3.2823,-3.2031,-3.0668,-3.0592,-3.0382,-2.9845,-3.0291,-3.0024,-2.8653,-2.8927,-2.9048,-2.8407,-2.83,-2.8246,-2.8122,-2.8112,-2.8085,-2.8028,-2.7975,-2.7917,-2.7888,-2.7795,-2.7704,-2.7644,-2.7615,-2.7585,-2.7554,-2.7585,-2.763,-2.7689,-2.7716,-2.773,-2.7745,-2.7745,-2.7792,-2.7818,-2.73,-2.7116,-2.6959,-2.6508,-2.6119,-2.6131,-2.6081,-2.6031,-2.6216,-2.5725,-2.5677,-2.6184,-2.5789,-2.5332,-2.5305,-2.5226,-2.5087,-2.4644,-2.4657,-2.4794,-3.6742,-3.632,-3.595,-3.5127,-3.3986,-3.3301,-3.2791,-3.2457,-3.2473,-3.249,-3.249,-3.2473,-3.249,-3.2507,-3.2591,-3.2673,-3.2755,-3.2804,-3.2868,-3.2932,-3.2916,-3.2916,-3.2948,-3.29,-3.2886,-3.2886,-3.2902,-3.2888,-3.2854,-3.2916,-3.2963,-3.2995,-3.3073,-3.3165,-3.3226,-3.3229,-3.3262,-3.3355,-3.3352,-3.3349,-3.3378,-3.3319,-3.3259,-3.3214,-3.3214,-3.3214,-3.3198,-3.3117,-3.315,-3.3214,-3.3198,-3.3211,-3.3256,-3.3349,-3.3396,-3.3375,-3.2951,-3.2502,-3.2068,-3.1063,-3.0202,-2.9579,-2.9462,-2.9314,-2.8968,-2.9659,-2.9609,-2.8483,-2.8631,-2.8643,-2.8245,-2.8237,-2.8196,-2.8056,-2.8102,-2.8056,-2.7975,-2.7917,-2.7874,-2.7795,-2.7748,-2.7686,-2.7674,-2.7632,-2.7587,-2.7557,-2.7557,-2.7572,-2.7585,-2.76,-2.763,-2.7686,-2.7689,-2.7689,-2.7748,-2.747,-2.7238,-2.7292,-2.6714,-2.6176,-2.5824,-2.5594,-2.5236,-2.4953,-2.4614,-2.4623,-2.5019,-2.4806,-2.463,-2.4664,-2.4781,-2.4681,-2.4502,-2.458,-2.4772,-3.6552,-3.583,-3.571,-3.4744,-3.3266,-3.2703,-3.244,-3.244,-3.2457,-3.2439,-3.244,-3.2405,-3.2406,-3.2423,-3.2456,-3.2506,-3.2607,-3.2691,-3.2755,-3.2836,-3.2818,-3.2818,-3.2818,-3.2771,-3.2756,-3.2774,-3.2739,-3.2756,-3.2773,-3.2852,-3.2916,-3.2948,-3.3042,-3.3088,-3.307,-3.3183,-3.3247,-3.3292,-3.3277,-3.3307,-3.3393,-3.3393,-3.3382,-3.3322,-3.3292,-3.3262,-3.318,-3.315,-3.3198,-3.3292,-3.3211,-3.3208,-3.3334,-3.3319,-3.3265,-3.3059,-3.2473,-3.1697,-3.084,-2.9426,-2.8582,-2.8596,-2.8407,-2.8259,-2.8313,-2.8828,-2.8953,-2.8371,-2.8227,-2.8158,-2.8099,-2.814,-2.8126,-2.8028,-2.8056,-2.8032,-2.7917,-2.7874,-2.781,-2.7716,-2.7716,-2.7701,-2.7674,-2.763,-2.7602,-2.7572,-2.7496,-2.745,-2.7481,-2.7496,-2.7526,-2.76,-2.7615,-2.76,-2.7642,-2.7387,-2.73,-2.7394,-2.6785,-2.6073,-2.5472,-2.4949,-2.4503,-2.4042,-2.384,-2.3914,-2.3912,-2.3961,-2.404,-2.4147,-2.4263,-2.4321,-2.4421,-2.4566,-2.4742,-3.6631,-3.5945,-3.5295,-3.4146,-3.2749,-3.259,-3.2573,-3.2573,-3.2573,-3.2589,-3.2556,-3.2457,-3.2406,-3.2406,-3.2423,-3.2457,-3.2524,-3.2506,-3.2574,-3.2621,-3.2639,-3.2621,-3.2621,-3.2622,-3.2622,-3.2622,-3.2622,-3.2639,-3.2639,-3.2655,-3.2722,-3.2821,-3.295,-3.3011,-3.3011,-3.3011,-3.3106,-3.3292,-3.3183,-3.3211,-3.3378,-3.3393,-3.3378,-3.3378,-3.334,-3.3322,-3.3334,-3.3307,-3.3277,-3.3292,-3.3352,-3.3286,-3.3162,-3.3286,-3.3023,-3.2278,-3.2057,-3.1577,-3.0606,-2.983,-2.9279,-2.9184,-2.8556,-2.8196,-2.8122,-2.8253,-2.8271,-2.814,-2.8126,-2.8085,-2.8028,-2.8085,-2.8085,-2.7996,-2.8014,-2.7971,-2.7917,-2.7795,-2.7716,-2.7716,-2.7716,-2.7639,-2.7569,-2.7569,-2.7554,-2.7511,-2.7436,-2.7392,-2.7452,-2.7452,-2.7438,-2.7496,-2.7511,-2.7511,-2.7472,-2.6899,-2.6775,-2.6673,-2.6037,-2.5503,-2.5093,-2.478,-2.4415,-2.3911,-2.3765,-2.3789,-2.3795,-2.3834,-2.3876,-2.3996,-2.4085,-2.42,-2.4402,-2.4549,-2.4679,-3.5366,-3.4694,-3.4394,-3.365,-3.2677,-3.2588,-3.2588,-3.2588,-3.2588,-3.2588,-3.2606,-3.254,-3.2473,-3.2456,-3.2456,-3.2473,-3.2507,-3.2474,-3.2507,-3.2589,-3.2523,-3.2523,-3.2589,-3.2556,-3.2556,-3.2606,-3.269,-3.2722,-3.274,-3.2753,-3.2804,-3.2852,-3.29,-3.2948,-3.2912,-3.2578,-3.2655,-3.3147,-3.2772,-3.2629,-3.2727,-3.3176,-3.3382,-3.3337,-3.3325,-3.3277,-3.3226,-3.3196,-3.3214,-3.3277,-3.3259,-3.3024,-3.2585,-3.257,-3.2227,-3.1452,-3.0848,-3.0338,-2.9886,-2.9165,-2.8705,-2.8667,-2.8378,-2.8182,-2.8154,-2.82,-2.8172,-2.8071,-2.8071,-2.8085,-2.8028,-2.8056,-2.8074,-2.7989,-2.8014,-2.8042,-2.7957,-2.7911,-2.785,-2.7824,-2.7827,-2.7766,-2.7644,-2.76,-2.7557,-2.7467,-2.7423,-2.7421,-2.7407,-2.7392,-2.7392,-2.7392,-2.7423,-2.7467,-2.7446,-2.7224,-2.7013,-2.7004,-2.6871,-2.6412,-2.5306,-2.5141,-2.4882,-2.3874,-2.3754,-2.3765,-2.3795,-2.3845,-2.3896,-2.3996,-2.4086,-2.4219,-2.4412,-2.4479,-2.4578,-3.4517,-3.3861,-3.3648,-3.3238,-3.2705,-3.2705,-3.2705,-3.2721,-3.2719,-3.2737,-3.2705,-3.2705,-3.2672,-3.2607,-3.2557,-3.2523,-3.2506,-3.2279,-3.2363,-3.2569,-3.2362,-3.2361,-3.2621,-3.2625,-3.2607,-3.2657,-3.2756,-3.2805,-3.2821,-3.2886,-3.2884,-3.2902,-3.2918,-3.2809,-3.2594,-3.2343,-3.2343,-3.2481,-3.2437,-3.2328,-3.2071,-3.2868,-3.3273,-3.3033,-3.3214,-3.3184,-3.2853,-3.2871,-3.2778,-3.2672,-3.2577,-3.2306,-3.1866,-3.1773,-3.1369,-3.0576,-2.9705,-2.9164,-2.9084,-2.8534,-2.82,-2.8168,-2.8182,-2.8182,-2.8168,-2.8182,-2.8154,-2.8067,-2.8085,-2.8071,-2.7986,-2.8028,-2.8028,-2.7975,-2.8042,-2.8102,-2.8042,-2.8,-2.7943,-2.7903,-2.7842,-2.781,-2.7719,-2.76,-2.7496,-2.7485,-2.7436,-2.7436,-2.7345,-2.7345,-2.7378,-2.7312,-2.7205,-2.7165,-2.7367,-2.7386,-2.7423,-2.745,-2.7389,-2.6921,-2.576,-2.5566,-2.5083,-2.3909,-2.378,-2.37,-2.3757,-2.3813,-2.3907,-2.4006,-2.4114,-2.421,-2.4348,-2.4436,-2.4539,-3.4622,-3.3839,-3.3208,-3.2987,-3.2981,-3.2997,-3.2979,-3.2963,-3.3024,-3.3024,-3.2963,-3.2963,-3.2948,-3.2868,-3.2705,-3.2606,-3.2517,-3.1962,-3.2081,-3.2593,-3.2003,-3.209,-3.2771,-3.2807,-3.2755,-3.2682,-3.2787,-3.2838,-3.29,-3.29,-3.2852,-3.2823,-3.2934,-3.2608,-3.2097,-3.2578,-3.234,-3.1477,-3.239,-3.2506,-3.1473,-3.2596,-3.2995,-3.2437,-3.3013,-3.3052,-3.2383,-3.2256,-3.193,-3.1148,-3.1188,-3.1088,-3.0974,-3.098,-3.0554,-2.9706,-2.8928,-2.8416,-2.833,-2.8249,-2.8168,-2.8144,-2.8168,-2.8168,-2.8126,-2.8168,-2.82,-2.8182,-2.8144,-2.8074,-2.7961,-2.7986,-2.8025,-2.8071,-2.8099,-2.8099,-2.8099,-2.8018,-2.7903,-2.7888,-2.7827,-2.7748,-2.7701,-2.7544,-2.7513,-2.7513,-2.7421,-2.731,-2.7272,-2.726,-2.7327,-2.7136,-2.6822,-2.6511,-2.7139,-2.7187,-2.7253,-2.7423,-2.7344,-2.7019,-2.6153,-2.5297,-2.459,-2.3957,-2.3713,-2.36,-2.3671,-2.3779,-2.3865,-2.3986,-2.4103,-2.4209,-2.4275,-2.4411,-2.4507,-3.3659,-3.3373,-3.3134,-3.3039,-3.3073,-3.3073,-3.3055,-3.3055,-3.3086,-3.3086,-3.3055,-3.3055,-3.3039,-3.3024,-3.2961,-3.2882,-3.2732,-3.1971,-3.1805,-3.2025,-3.1224,-3.0995,-3.1321,-3.1836,-3.2117,-3.2235,-3.2666,-3.2916,-3.29,-3.29,-3.2884,-3.2886,-3.2918,-3.2755,-3.2523,-3.2414,-3.2107,-3.1668,-3.1827,-3.1532,-3.1143,-3.2053,-3.2488,-3.2252,-3.2977,-3.3013,-3.2216,-3.2198,-3.1836,-3.1039,-3.1003,-3.0749,-3.0215,-2.9714,-2.925,-2.8869,-2.8555,-2.8353,-2.8291,-2.8259,-2.825,-2.8168,-2.8182,-2.82,-2.8168,-2.8182,-2.8182,-2.814,-2.8126,-2.8085,-2.8085,-2.8071,-2.8071,-2.8081,-2.814,-2.8154,-2.8172,-2.813,-2.8056,-2.8014,-2.7914,-2.7795,-2.7733,-2.7644,-2.7602,-2.7602,-2.7572,-2.7285,-2.6881,-2.7041,-2.718,-2.672,-2.6437,-2.6519,-2.7177,-2.6843,-2.6718,-2.7184,-2.7249,-2.6646,-2.5876,-2.5493,-2.4879,-2.3761,-2.3442,-2.3522,-2.3605,-2.3789,-2.3876,-2.3976,-2.4103,-2.4181,-2.4229,-2.4367,-2.4446,-3.3119,-3.3119,-3.3119,-3.3117,-3.3183,-3.318,-3.3196,-3.3211,-3.3238,-3.3238,-3.3193,-3.3196,-3.318,-3.3165,-3.3183,-3.3119,-3.2921,-3.2146,-3.1893,-3.2094,-3.1263,-3.1016,-3.1339,-3.164,-3.1813,-3.193,-3.2366,-3.2695,-3.2914,-3.2916,-3.29,-3.29,-3.2916,-3.2789,-3.257,-3.2424,-3.2121,-3.143,-3.1309,-3.1184,-3.0853,-3.1655,-3.2198,-3.2325,-3.2977,-3.2886,-3.1872,-3.1799,-3.1292,-3.0405,-3.0224,-2.997,-2.9427,-2.8864,-2.8528,-2.8445,-2.845,-2.8393,-2.834,-2.834,-2.83,-2.8277,-2.8264,-2.8282,-2.8264,-2.8264,-2.8237,-2.8209,-2.8209,-2.8223,-2.825,-2.8223,-2.8196,-2.8182,-2.8182,-2.8196,-2.8196,-2.8168,-2.8144,-2.8071,-2.7986,-2.7882,-2.7806,-2.776,-2.773,-2.7721,-2.7543,-2.7,-2.663,-2.6501,-2.678,-2.6308,-2.6118,-2.6466,-2.6983,-2.6894,-2.6762,-2.7145,-2.7417,-2.6695,-2.5833,-2.5526,-2.4888,-2.3758,-2.3319,-2.3441,-2.3582,-2.3789,-2.3904,-2.3986,-2.4084,-2.4162,-2.4238,-2.4312,-2.4402,-3.3117,-3.3132,-3.3117,-3.3196,-3.3322,-3.3382,-3.3393,-3.3408,-3.3506,-3.3477,-3.3393,-3.3393,-3.3364,-3.3307,-3.3307,-3.3292,-3.3151,-3.246,-3.2322,-3.2634,-3.2005,-3.1951,-3.2403,-3.1915,-3.1786,-3.1891,-3.1856,-3.2204,-3.2778,-3.2784,-3.2822,-3.2878,-3.2872,-3.2547,-3.1849,-3.2556,-3.2014,-3.0653,-3.1247,-3.1306,-3.0201,-3.1266,-3.2027,-3.2194,-3.2846,-3.2516,-3.1071,-3.1053,-3.0405,-2.898,-2.8744,-2.8636,-2.8726,-2.8605,-2.8562,-2.8505,-2.851,-2.8453,-2.8406,-2.8406,-2.8419,-2.8411,-2.8393,-2.8393,-2.838,-2.838,-2.8398,-2.8371,-2.8384,-2.8398,-2.8398,-2.8384,-2.8358,-2.8313,-2.8264,-2.8223,-2.8196,-2.814,-2.8085,-2.8011,-2.8014,-2.8014,-2.7968,-2.7879,-2.785,-2.7776,-2.7232,-2.6605,-2.6405,-2.5985,-2.5831,-2.6083,-2.5995,-2.6079,-2.6603,-2.7043,-2.7076,-2.7157,-2.7372,-2.7101,-2.5925,-2.5312,-2.4699,-2.3716,-2.3342,-2.3441,-2.3605,-2.3789,-2.3904,-2.3986,-2.4074,-2.4152,-2.4219,-2.4294,-2.4366,-3.3444,-3.3462,-3.3462,-3.3462,-3.3491,-3.352,-3.3553,-3.3534,-3.3591,-3.3577,-3.3534,-3.3534,-3.3538,-3.3509,-3.3466,-3.3437,-3.3419,-3.3114,-3.2553,-3.1654,-3.0824,-3.031,-3.0088,-3.0337,-3.0799,-3.1297,-3.1341,-3.1408,-3.1711,-3.2103,-3.229,-3.229,-3.2331,-3.2191,-3.1921,-3.2241,-3.1538,-3.0148,-3.0867,-3.0934,-3.0041,-3.0423,-3.0951,-3.1478,-3.1769,-3.1356,-3.0423,-3.0762,-3.0188,-2.869,-2.86,-2.86,-2.86,-2.86,-2.8587,-2.8556,-2.8607,-2.8607,-2.8543,-2.8574,-2.8587,-2.8549,-2.8554,-2.8528,-2.8484,-2.8453,-2.8458,-2.8424,-2.8411,-2.8406,-2.8458,-2.8419,-2.8411,-2.8384,-2.8358,-2.8318,-2.8259,-2.8209,-2.814,-2.8067,-2.8071,-2.8056,-2.8014,-2.7954,-2.7936,-2.7819,-2.7148,-2.6489,-2.5885,-2.552,-2.5133,-2.5006,-2.5146,-2.5616,-2.6188,-2.6454,-2.6411,-2.66,-2.6906,-2.6758,-2.5722,-2.508,-2.4449,-2.3892,-2.3537,-2.3464,-2.3627,-2.3789,-2.3904,-2.3986,-2.4074,-2.4134,-2.4201,-2.4275,-2.4366,-3.3605,-3.3605,-3.3615,-3.3647,-3.3647,-3.3675,-3.3703,-3.3698,-3.3703,-3.3671,-3.3671,-3.3643,-3.3633,-3.3591,-3.3549,-3.3553,-3.3534,-3.3563,-3.2797,-3.1556,-3.0994,-3.0247,-2.9493,-2.9652,-3.0104,-3.0625,-3.0979,-3.1261,-3.1505,-3.2173,-3.2383,-3.2116,-3.2069,-3.1895,-3.165,-3.1618,-3.102,-3.0066,-3.035,-3.0446,-3.011,-2.9995,-3.039,-3.1102,-3.1217,-3.0823,-3.0185,-3.0454,-3.0031,-2.8947,-2.8662,-2.8675,-2.8675,-2.8675,-2.8675,-2.8675,-2.8712,-2.8724,-2.8687,-2.8694,-2.8724,-2.8687,-2.8675,-2.8662,-2.8607,-2.8594,-2.8543,-2.8523,-2.8502,-2.8497,-2.8523,-2.8515,-2.8489,-2.8528,-2.8432,-2.838,-2.8327,-2.8304,-2.8264,-2.8219,-2.8205,-2.8196,-2.8168,-2.8109,-2.7952,-2.7631,-2.6884,-2.6092,-2.5349,-2.4847,-2.4486,-2.4368,-2.4794,-2.5301,-2.5862,-2.5897,-2.5704,-2.5978,-2.6317,-2.5838,-2.5063,-2.4853,-2.443,-2.3842,-2.3401,-2.3476,-2.3645,-2.381,-2.3937,-2.4006,-2.4074,-2.4172,-2.4257,-2.4303,-2.4384,-3.3633,-3.3633,-3.3684,-3.3726,-3.3739,-3.3793,-3.3829,-3.3868,-3.3829,-3.382,-3.3807,-3.3766,-3.3698,-3.3629,-3.3533,-3.3501,-3.3578,-3.3342,-3.3013,-3.2406,-3.1977,-3.1336,-3.0488,-2.9957,-2.9836,-2.9975,-3.0597,-3.1276,-3.1619,-3.2369,-3.2879,-3.2145,-3.1928,-3.1731,-3.1147,-3.098,-3.0545,-2.981,-2.988,-2.9981,-2.9923,-2.9905,-3.024,-3.1009,-3.0953,-3.0643,-3.0131,-2.9997,-2.9637,-2.8907,-2.8792,-2.8792,-2.8804,-2.8816,-2.8798,-2.8785,-2.8816,-2.8828,-2.881,-2.881,-2.881,-2.881,-2.881,-2.8816,-2.8767,-2.8731,-2.8694,-2.8669,-2.8637,-2.86,-2.8612,-2.8587,-2.863,-2.8644,-2.8536,-2.8432,-2.8424,-2.8398,-2.8384,-2.8398,-2.8411,-2.8398,-2.8335,-2.8259,-2.7803,-2.7209,-2.6381,-2.5476,-2.4889,-2.439,-2.3999,-2.4129,-2.4477,-2.4888,-2.5416,-2.5376,-2.5196,-2.5222,-2.5464,-2.4993,-2.4572,-2.4465,-2.4312,-2.3738,-2.3471,-2.3562,-2.3656,-2.3831,-2.3927,-2.3996,-2.4085,-2.421,-2.4294,-2.4339,-2.4393,-3.3842,-3.3895,-3.3908,-3.3921,-3.3921,-3.3952,-3.3959,-3.3972,-3.3959,-3.3947,-3.3947,-3.3934,-3.3895,-3.3845,-3.3259,-3.3233,-3.3485,-3.2658,-3.2395,-3.2401,-3.1372,-3.0436,-2.9649,-2.9308,-2.9276,-2.9379,-2.9732,-2.9756,-3.0055,-3.0998,-3.1382,-3.1664,-3.1106,-3.0958,-3.1052,-3.0584,-2.9934,-2.9351,-2.9783,-2.9783,-2.942,-2.9377,-2.946,-2.9671,-2.9789,-2.969,-2.9466,-2.9425,-2.9225,-2.8864,-2.8816,-2.8816,-2.8828,-2.8876,-2.887,-2.8834,-2.8912,-2.8917,-2.8893,-2.8935,-2.8947,-2.8947,-2.8929,-2.8935,-2.8881,-2.8851,-2.8822,-2.8785,-2.8712,-2.8687,-2.8657,-2.8637,-2.865,-2.8687,-2.8612,-2.8536,-2.8484,-2.845,-2.8411,-2.8411,-2.8424,-2.8419,-2.8244,-2.7877,-2.7402,-2.6885,-2.5945,-2.4932,-2.4462,-2.4017,-2.3661,-2.3833,-2.4159,-2.4514,-2.4797,-2.4764,-2.4686,-2.458,-2.4489,-2.4186,-2.3992,-2.3957,-2.3785,-2.3465,-2.3562,-2.3652,-2.3732,-2.3852,-2.3915,-2.4006,-2.4105,-2.4238,-2.4294,-2.4367,-2.4421,-3.3959,-3.4011,-3.4043,-3.4068,-3.4086,-3.4124,-3.4148,-3.4148,-3.4111,-3.4086,-3.4086,-3.4049,-3.4067,-3.3981,-3.3498,-3.3504,-3.3751,-3.2637,-3.2551,-3.2896,-3.1727,-3.0339,-2.9315,-2.901,-2.9048,-2.9189,-2.9547,-2.9754,-2.995,-3.0515,-3.0941,-3.0924,-3.0544,-3.0337,-3.0241,-2.9947,-2.947,-2.9152,-2.9482,-2.9492,-2.916,-2.9152,-2.9186,-2.9229,-2.9218,-2.9207,-2.9207,-2.9229,-2.9141,-2.8975,-2.897,-2.8952,-2.8929,-2.8998,-2.901,-2.8975,-2.9044,-2.9055,-2.9044,-2.9074,-2.9055,-2.9051,-2.9051,-2.8998,-2.894,-2.8917,-2.8881,-2.8846,-2.8767,-2.8749,-2.8749,-2.8737,-2.8737,-2.8749,-2.8737,-2.8682,-2.8637,-2.86,-2.8562,-2.8536,-2.8505,-2.8348,-2.807,-2.7522,-2.6939,-2.6255,-2.5404,-2.4718,-2.4205,-2.376,-2.3512,-2.3713,-2.3779,-2.4047,-2.4171,-2.4152,-2.4176,-2.4087,-2.4028,-2.3655,-2.3631,-2.3649,-2.359,-2.3528,-2.3641,-2.3721,-2.3789,-2.3884,-2.3994,-2.4084,-2.4162,-2.4238,-2.4312,-2.4394,-2.4447,-3.4023,-3.403,-3.4154,-3.4221,-3.4233,-3.4281,-3.4316,-3.4351,-3.4281,-3.4159,-3.4054,-3.4006,-3.3944,-3.4006,-3.3561,-3.3784,-3.3919,-3.2752,-3.2765,-3.2685,-3.1997,-3.0806,-2.9351,-2.9178,-2.92,-2.9317,-3.0105,-3.0227,-3.0272,-3.0954,-3.105,-3.0631,-3.0387,-2.9991,-2.9747,-2.9337,-2.9141,-2.9123,-2.9197,-2.9267,-2.9211,-2.9232,-2.9254,-2.9283,-2.9272,-2.9262,-2.9243,-2.9254,-2.9251,-2.9104,-2.9167,-2.9145,-2.9112,-2.9167,-2.9189,-2.9171,-2.9189,-2.9211,-2.9189,-2.9178,-2.9167,-2.913,-2.9119,-2.9096,-2.9021,-2.8975,-2.894,-2.894,-2.8846,-2.881,-2.8798,-2.8846,-2.8846,-2.8822,-2.8858,-2.8858,-2.8846,-2.8828,-2.8773,-2.8718,-2.8694,-2.8276,-2.7701,-2.717,-2.6664,-2.5684,-2.4899,-2.4383,-2.4048,-2.3788,-2.3629,-2.365,-2.3634,-2.3541,-2.356,-2.3525,-2.3578,-2.3596,-2.3696,-2.3571,-2.356,-2.3571,-2.3582,-2.3589,-2.3711,-2.3779,-2.3813,-2.3907,-2.4054,-2.4123,-2.419,-2.4275,-2.4358,-2.443,-2.4491,-3.4185,-3.4233,-3.4335,-3.4351,-3.4351,-3.4363,-3.4404,-3.4397,-3.442,-3.4102,-3.3635,-3.3507,-3.3518,-3.3481,-3.3047,-3.2844,-3.3387,-3.2235,-3.1141,-3.0701,-3.1778,-3.102,-2.9847,-2.952,-2.9336,-2.9415,-2.9489,-2.9632,-2.9814,-3.0029,-3.0253,-3.0541,-3.0054,-2.9895,-3.0092,-2.9561,-2.9291,-2.927,-2.9259,-2.9259,-2.928,-2.933,-2.9359,-2.9386,-2.9376,-2.9349,-2.9351,-2.9372,-2.9341,-2.9289,-2.9243,-2.9211,-2.92,-2.9257,-2.9278,-2.9286,-2.9278,-2.9278,-2.9254,-2.9251,-2.9207,-2.9178,-2.9178,-2.9167,-2.9175,-2.9089,-2.9055,-2.9033,-2.8952,-2.8881,-2.8846,-2.8822,-2.8858,-2.8893,-2.8917,-2.8934,-2.8987,-2.8912,-2.881,-2.8785,-2.8713,-2.8403,-2.7592,-2.6843,-2.6131,-2.516,-2.4534,-2.4035,-2.3851,-2.3775,-2.3743,-2.3718,-2.3645,-2.3589,-2.3585,-2.3562,-2.3533,-2.3544,-2.3578,-2.3605,-2.3611,-2.3589,-2.3634,-2.3682,-2.3771,-2.3834,-2.3886,-2.3986,-2.4122,-2.4162,-2.4228,-2.4303,-2.4375,-2.4465,-2.474,-3.4316,-3.4351,-3.4461,-3.4473,-3.4473,-3.4539,-3.4602,-3.4612,-3.4618,-3.4166,-3.3629,-3.3783,-3.3775,-3.3435,-3.3351,-3.3643,-3.3634,-3.2721,-3.1713,-3.1356,-3.1902,-3.194,-3.1506,-3.0575,-3.0001,-2.9645,-2.9522,-2.9532,-2.958,-2.9617,-2.987,-3.0188,-2.9776,-2.9774,-3.0061,-2.9706,-2.949,-2.9404,-2.9394,-2.9394,-2.9423,-2.9433,-2.9443,-2.946,-2.945,-2.9451,-2.9443,-2.9453,-2.9433,-2.9384,-2.9343,-2.931,-2.9299,-2.9343,-2.9382,-2.9382,-2.9392,-2.9402,-2.938,-2.9359,-2.931,-2.9246,-2.9257,-2.9243,-2.9211,-2.9156,-2.9145,-2.9152,-2.9089,-2.9021,-2.8998,-2.8987,-2.901,-2.9051,-2.9044,-2.9078,-2.91,-2.9021,-2.894,-2.8929,-2.8917,-2.8424,-2.7702,-2.6752,-2.5961,-2.5179,-2.447,-2.3969,-2.3948,-2.3873,-2.3842,-2.38,-2.3736,-2.3693,-2.3696,-2.3685,-2.3667,-2.3678,-2.37,-2.3736,-2.3768,-2.3747,-2.3725,-2.3789,-2.3852,-2.3925,-2.3986,-2.4084,-2.418,-2.4257,-2.4321,-2.4348,-2.4384,-2.4472,-2.4896,-3.442,-3.445,-3.4591,-3.4583,-3.4572,-3.4699,-3.478,-3.479,-3.4812,-3.4358,-3.3771,-3.4368,-3.4084,-3.38,-3.414,-3.4538,-3.433,-3.3649,-3.256,-3.1945,-3.2171,-3.2284,-3.216,-3.1359,-3.0567,-2.9854,-2.9726,-2.9745,-2.9726,-2.9735,-2.9784,-2.9766,-2.9757,-2.9757,-2.9692,-2.9655,-2.9608,-2.956,-2.956,-2.9541,-2.9531,-2.9541,-2.9541,-2.9541,-2.9492,-2.9522,-2.9531,-2.9531,-2.9522,-2.955,-2.956,-2.9512,-2.9482,-2.9491,-2.9521,-2.9502,-2.9521,-2.9511,-2.9501,-2.9482,-2.9424,-2.9324,-2.9324,-2.9312,-2.9267,-2.9254,-2.9243,-2.9211,-2.9189,-2.9186,-2.9207,-2.9156,-2.9167,-2.9197,-2.9207,-2.92,-2.9211,-2.9167,-2.9115,-2.9071,-2.8761,-2.8202,-2.7471,-2.6632,-2.5912,-2.5223,-2.4511,-2.4026,-2.4006,-2.3958,-2.3945,-2.3886,-2.3824,-2.3792,-2.3779,-2.3836,-2.3807,-2.3797,-2.3818,-2.3842,-2.3894,-2.3873,-2.3842,-2.3842,-2.3904,-2.3994,-2.4074,-2.4142,-2.4228,-2.4339,-2.4393,-2.4411,-2.4455,-2.4507,-2.5071,-3.458,-3.4591,-3.4708,-3.4739,-3.4749,-3.4791,-3.4812,-3.4812,-3.4927,-3.4499,-3.385,-3.3989,-3.4101,-3.3902,-3.393,-3.4063,-3.3987,-3.3386,-3.2594,-3.2045,-3.2235,-3.23,-3.1531,-3.1412,-3.086,-3.0251,-2.9964,-2.9883,-2.9857,-2.9847,-2.9866,-2.9859,-2.987,-2.9844,-2.9782,-2.9764,-2.9755,-2.9718,-2.9709,-2.9682,-2.9664,-2.9654,-2.9654,-2.9645,-2.9579,-2.9589,-2.9636,-2.9664,-2.9664,-2.9664,-2.9719,-2.97,-2.9664,-2.9598,-2.9589,-2.9607,-2.9607,-2.9589,-2.9589,-2.9531,-2.9502,-2.9472,-2.9472,-2.9472,-2.9433,-2.9392,-2.9341,-2.9299,-2.9235,-2.92,-2.9207,-2.924,-2.92,-2.92,-2.9222,-2.9235,-2.927,-2.927,-2.9267,-2.9217,-2.8627,-2.7994,-2.7382,-2.6624,-2.5747,-2.5137,-2.4566,-2.4208,-2.4152,-2.4085,-2.4036,-2.3986,-2.3907,-2.3886,-2.3876,-2.3925,-2.3963,-2.3904,-2.3904,-2.3904,-2.3945,-2.3966,-2.3966,-2.3984,-2.3994,-2.4054,-2.4123,-2.419,-2.4257,-2.4339,-2.4412,-2.4474,-2.449,-2.4579,-2.5347,-3.4668,-3.4711,-3.4801,-3.4831,-3.4869,-3.4945,-3.4944,-3.4982,-3.5081,-3.4683,-3.4257,-3.4366,-3.4354,-3.4174,-3.4477,-3.4393,-3.3915,-3.3651,-3.3153,-3.2863,-3.2691,-3.2687,-3.1788,-3.1754,-3.1257,-3.0798,-3.0386,-3.0045,-2.9996,-2.9992,-3.0014,-3.0018,-3.001,-2.9959,-2.9918,-2.9866,-2.9868,-2.9851,-2.9825,-2.979,-2.9746,-2.9754,-2.9754,-2.9727,-2.97,-2.97,-2.9727,-2.9755,-2.9756,-2.9746,-2.9782,-2.979,-2.9764,-2.9737,-2.9701,-2.9701,-2.971,-2.9692,-2.9701,-2.9654,-2.9655,-2.9617,-2.9617,-2.956,-2.9512,-2.9463,-2.9453,-2.9423,-2.9392,-2.9341,-2.9351,-2.9359,-2.9341,-2.937,-2.9359,-2.9382,-2.9433,-2.9433,-2.9423,-2.9346,-2.8712,-2.8114,-2.7619,-2.6747,-2.5662,-2.5014,-2.457,-2.4404,-2.4303,-2.4238,-2.4172,-2.4096,-2.4047,-2.4018,-2.4008,-2.4036,-2.4056,-2.4026,-2.3998,-2.3988,-2.4006,-2.4026,-2.4074,-2.4084,-2.4132,-2.4161,-2.4171,-2.4219,-2.4275,-2.4348,-2.4437,-2.4498,-2.4497,-2.4773,-2.5522,-3.4751,-3.4831,-3.4898,-3.4908,-3.4955,-3.5062,-3.5113,-3.513,-3.525,-3.4971,-3.4457,-3.4947,-3.4935,-3.4575,-3.4697,-3.4736,-3.4235,-3.4239,-3.3983,-3.3758,-3.317,-3.3158,-3.296,-3.2288,-3.1207,-3.0957,-3.0612,-3.0254,-3.0145,-3.013,-3.0116,-3.0121,-3.0113,-3.0083,-3.003,-2.9972,-2.994,-2.9926,-2.9912,-2.9859,-2.9834,-2.9825,-2.9816,-2.9835,-2.9825,-2.9825,-2.9841,-2.9859,-2.9851,-2.9859,-2.9868,-2.9868,-2.9859,-2.9841,-2.9841,-2.9832,-2.9825,-2.9789,-2.978,-2.979,-2.9755,-2.9719,-2.971,-2.9655,-2.9608,-2.9579,-2.9551,-2.9551,-2.9531,-2.9522,-2.9531,-2.9522,-2.954,-2.9522,-2.954,-2.9541,-2.9589,-2.9598,-2.9598,-2.9317,-2.8755,-2.8203,-2.7652,-2.6402,-2.5218,-2.5026,-2.4601,-2.4529,-2.4437,-2.4375,-2.4311,-2.4229,-2.4192,-2.4172,-2.4153,-2.4143,-2.4143,-2.4114,-2.4114,-2.4124,-2.4105,-2.4095,-2.4152,-2.42,-2.4237,-2.4266,-2.4257,-2.4266,-2.4348,-2.4419,-2.4488,-2.4512,-2.4539,-2.4954,-2.5693,-3.483,-3.4889,-3.4955,-3.502,-3.5092,-3.5168,-3.5182,-3.5207,-3.5335,-3.5393,-3.521,-3.5366,-3.538,-3.5091,-3.4526,-3.4745,-3.4867,-3.4668,-3.4385,-3.4206,-3.3403,-3.2691,-3.2075,-3.1044,-3.0766,-3.0719,-3.0527,-3.0329,-3.0241,-3.0254,-3.0227,-3.02,-3.0187,-3.0166,-3.0116,-3.0079,-3.0091,-3.0061,-3.0072,-3.0007,-2.9916,-2.9893,-2.9893,-2.9885,-2.9885,-2.9918,-2.9948,-2.9975,-2.9975,-2.9991,-3.0022,-3.0022,-3.0007,-3.003,-3.0065,-3.0007,-2.9918,-2.9789,-2.9806,-2.9815,-2.9806,-2.9799,-2.979,-2.9782,-2.9746,-2.97,-2.9663,-2.9681,-2.9664,-2.9655,-2.9664,-2.9655,-2.9664,-2.9673,-2.9655,-2.9664,-2.9691,-2.9719,-2.9718,-2.9526,-2.9028,-2.8276,-2.7602,-2.6137,-2.4847,-2.477,-2.4712,-2.4634,-2.4555,-2.4513,-2.4462,-2.4383,-2.433,-2.4312,-2.4303,-2.4294,-2.4275,-2.422,-2.4247,-2.4257,-2.4229,-2.4219,-2.4266,-2.4303,-2.434,-2.4367,-2.4348,-2.4393,-2.4464,-2.4507,-2.4539,-2.4564,-2.458,-2.518,-2.5874,-3.4927,-3.502,-3.5117,-3.5185,-3.5215,-3.5323,-3.5367,-3.5381,-3.5475,-3.5534,-3.5567,-3.5566,-3.5303,-3.4879,-3.4364,-3.444,-3.4799,-3.4913,-3.5015,-3.4623,-3.3749,-3.2861,-3.2306,-3.1205,-3.055,-3.0501,-3.0487,-3.0491,-3.0403,-3.0346,-3.0336,-3.0305,-3.0286,-3.0248,-3.0202,-3.0187,-3.0178,-3.0164,-3.0142,-3.0087,-3.0015,-3.0011,-3.0014,-2.9999,-3.0018,-3.003,-3.0061,-3.0057,-3.0091,-3.0087,-3.0113,-3.0098,-3.0076,-3.0076,-3.0095,-3.0087,-3.0033,-2.9994,-2.9986,-2.9978,-2.9926,-2.9874,-2.9857,-2.9832,-2.9798,-2.978,-2.9771,-2.9763,-2.9764,-2.9755,-2.9746,-2.9746,-2.9746,-2.9746,-2.9764,-2.9799,-2.9815,-2.9806,-2.9775,-2.955,-2.9268,-2.8563,-2.7763,-2.6548,-2.5415,-2.4979,-2.4866,-2.4753,-2.4668,-2.4602,-2.4572,-2.453,-2.4479,-2.4445,-2.4454,-2.4454,-2.4426,-2.4409,-2.4445,-2.4436,-2.4393,-2.4384,-2.4393,-2.4393,-2.4403,-2.4411,-2.4455,-2.4545,-2.4645,-2.4632,-2.459,-2.4735,-2.4891,-2.5418,-2.6236,-3.501,-3.5136,-3.5245,-3.5316,-3.533,-3.5463,-3.549,-3.5502,-3.5565,-3.5608,-3.5633,-3.562,-3.5239,-3.4693,-3.4527,-3.4543,-3.4751,-3.5154,-3.543,-3.5029,-3.4274,-3.3437,-3.2706,-3.166,-3.0836,-3.0567,-3.0593,-3.058,-3.0554,-3.0492,-3.046,-3.0419,-3.0377,-3.034,-3.0316,-3.0279,-3.0248,-3.0215,-3.0226,-3.0192,-3.0138,-3.0111,-3.0109,-3.0121,-3.0113,-3.0128,-3.013,-3.0145,-3.0173,-3.0199,-3.0185,-3.0178,-3.0171,-3.0164,-3.0157,-3.015,-3.0128,-3.0106,-3.0098,-3.0076,-3.0046,-2.9999,-2.9948,-2.9932,-2.9891,-2.9876,-2.9876,-2.9893,-2.9893,-2.9885,-2.9876,-2.9885,-2.9893,-2.9893,-2.9893,-2.9926,-2.9951,-2.9932,-2.9902,-2.9744,-2.9448,-2.9022,-2.8125,-2.7039,-2.6105,-2.5378,-2.5052,-2.4884,-2.4809,-2.4746,-2.4707,-2.4668,-2.4629,-2.4596,-2.4604,-2.4604,-2.4596,-2.4569,-2.4613,-2.4607,-2.4541,-2.4507,-2.4498,-2.4508,-2.4491,-2.4534,-2.4574,-2.4723,-2.4872,-2.5091,-2.5225,-2.514,-2.5333,-2.5834,-2.64,-3.5132,-3.5182,-3.5269,-3.5339,-3.5412,-3.5457,-3.5509,-3.5513,-3.5579,-3.5637,-3.5697,-3.5645,-3.5514,-3.5345,-3.4807,-3.4831,-3.549,-3.4889,-3.5204,-3.5282,-3.4817,-3.3905,-3.3081,-3.2205,-3.1398,-3.0855,-3.073,-3.0668,-3.0677,-3.0676,-3.0601,-3.0501,-3.0471,-3.0439,-3.0417,-3.0375,-3.034,-3.031,-3.0299,-3.0273,-3.0221,-3.0188,-3.0194,-3.0199,-3.0206,-3.02,-3.0188,-3.0241,-3.0279,-3.0292,-3.0299,-3.0266,-3.026,-3.0253,-3.024,-3.024,-3.0219,-3.0206,-3.0199,-3.0161,-3.011,-3.0087,-3.008,-3.0046,-3.0022,-3.0046,-3.0072,-3.0038,-3.0014,-3.0057,-3.0065,-3.008,-3.003,-3.0038,-3.003,-3.0046,-3.0068,-3.0068,-3.0019,-2.992,-2.9682,-2.935,-2.8721,-2.7676,-2.6663,-2.5874,-2.517,-2.4972,-2.4952,-2.4898,-2.4849,-2.4813,-2.4795,-2.4772,-2.4772,-2.4753,-2.4716,-2.4719,-2.4746,-2.4726,-2.4682,-2.4658,-2.4623,-2.4615,-2.4615,-2.4674,-2.481,-2.511,-2.5437,-2.5743,-2.5861,-2.5718,-2.5925,-2.6457,-2.6817,-3.5215,-3.5346,-3.5395,-3.5431,-3.5464,-3.5589,-3.5621,-3.5623,-3.5649,-3.5713,-3.5737,-3.5236,-3.4978,-3.4904,-3.48,-3.4707,-3.5076,-3.5383,-3.5519,-3.5426,-3.496,-3.4105,-3.3234,-3.2476,-3.1764,-3.1359,-3.1032,-3.1074,-3.1472,-3.1034,-3.0722,-3.0622,-3.0591,-3.0545,-3.052,-3.0465,-3.0453,-3.0442,-3.0419,-3.039,-3.0336,-3.0305,-3.0299,-3.0273,-3.0254,-3.0292,-3.0316,-3.0354,-3.0359,-3.0373,-3.038,-3.0349,-3.0311,-3.0311,-3.0305,-3.0318,-3.0279,-3.0266,-3.0253,-3.0218,-3.0169,-3.0154,-3.0125,-3.0091,-3.0113,-3.0117,-3.0098,-3.0091,-3.0098,-3.0132,-3.0161,-3.0128,-3.0087,-3.0135,-3.015,-3.0157,-3.0164,-3.0164,-3.0159,-3.0077,-3.0068,-2.9928,-2.9173,-2.838,-2.7356,-2.639,-2.5672,-2.5088,-2.507,-2.5044,-2.4999,-2.494,-2.4924,-2.4898,-2.4924,-2.4879,-2.4861,-2.4854,-2.4858,-2.4834,-2.4809,-2.4772,-2.4738,-2.4749,-2.4742,-2.4783,-2.5024,-2.557,-2.5796,-2.572,-2.5962,-2.6241,-2.6599,-2.7005,-2.7237,-3.5327,-3.5455,-3.5502,-3.5544,-3.5556,-3.5648,-3.5713,-3.5737,-3.5722,-3.5769,-3.5795,-3.5174,-3.4929,-3.4932,-3.4986,-3.5028,-3.5265,-3.5571,-3.5788,-3.5668,-3.5259,-3.4332,-3.3436,-3.268,-3.2135,-3.1752,-3.1482,-3.1462,-3.144,-3.1231,-3.1005,-3.0811,-3.0667,-3.0645,-3.0606,-3.0588,-3.0535,-3.0549,-3.0514,-3.0493,-3.0439,-3.0433,-3.0414,-3.0371,-3.0371,-3.0389,-3.0411,-3.0436,-3.0442,-3.0442,-3.0431,-3.0408,-3.0385,-3.0367,-3.0349,-3.0336,-3.0343,-3.0318,-3.0292,-3.0279,-3.0239,-3.0213,-3.0185,-3.0171,-3.0164,-3.0176,-3.0178,-3.0178,-3.0164,-3.019,-3.0239,-3.018,-3.0173,-3.0219,-3.0219,-3.0226,-3.0233,-3.0233,-3.026,-3.0248,-3.0119,-2.9823,-2.9577,-2.8698,-2.7306,-2.6368,-2.565,-2.5176,-2.5141,-2.5112,-2.5114,-2.5063,-2.5038,-2.5044,-2.5038,-2.5019,-2.5025,-2.5032,-2.5013,-2.4986,-2.4946,-2.4905,-2.4837,-2.4816,-2.4834,-2.4861,-2.5057,-2.5366,-2.542,-2.5371,-2.5944,-2.669,-2.6665,-2.7016,-2.7401,-3.5467,-3.5515,-3.5568,-3.5607,-3.5618,-3.5664,-3.5742,-3.5788,-3.5791,-3.5838,-3.5895,-3.5746,-3.5768,-3.5752,-3.5671,-3.5671,-3.5687,-3.5839,-3.5919,-3.5827,-3.5722,-3.4784,-3.381,-3.302,-3.2426,-3.138,-3.1283,-3.1339,-3.1207,-3.141,-3.1322,-3.1042,-3.0867,-3.0737,-3.07,-3.0636,-3.0606,-3.0598,-3.0535,-3.0515,-3.049,-3.0504,-3.0485,-3.0474,-3.0479,-3.049,-3.0495,-3.05,-3.05,-3.0509,-3.0479,-3.0469,-3.0458,-3.0458,-3.0447,-3.0406,-3.0396,-3.0354,-3.031,-3.0311,-3.0299,-3.0286,-3.0253,-3.026,-3.0273,-3.0299,-3.0292,-3.0266,-3.0292,-3.0279,-3.0292,-3.0292,-3.0292,-3.0305,-3.0311,-3.0324,-3.0317,-3.0336,-3.0361,-3.0371,-2.98,-2.9349,-2.9396,-2.893,-2.7345,-2.6261,-2.5563,-2.5264,-2.5217,-2.5204,-2.5189,-2.5166,-2.5143,-2.5143,-2.5136,-2.5178,-2.517,-2.5181,-2.5159,-2.5106,-2.5069,-2.5032,-2.4986,-2.4908,-2.4914,-2.494,-2.4959,-2.5003,-2.5134,-2.5416,-2.6499,-2.7124,-2.7039,-2.7127,-2.7581,-3.597,-3.5508,-3.5621,-3.5684,-3.5747,-3.5745,-3.5786,-3.5807,-3.5841,-3.5872,-3.5894,-3.5883,-3.5916,-3.5941,-3.5963,-3.5985,-3.5963,-3.5965,-3.5965,-3.5963,-3.5973,-3.4842,-3.385,-3.3269,-3.2746,-3.1847,-3.1631,-3.2042,-3.2608,-3.2136,-3.1724,-3.1462,-3.1059,-3.0789,-3.0727,-3.0672,-3.0673,-3.0672,-3.0636,-3.0619,-3.0568,-3.0559,-3.055,-3.0554,-3.055,-3.0559,-3.0554,-3.0554,-3.0569,-3.0554,-3.0525,-3.0505,-3.0495,-3.0495,-3.0504,-3.0469,-3.0453,-3.0447,-3.0411,-3.0408,-3.0328,-3.0323,-3.0311,-3.0318,-3.0305,-3.0305,-3.0317,-3.0349,-3.0374,-3.0379,-3.0433,-3.0396,-3.0383,-3.0422,-3.0439,-3.043,-3.0441,-3.0444,-3.0449,-3.0446,-3.0114,-2.968,-2.9564,-2.9318,-2.796,-2.6706,-2.6013,-2.5514,-2.5356,-2.5288,-2.5262,-2.5247,-2.5225,-2.5239,-2.5239,-2.5239,-2.522,-2.522,-2.5209,-2.5187,-2.5159,-2.5149,-2.5094,-2.5032,-2.5019,-2.5025,-2.5031,-2.5044,-2.5133,-2.5582,-2.6498,-2.7237,-2.732,-2.7543,-2.8013,-3.6036,-3.5593,-3.5683,-3.5751,-3.5803,-3.5807,-3.5799,-3.5833,-3.5882,-3.5883,-3.5897,-3.5909,-3.5958,-3.5984,-3.6011,-3.6009,-3.6007,-3.6017,-3.6011,-3.6013,-3.6019,-3.5123,-3.4228,-3.353,-3.3102,-3.2434,-3.2178,-3.2412,-3.3212,-3.2567,-3.2191,-3.1892,-3.1278,-3.0869,-3.0742,-3.0713,-3.0701,-3.068,-3.0684,-3.0669,-3.0625,-3.0632,-3.06,-3.061,-3.0595,-3.0608,-3.0608,-3.0604,-3.06,-3.0582,-3.0564,-3.0525,-3.0535,-3.055,-3.0545,-3.0535,-3.049,-3.0485,-3.0469,-3.0463,-3.0411,-3.0383,-3.0367,-3.0348,-3.0365,-3.0383,-3.0389,-3.0419,-3.0425,-3.0466,-3.0493,-3.0458,-3.0471,-3.0487,-3.0516,-3.0506,-3.0506,-3.0511,-3.053,-3.0511,-3.0472,-3.0102,-2.979,-2.933,-2.869,-2.7551,-2.6505,-2.5989,-2.5492,-2.5388,-2.5322,-2.5322,-2.5293,-2.5292,-2.5276,-2.5266,-2.5252,-2.5238,-2.5233,-2.5228,-2.5212,-2.519,-2.5176,-2.516,-2.5176,-2.5165,-2.512,-2.5145,-2.524,-2.5558,-2.6186,-2.687,-2.7409,-2.8027,-2.8579,-3.567,-3.5693,-3.5761,-3.5786,-3.5803,-3.5815,-3.5836,-3.5888,-3.5906,-3.5899,-3.5912,-3.5962,-3.599,-3.6013,-3.6006,-3.6006,-3.6019,-3.6016,-3.6013,-3.6009,-3.6014,-3.5276,-3.4615,-3.3915,-3.3507,-3.3372,-3.3194,-3.3035,-3.3523,-3.3733,-3.3377,-3.2278,-3.1417,-3.1037,-3.0862,-3.0743,-3.0728,-3.0727,-3.073,-3.0694,-3.0676,-3.0634,-3.0622,-3.0637,-3.0637,-3.0637,-3.0618,-3.0614,-3.0614,-3.061,-3.0602,-3.0602,-3.0597,-3.0608,-3.0606,-3.0598,-3.054,-3.051,-3.05,-3.05,-3.0495,-3.046,-3.0439,-3.0463,-3.0463,-3.0444,-3.0449,-3.0479,-3.0495,-3.0495,-3.0519,-3.0506,-3.0511,-3.0525,-3.053,-3.0534,-3.0534,-3.0549,-3.0573,-3.0567,-3.058,-3.0404,-3.0265,-2.987,-2.9101,-2.8054,-2.6969,-2.6191,-2.5735,-2.5456,-2.5397,-2.5387,-2.536,-2.5332,-2.5322,-2.5341,-2.5303,-2.5313,-2.5293,-2.5288,-2.5274,-2.5316,-2.543,-2.5445,-2.5377,-2.5385,-2.555,-2.5491,-2.535,-2.574,-2.6117,-2.6804,-2.7458,-2.8622,-2.9289,-3.6209,-3.5732,-3.5781,-3.5818,-3.5872,-3.5872,-3.5889,-3.5899,-3.5951,-3.5962,-3.5972,-3.6002,-3.6009,-3.6016,-3.6004,-3.6004,-3.6005,-3.6006,-3.6007,-3.6007,-3.6008,-3.5403,-3.4859,-3.4333,-3.3944,-3.3592,-3.3474,-3.3689,-3.4215,-3.4701,-3.382,-3.2257,-3.1823,-3.1388,-3.1029,-3.0801,-3.0778,-3.0772,-3.0773,-3.0736,-3.0724,-3.0688,-3.0674,-3.0664,-3.0664,-3.066,-3.0656,-3.0656,-3.066,-3.0667,-3.0665,-3.0673,-3.0669,-3.0629,-3.0608,-3.0608,-3.0582,-3.0568,-3.0559,-3.0511,-3.0501,-3.053,-3.0535,-3.0525,-3.0519,-3.0505,-3.0496,-3.0511,-3.0554,-3.0559,-3.0564,-3.0563,-3.0585,-3.0597,-3.0606,-3.0614,-3.0614,-3.0618,-3.0637,-3.0633,-3.0645,-3.063,-3.0525,-3.0093,-2.9288,-2.8343,-2.7466,-2.6689,-2.599,-2.573,-2.5453,-2.5445,-2.5614,-2.5618,-2.5517,-2.5522,-2.5431,-2.5388,-2.5461,-2.5456,-2.5351,-2.5433,-2.5649,-2.5922,-2.6151,-2.6186,-2.6186,-2.6115,-2.6082,-2.5732,-2.6016,-2.6752,-2.7587,-2.8705,-2.9641,-3.6118,-3.5728,-3.5775,-3.5842,-3.5911,-3.5924,-3.594,-3.5929,-3.599,-3.6017,-3.6006,-3.6014,-3.6021,-3.6006,-3.6011,-3.6011,-3.601,-3.6011,-3.6012,-3.6012,-3.6015,-3.5722,-3.5273,-3.457,-3.412,-3.3788,-3.3691,-3.3808,-3.4492,-3.4628,-3.3944,-3.3296,-3.265,-3.1888,-3.1415,-3.1058,-3.0792,-3.0794,-3.0795,-3.0774,-3.0764,-3.0753,-3.0736,-3.0701,-3.0704,-3.0698,-3.0714,-3.0717,-3.0727,-3.0736,-3.0733,-3.0733,-3.0723,-3.0676,-3.0645,-3.0579,-3.0214,-3.0356,-3.0425,-3.0143,-3.0306,-3.0494,-3.061,-3.0568,-3.0559,-3.0564,-3.0549,-3.0554,-3.0604,-3.0645,-3.0625,-3.0614,-3.0653,-3.0688,-3.0699,-3.069,-3.0694,-3.0697,-3.0694,-3.0703,-3.0703,-3.0703,-3.0477,-3.0063,-2.9606,-2.8867,-2.8209,-2.7587,-2.6728,-2.6062,-2.5709,-2.549,-2.5762,-2.5994,-2.5898,-2.5913,-2.5936,-2.5957,-2.5944,-2.5863,-2.5593,-2.5575,-2.5822,-2.6448,-2.7154,-2.7133,-2.7092,-2.7053,-2.6963,-2.6587,-2.648,-2.7301,-2.8025,-2.8638,-2.9447,-3.5654,-3.5708,-3.5763,-3.584,-3.5904,-3.596,-3.5997,-3.601,-3.6006,-3.6007,-3.6014,-3.6003,-3.6009,-3.6012,-3.6015,-3.6015,-3.6015,-3.6015,-3.6015,-3.6015,-3.6015,-3.5878,-3.5406,-3.4485,-3.4268,-3.4226,-3.409,-3.384,-3.4525,-3.4821,-3.4882,-3.4626,-3.3319,-3.2382,-3.1893,-3.1401,-3.1084,-3.0824,-3.0827,-3.0808,-3.0789,-3.0796,-3.0784,-3.0709,-3.0706,-3.0706,-3.0728,-3.0756,-3.0786,-3.0791,-3.0791,-3.0789,-3.0773,-3.0746,-3.0717,-3.0579,-3.0176,-3.0257,-3.0362,-3.0167,-3.0182,-3.0404,-3.0613,-3.0617,-3.0617,-3.0613,-3.0613,-3.0597,-3.0641,-3.0657,-3.0642,-3.0649,-3.0687,-3.0694,-3.0701,-3.0707,-3.0711,-3.0691,-3.0707,-3.0701,-3.0697,-3.0701,-3.062,-3.0224,-2.9738,-2.9232,-2.8654,-2.8076,-2.766,-2.6759,-2.6456,-2.6084,-2.6427,-2.6782,-2.6694,-2.6706,-2.6641,-2.6625,-2.6575,-2.6071,-2.5622,-2.5721,-2.5985,-2.707,-2.8212,-2.8109,-2.803,-2.7978,-2.7824,-2.7486,-2.7552,-2.8113,-2.8608,-2.8949,-2.9411,-3.5648,-3.5718,-3.5834,-3.5888,-3.5899,-3.5966,-3.6002,-3.6012,-3.6017,-3.6003,-3.6008,-3.6013,-3.6015,-3.6015,-3.6015,-3.6014,-3.6014,-3.6015,-3.6012,-3.6012,-3.601,-3.6007,-3.5823,-3.4842,-3.4506,-3.4311,-3.4077,-3.3767,-3.4613,-3.5123,-3.53,-3.478,-3.3902,-3.3415,-3.2265,-3.1777,-3.1464,-3.0935,-3.0871,-3.0836,-3.0815,-3.0808,-3.078,-3.0762,-3.0755,-3.075,-3.0769,-3.0786,-3.0799,-3.0789,-3.0801,-3.0799,-3.0796,-3.0778,-3.077,-3.0722,-3.0422,-3.0402,-3.0443,-3.0327,-3.0343,-3.0475,-3.0669,-3.0661,-3.0665,-3.0677,-3.0677,-3.0665,-3.0672,-3.0667,-3.0674,-3.0685,-3.0711,-3.0698,-3.0701,-3.0701,-3.0704,-3.0707,-3.0704,-3.0701,-3.0714,-3.0682,-3.0639,-3.0356,-2.983,-2.9252,-2.8615,-2.8189,-2.8284,-2.7823,-2.7882,-2.7618,-2.7615,-2.7782,-2.7589,-2.765,-2.7669,-2.7464,-2.736,-2.6641,-2.5813,-2.6547,-2.7361,-2.8415,-2.9274,-2.912,-2.897,-2.8863,-2.8646,-2.825,-2.8124,-2.848,-2.8854,-2.9198,-2.9632,-3.5648,-3.5698,-3.5849,-3.5922,-3.5948,-3.5995,-3.6012,-3.6022,-3.6008,-3.6012,-3.6015,-3.6016,-3.6015,-3.6015,-3.6012,-3.601,-3.6009,-3.6009,-3.6008,-3.6005,-3.5996,-3.5991,-3.5611,-3.5075,-3.4388,-3.4035,-3.3376,-3.334,-3.4479,-3.5009,-3.5071,-3.5098,-3.4886,-3.4068,-3.2727,-3.232,-3.1737,-3.0937,-3.0917,-3.0893,-3.0839,-3.0833,-3.0804,-3.079,-3.0802,-3.0798,-3.0798,-3.0795,-3.0786,-3.0794,-3.0792,-3.0792,-3.0788,-3.0793,-3.0799,-3.0653,-3.0464,-3.033,-3.0507,-3.049,-3.0438,-3.057,-3.0704,-3.0688,-3.0701,-3.0717,-3.0701,-3.0707,-3.0691,-3.0682,-3.0695,-3.0701,-3.0733,-3.0739,-3.0719,-3.0719,-3.0734,-3.0762,-3.0759,-3.0756,-3.0745,-3.0691,-3.0664,-3.0656,-3.0231,-3.0088,-2.9333,-2.9132,-2.9109,-2.8885,-2.8963,-2.9,-2.8878,-2.8457,-2.8029,-2.8348,-2.8848,-2.857,-2.8152,-2.776,-2.736,-2.8063,-2.887,-2.9393,-2.9838,-3.0075,-2.9926,-2.9545,-2.9192,-2.8772,-2.8676,-2.871,-2.9047,-2.934,-2.9809,-3.5653,-3.5741,-3.584,-3.5933,-3.5986,-3.6007,-3.6021,-3.601,-3.6014,-3.6016,-3.6014,-3.6015,-3.6013,-3.6011,-3.6008,-3.6008,-3.6006,-3.6018,-3.6018,-3.5992,-3.5981,-3.5966,-3.5622,-3.5027,-3.4165,-3.3422,-3.2801,-3.3219,-3.4029,-3.4575,-3.5108,-3.5575,-3.5149,-3.4348,-3.3453,-3.2679,-3.1945,-3.1169,-3.0898,-3.0918,-3.0895,-3.085,-3.0822,-3.0795,-3.0789,-3.0783,-3.0785,-3.0786,-3.0791,-3.0813,-3.0812,-3.0815,-3.0812,-3.0801,-3.0788,-3.0681,-3.0364,-3.0365,-3.0445,-3.0239,-3.0344,-3.0503,-3.0651,-3.071,-3.0724,-3.0733,-3.0739,-3.0728,-3.0728,-3.0712,-3.0709,-3.0725,-3.0756,-3.0764,-3.0742,-3.0742,-3.0777,-3.0791,-3.0789,-3.0786,-3.0752,-3.0714,-3.0717,-3.0747,-3.0677,-3.0589,-3.0523,-3.0494,-3.0344,-2.9965,-2.9806,-2.984,-2.9814,-2.9297,-2.8793,-2.904,-2.9719,-2.9319,-2.8899,-2.8825,-2.8803,-2.902,-2.9292,-2.9683,-3.0082,-3.0372,-3.0208,-2.9793,-2.948,-2.9134,-2.8699,-2.8506,-2.8777,-2.9149,-2.9814,-3.5747,-3.5884,-3.5883,-3.5931,-3.6009,-3.6014,-3.6006,-3.6011,-3.6015,-3.6015,-3.6011,-3.6004,-3.6021,-3.6004,-3.6012,-3.6009,-3.5989,-3.6001,-3.5964,-3.5926,-3.5929,-3.5928,-3.566,-3.4979,-3.3698,-3.3034,-3.2725,-3.2928,-3.3434,-3.4135,-3.4686,-3.4983,-3.5607,-3.4811,-3.3537,-3.2843,-3.2267,-3.1356,-3.0874,-3.0897,-3.0898,-3.0878,-3.0853,-3.083,-3.0786,-3.08,-3.0794,-3.0785,-3.0788,-3.0813,-3.086,-3.0864,-3.0845,-3.0839,-3.0809,-3.078,-3.0464,-3.0531,-3.0535,-3.0451,-3.0633,-3.0639,-3.0758,-3.0736,-3.0753,-3.0778,-3.0767,-3.0782,-3.0767,-3.0774,-3.0772,-3.0765,-3.0789,-3.0793,-3.0776,-3.0776,-3.0782,-3.079,-3.0792,-3.0788,-3.0782,-3.0774,-3.0772,-3.0776,-3.0776,-3.0708,-3.0696,-3.0664,-3.0668,-3.0608,-3.0547,-3.054,-3.0535,-3.062,-3.0314,-3.002,-3.0288,-2.9927,-2.9722,-2.973,-2.9651,-2.9483,-2.974,-3.009,-3.0285,-3.0513,-3.0276,-2.9951,-2.9598,-2.9175,-2.8481,-2.8216,-2.8509,-2.9032,-2.9757]},{"header":{"parameterUnit":"m.s-1","parameterCategory":1,"la1":31.0,"la2":29.5877,"lo1":-88.7671,"lo2":-86.6584,"dy":0.0162,"dx":0.0185,"nx":115,"ny":88,"refTime":"2023-03-06T06:00:00:Z","depth":0,"parameterNumber":3,"parameterNumberName":"V-component_of_WINDS"},"data":[0.0,0.0,0.0,0.0,0.0,0.0,0.0,0.0,0.0,0.0,0.0,0.0,0.0,0.0,0.0,0.0,0.0,0.0,0.0,0.0,0.0,0.0,0.0,0.0,0.0,0.0,0.0,0.0,0.0,0.0,0.0,0.0,0.0,0.0,0.0,0.0,0.0,0.0,0.0,0.0,0.0,0.0,0.0,0.0,0.0,0.0,0.0,0.0,0.0,0.0,0.0,0.0,0.0,0.0,0.0,0.0,0.0,0.0,0.0,0.0,0.0,0.0,0.0,0.0,0.0,0.0,0.0,0.0,0.0,0.0,0.0,0.0,0.0,0.0,0.0,0.0,0.0,0.0,0.0,0.0,0.0,0.0,0.0,0.0,0.0,0.0,0.0,0.0,0.0,0.0,0.0,0.0,0.0,0.0,0.0,0.0,0.0,0.0,0.0,0.0,0.0,0.0,0.0,0.0,0.0,0.0,0.0,0.0,0.0,0.0,0.0,0.0,0.0,0.0,0.0,0.0,0.0,0.0,0.0,0.0,0.0,0.0,0.0,0.0,0.0,0.0,0.0,0.0,0.0,0.0,0.0,0.0,0.0,0.0,0.0,0.0,0.0,0.0,0.0,0.0,0.0,0.0,0.0,0.0,0.0,0.0,0.0,0.0,0.0,0.0,0.0,0.0,0.0,0.0,0.0,0.0,0.0,0.0,0.0,0.0,0.0,0.0,0.0,0.0,0.0,0.0,0.0,0.0,0.0,0.0,0.0,0.0,0.0,0.0,0.0,0.0,0.0,0.0,0.0,0.0,0.0,0.0,0.0,0.0,0.0,0.0,0.0,0.0,0.0,0.0,0.0,0.0,0.0,0.0,0.0,0.0,0.0,0.0,0.0,0.0,0.0,0.0,0.0,0.0,0.0,0.0,0.0,0.0,0.0,0.0,0.0,0.0,0.0,0.0,0.0,0.0,0.0,0.0,0.0,0.0,0.0,0.0,0.0,0.0,0.0,0.0,0.0,0.0,0.0,0.0,0.0,0.0,0.0,0.0,0.0,0.0,0.0,0.0,0.0,0.0,0.0,0.0,0.0,0.0,0.0,0.0,0.0,0.0,0.0,0.0,0.0,0.0,0.0,0.0,0.0,0.0,0.0,0.0,0.0,0.0,0.0,0.0,0.0,0.0,0.0,0.0,0.0,0.0,0.0,0.0,0.0,0.0,0.0,0.0,0.0,0.0,0.0,0.0,0.0,0.0,0.0,0.0,0.0,0.0,0.0,0.0,0.0,0.0,0.0,0.0,0.0,0.0,0.0,0.0,0.0,0.0,0.0,0.0,0.0,0.0,0.0,0.0,0.0,0.0,0.0,0.0,0.0,0.0,0.0,0.0,0.0,0.0,0.0,0.0,0.0,0.0,0.0,0.0,0.0,0.0,0.0,0.0,0.0,0.0,0.0,0.0,0.0,0.0,0.0,0.0,0.0,0.0,0.0,0.0,0.0,0.0,0.0,0.0,0.0,0.0,0.0,0.0,0.0,0.0,0.0,0.0,0.0,0.0,0.0,0.0,0.0,0.0,0.0,0.0,0.0,0.0,0.0,0.0,0.0,0.0,0.0,0.0,0.0,0.0,0.0,0.0,0.0,0.0,0.0,0.0,0.0,0.0,0.0,0.0,0.0,0.0,0.0,0.0,0.0,0.0,0.0,0.0,0.0,0.0,0.0,0.0,0.0,0.0,0.0,0.0,0.0,0.0,0.0,0.0,0.0,0.0,0.0,0.0,0.0,0.0,0.0,0.0,0.0,0.0,0.0,0.0,0.0,0.0,0.0,0.0,0.0,0.0,0.0,0.0,0.0,0.0,0.0,0.0,0.0,0.0,0.0,0.0,0.0,0.0,0.0,0.0,0.0,0.0,0.0,0.0,0.0,0.0,0.0,0.0,0.0,0.0,0.0,0.0,0.0,0.0,0.0,0.0,0.0,0.0,0.0,0.0,0.0,0.0,0.0,0.0,0.0,0.0,0.0,0.0,0.0,0.0,0.0,0.0,0.0,0.0,0.0,0.0,0.0,0.0,0.0,0.0,0.0,0.0,0.0,0.0,0.0,0.0,0.0,0.0,0.0,0.0,0.0,0.0,0.0,0.0,0.0,0.0,0.0,0.0,0.0,0.0,0.0,0.0,0.0,0.0,0.0,0.0,0.0,0.0,0.0,0.0,0.0,0.0,0.0,0.0,0.0,0.0,0.0,0.0,0.0,0.0,0.0,0.0,0.0,0.0,0.0,0.0,0.0,0.0,0.0,0.0,0.0,0.0,0.0,0.0,0.0,0.0,0.0,0.0,0.0,0.0,0.0,0.0,0.0,0.0,0.0,0.0,0.0,0.0,0.0,0.0,0.0,0.0,0.0,0.0,0.0,0.0,0.0,0.0,0.0,0.0,0.0,0.0,0.0,0.0,0.0,0.0,0.0,0.0,0.0,0.0,0.0,0.0,0.0,0.0,0.0,0.0,0.0,0.0,0.0,0.0,0.0,0.0,0.0,0.0,0.0,0.0,0.0,0.0,0.0,0.0,0.0,0.0,0.0,0.0,0.0,0.0,0.0,0.0,0.0,0.0,0.0,0.0,0.0,0.0,0.0,0.0,0.0,0.0,0.0,0.0,0.0,0.0,0.0,0.0,0.0,0.0,0.0,0.0,0.0,0.0,0.0,0.0,0.0,0.0,0.0,0.0,0.0,0.0,0.0,0.0,0.0,0.0,0.0,0.0,0.0,0.0,0.0,0.0,0.0,0.0,0.0,0.0,0.0,0.0,0.0,0.0,0.0,0.0,0.0,0.0,0.0,0.0,0.0,0.0,0.0,0.0,0.0,0.0,0.0,0.0,0.0,0.0,0.0,0.0,0.0,0.0,0.0,0.0,0.0,0.0,0.0,0.0,0.0,0.0,0.0,0.0,0.0,0.0,0.0,0.0,0.0,0.0,0.0,0.0,0.0,0.0,0.0,0.0,0.0,0.0,0.0,0.0,0.0,0.0,0.0,0.0,0.0,0.0,0.0,0.0,0.0,0.0,0.0,0.0,0.0,0.0,0.0,0.0,0.0,0.0,0.0,0.0,0.0,0.0,0.0,0.0,0.0,0.0,0.0,0.0,0.0,0.0,0.0,0.0,0.0,0.0,0.0,0.0,0.0,0.0,0.0,0.0,0.0,0.0,0.0,0.0,0.0,0.0,0.0,0.0,0.0,0.0,0.0,0.0,0.0,0.0,0.0,0.0,0.0,0.0,0.0,0.0,0.0,0.0,0.0,0.0,0.0,0.0,0.0,0.0,0.0,0.0,0.0,0.0,0.0,0.0,0.0,0.0,0.0,0.0,0.0,0.0,0.0,0.0,0.0,0.0,0.0,0.0,0.0,0.0,0.0,0.0,0.0,0.0,0.0,0.0,0.0,0.0,0.0,0.0,0.0,0.0,0.0,0.0,0.0,0.0,0.0,0.0,0.0,0.0,0.0,0.0,0.0,0.0,0.0,0.0,0.0,0.0,0.0,0.0,0.0,0.0,0.0,0.0,0.0,0.0,0.0,0.0,0.0,0.0,0.0,0.0,0.0,0.0,0.0,0.0,0.0,0.0,0.0,0.0,0.0,0.0,0.0,0.0,0.0,0.0,0.0,0.0,0.0,0.0,0.0,0.0,0.0,0.0,0.0,0.0,0.0,0.0,0.0,0.0,0.0,0.0,0.0,0.0,0.0,0.0,0.0,0.0,0.0,0.0,0.0,0.0,0.0,0.0,0.0,0.0,0.0,0.0,0.0,0.0,0.0,0.0,0.0,0.0,0.0,0.0,0.0,0.0,0.0,0.0,0.0,0.0,0.0,0.0,0.0,0.0,0.0,0.0,0.0,0.0,0.0,0.0,0.0,0.0,0.0,0.0,0.0,0.0,0.0,0.0,0.0,0.0,0.0,0.0,0.0,0.0,0.0,0.0,0.0,0.0,0.0,0.0,0.0,0.0,0.0,0.0,0.0,0.0,0.0,0.0,0.0,0.0,0.0,0.0,0.0,0.0,0.0,0.0,0.0,0.0,0.0,0.0,0.0,0.0,0.0,0.0,0.0,0.0,0.0,0.0,0.0,0.0,0.0,0.0,0.0,0.0,0.0,0.0,0.0,0.0,0.0,0.0,0.0,0.0,0.0,0.0,0.0,0.0,0.0,0.0,0.0,0.0,0.0,0.0,0.0,0.0,0.0,0.0,0.0,0.0,0.0,0.0,0.0,0.0,0.0,0.0,0.0,0.0,0.0,0.0,-0.4295,0.0,0.0,0.0,0.0,0.0,0.0,0.0,0.0,0.0,0.0,0.0,0.0,0.0,0.0,0.0,0.0,0.0,0.0,0.0,0.0,0.0,0.0,0.0,0.0,0.0,0.0,0.0,0.0,0.0,0.0,0.0,0.0,0.0,0.0,0.0,0.0,0.0,0.0,0.0,0.0,0.0,0.0,0.0,0.0,0.0,0.0,0.0,0.0,0.0,0.0,0.0,0.0,0.0,0.0,0.0,0.0,0.0,0.0,0.0,0.0,0.0,0.0,0.0,0.0,0.0,0.0,0.0,0.0,0.0,0.0,0.0,0.0,0.0,0.0,0.0,0.0,0.0,0.0,0.0,0.0,0.0,0.0,0.0,0.0,0.0,0.0,0.0,0.0,0.0,0.0,0.0,0.0,0.0,0.0,0.0,0.0,0.0,0.0,0.0,0.0,0.0,0.0,0.0,0.0,0.0,0.0,0.0,0.0,0.0,0.0,-0.1529,-0.2035,-0.2807,-0.3543,-0.4136,0.0,0.0,0.0,0.0,0.0,0.0,0.0,0.0,0.0,0.0,0.0,0.0,0.0,0.0,0.0,0.0,0.0,0.0,0.0,0.0,0.0,0.0,0.0,0.0,0.0,0.0,0.0,0.0,0.0,0.0,0.0,0.0,0.0,0.0,0.0,0.0,0.0,0.0,0.0,0.0,0.0,0.0,0.0,0.0,0.0,0.0,0.0,0.0,0.0,0.0,0.0,0.0,0.0,0.0,0.0,0.0,0.0,0.0,0.0,0.0,0.0,0.0,0.0,0.0,0.0,0.0,0.0,0.0,0.0,0.0,0.0,0.0,0.0,0.0,0.0,0.0,0.0,0.0,0.0,0.0,0.0,0.0,0.0,0.0,0.0,0.0,0.0,0.0,0.0,0.0,0.0,0.0,0.0,0.0,0.0,0.0,0.0,0.0,0.0,0.0,0.0,0.0,0.0,0.0,0.0,0.0,0.0,0.0,0.0,0.0,0.0,0.0,-0.2616,-0.3364,-0.4141,0.0,0.0,0.0,0.0,0.0,0.0,0.0,0.0,0.0,0.0,0.0,0.0,0.0,0.0,0.0,0.0,0.0,0.0,0.0,0.0,0.0,0.0,0.0,0.0,0.0,0.0,0.0,0.0,0.0,0.0,0.0,0.0,0.0,0.0,0.0,0.0,0.0,0.0,0.0,0.0,0.0,0.0,0.0,0.0,0.0,0.0,0.0,0.0,0.0,0.0,0.0,0.0,0.0,0.0,0.0,0.0,0.0,0.0,0.0,0.0,0.0,0.0,0.0,0.0,0.0,0.0,0.0,0.0,0.0,0.0,0.0,0.0,0.0,0.0,0.0,0.0,0.0,0.0,0.0,0.0,0.0,0.0,0.0,0.0,0.0,0.0,0.0,0.0,0.0,0.0,0.0,0.0,0.0,0.0,0.0,0.0,0.0,0.0,0.0,0.0,0.0,0.0,0.0,0.0,0.0,0.0,0.0,0.0,0.0,0.0,-0.0831,-0.145,-0.2167,0.0,-0.4484,0.0,0.0,0.0,0.0,0.0,0.0,0.0,0.0,0.0,0.0,0.0,0.0,0.0,0.0,0.0,0.0,0.0,0.0,0.0,0.0,0.0,0.0,0.0,0.0,0.0,0.0,0.0,0.0,0.0,0.0,0.0,0.0,0.0,0.0,0.0,0.0,0.0,0.0,0.0,0.0,0.0,0.0,0.0,0.0,0.0,0.0,0.0,0.0,0.0,0.0,0.0,0.0,0.0,0.0,0.0,0.0,0.0,0.0,0.0,0.0,0.0,0.0,0.0,0.0,0.0,0.0,0.0,0.0,0.0,0.0,0.0,0.0,0.0,0.0,0.0,0.0,0.0,0.0,0.0,0.0,0.0,0.0,0.0,0.0,0.0,0.0,0.0,0.0,0.0,0.0,0.0,0.0,0.0,0.0,0.0,0.0,0.0,0.0,0.0,0.0,0.0,0.0,0.0,0.0,0.0,0.0,0.0,0.0,0.0,0.0,-0.053,-0.0856,-0.2113,-0.3285,0.0,0.0,0.0,0.0,0.0,0.0,0.0,0.0,0.0,0.0,0.0,0.0,0.0,0.0,0.0,0.0,0.0,0.0,0.0,0.0,0.0,0.0,0.0,0.0,0.0,0.0,0.0,0.0,0.0,0.0,0.0,0.0,0.0,0.0,0.0,0.0,0.0,0.0,0.0,0.0,0.0,0.0,0.0,0.0,0.0,0.0,0.0,0.0,0.0,0.0,0.0,0.0,0.0,0.0,0.0,0.0,0.0,0.0,0.0,0.0,0.0,0.0,0.0,0.0,0.0,0.0,0.0,0.0,0.0,0.0,0.0,0.0,0.0,0.0,0.0,0.0,0.0,0.0,0.0,0.0,0.0,0.0,0.0,0.0,0.0,0.0,0.0,0.0,0.0,0.0,0.0,0.0,0.0,0.0,0.0,0.0,0.0,0.0,0.0,0.0,0.0,0.0,0.0,0.0,0.0,0.0,0.0,0.0,0.0,0.0,0.0393,-0.0216,-0.0783,-0.1959,-0.309,-0.405,0.0,0.0,0.0,0.0,0.0,0.0,0.0,0.0,0.0,0.0,0.0,0.0,0.0,0.0,0.0,0.0,0.0,0.0,0.0,0.0,0.0,0.0,0.0,0.0,0.0,0.0,0.0,0.0,0.0,0.0,0.0,0.0,0.0,0.0,0.0,0.0,0.0,0.0,0.0,0.0,0.0,0.0,0.0,0.0,0.0,0.0,0.0,0.0,0.0,0.0,0.0,0.0,0.0,0.0,0.0,0.0,0.0,0.0,0.0,0.0,0.0,0.0,0.0,0.0,0.0,0.0,0.0,0.0,0.0,0.0,0.0,0.0,0.0,0.0,0.0,0.0,0.0,0.0,0.0,0.0,0.0,0.0,0.0,0.0,0.0,0.0,0.0,0.0,0.0,0.0,0.0,0.0,0.0,0.0,0.0,0.0,0.0,0.0,0.0,0.0,0.0,0.0,0.0,0.0,0.0,0.0,0.0,0.0,0.1128,0.0947,0.0109,-0.1279,-0.156,-0.2419,0.0,0.0,0.0,0.0,0.0,0.0,0.0,0.0,0.0,0.0,0.0,0.0,0.0,0.0,0.0,0.0,0.0,0.0,0.0,0.0,0.0,0.0,0.0,0.0,0.0,0.0,0.0,0.0,0.0,0.0,0.0,0.0,0.0,0.0,0.0,0.0,0.0,0.0,0.0,0.0,0.0,0.0,0.0,0.0,0.0,0.0,0.0,0.0,0.0,0.0,0.0,0.0,0.0,0.0,0.0,0.0,0.0,0.0,0.0,0.0,0.0,0.0,0.0,0.0,0.0,0.0,0.0,0.0,0.0,0.0,0.0,0.0,0.0,0.0,0.0,0.0,0.0,0.0,0.0,0.0,0.0,0.0,0.0,0.0,0.0,0.0,0.0,0.0,0.0,0.0,0.0,0.0,0.0,0.0,0.0,0.0,0.0,0.0,0.0,0.0,0.0,0.0,0.0,0.0,0.0,0.0,0.0,0.0,0.0,0.1855,0.1036,0.0149,-0.0708,-0.1421,-0.2307,0.0,0.0,0.0,0.0,0.0,0.0,0.0,0.0,0.0,0.0,0.0,0.0,0.0,0.0,0.0,0.0,0.0,0.0,0.0,0.0,0.0,0.0,0.0,0.0,0.0,0.0,0.0,0.0,0.0,0.0,0.0,0.0,0.0,0.0,0.0,0.0,0.0,0.0,0.0,0.0,0.0,0.0,0.0,0.0,0.0,0.0,0.0,0.0,0.0,0.0,0.0,0.0,0.0,0.0,0.0,0.0,0.0,0.0,0.0,0.0,0.0,0.0,0.0,0.0,0.0,0.0,0.0,0.0,0.0,0.0,0.0,0.0,0.0,0.0,0.0,0.0,0.0,0.0,0.0,0.0,0.0,0.0,0.0,0.0,0.0,0.0,0.0,0.0,0.0,0.0,0.0,0.0,0.0,0.0,0.0,0.0,0.0,0.0,0.0,0.0,0.0,0.0,0.0,0.0,0.0,0.0,0.0,0.0,0.0,0.2311,0.0,0.0264,-0.0299,-0.1184,-0.2145,0.0,0.0,0.0,0.0,0.0,0.0,0.0,0.0,0.0,0.0,0.0,0.0,0.0,0.0,0.0,0.0,0.0,0.0,0.0,0.0,0.0,0.0,0.0,0.0,0.0,0.0,0.0,0.0,0.0,0.0,0.0,0.0,0.0,0.0,0.0,0.0,0.0,0.0,0.0,0.0,0.0,0.0,0.0,0.0,0.0,0.0,0.0,0.0,0.0,0.0,0.0,0.0,0.0,0.0,0.0,0.0,0.0,0.0,0.0,0.0,0.0,0.0,0.0,0.0,0.0,0.0,0.0,0.0,0.0,0.0,0.0,0.0,0.0,0.0,0.0,0.0,0.0,0.0,0.0,0.0,0.0,0.0,0.0,0.0,0.0,0.0,0.0,0.0,0.0,0.0,0.0,0.0,0.0,0.0,0.0,0.0,0.0,0.0,0.0,0.0,0.0,0.0,0.0,0.0,0.0,0.0,0.0,0.0,0.2828,0.2458,0.1301,0.0449,-0.0073,-0.0782,-0.1867,0.0,0.0,0.0,0.0,0.0,0.0,0.0,0.0,0.0,0.0,0.0,0.0,0.0,0.0,0.0,0.0,0.0,0.0,0.0,0.0,0.0,0.0,0.0,0.0,0.0,0.0,0.0,0.0,0.0,0.0,0.0,0.0,0.0,0.0,0.0,0.0,0.0,0.0,0.0,0.0,0.0,0.0,0.0,0.0,0.0,0.0,0.0,0.0,0.0,0.0,0.0,0.0,0.0,0.0,0.0,0.0,0.0,0.0,0.0,0.0,0.0,0.0,0.0,0.0,0.0,0.0,0.0,0.0,0.0,0.0,0.0,0.0,0.0,0.0,0.0,0.0,0.0,0.0,0.0,0.0,0.0,0.0,0.0,0.0,0.0,0.0,0.0,0.0,0.0,0.0,0.0,0.0,0.0,0.0,0.0,0.0,0.0,0.0,0.0,0.0,0.0,0.0,0.0,0.0,0.0,0.0,0.0,0.0,0.0,0.2295,0.1529,0.0829,0.0187,-0.0753,-0.1794,0.0,0.0,0.0,0.0,0.0,0.0,0.0,0.0,0.0,0.0,0.0,0.0,0.0,0.0,0.0,0.0,0.0,0.0,0.0,0.0,0.0,0.0,0.0,0.0,0.0,0.0,0.0,0.0,0.0,0.0,0.0,0.0,0.0,0.0,0.0,0.0,0.0,0.0,0.0,0.0,0.0,0.0,0.0,0.0,0.0,0.0,0.0,0.0,0.0,0.0,0.0,0.0,0.0,0.0,0.0,0.0,0.0,0.0,0.0,0.0,0.0,0.0,0.0,0.0,0.0,0.0,0.0,0.0,0.0,0.0,0.0,0.0,0.0,0.0,0.0,0.0,0.0,0.0,0.0,0.0,0.0,0.0,0.0,0.0,0.0,0.0,0.0,0.0,0.0,0.0,0.0,0.0,0.0,0.0,0.0,0.0,0.0,0.0,0.0,0.0,0.0,0.0,0.0,0.0,0.0,0.0,0.0,0.0,0.0,0.2754,0.1951,0.1253,0.0672,-0.0506,-0.1561,-0.2509,0.0,0.0,0.0,0.0,0.0,0.0,0.0,0.0,0.0,0.0,0.0,0.0,0.0,0.0,0.0,0.0,0.0,0.0,0.0,0.0,0.0,0.0,0.0,0.0,0.0,0.0,0.0,0.0,0.0,0.0,0.0,0.0,0.0,0.0,0.0,0.0,0.0,0.0,0.0,0.0,0.0,0.0,0.0,0.0,0.0,0.0,0.0,0.0,0.0,0.0,0.0,0.0,0.0,0.0,0.0,0.0,0.0,0.0,0.0,0.0,0.0,0.0,0.0,0.0,0.0,0.0,0.0,0.0,0.0,0.0,0.0,0.0,0.0,0.0,0.0,0.0,0.0,0.0,0.0,0.0,0.0,0.0,0.0,0.0,0.0,0.0,0.0,0.0,0.0,0.0,0.0,0.0,0.0,0.0,0.0,0.0,0.0,0.0,0.0,0.0,0.0,0.0,0.0,0.0,0.0,0.0,0.0,0.0,0.3672,0.2517,0.1727,0.1285,-0.0036,-0.1174,0.0,0.0,0.0,0.0,0.0,0.0,0.0,0.0,0.0,0.0,0.0,0.0,0.0,0.0,0.0,0.0,0.0,0.0,0.0,0.0,0.0,0.0,0.0,0.0,0.0,0.0,0.0,0.0,0.0,0.0,0.0,0.0,0.0,0.0,0.0,0.0,0.0,0.0,0.0,0.0,0.0,0.0,0.0,0.0,0.0,0.0,0.0,0.0,0.0,0.0,0.0,0.0,0.0,0.0,0.0,0.0,0.0,0.0,0.0,0.0,0.0,0.0,0.0,0.0,0.0,0.0,0.0,0.0,0.0,0.0,0.0,0.0,0.0,0.0,0.0,0.0,0.0,0.0,0.0,0.0,0.0,0.0,0.0,0.0,0.0,0.0,0.0,0.0,0.0,0.0,0.0,0.0,0.0,0.0,0.0,0.0,0.0,0.0,0.0,0.0,0.0,0.0,0.0,0.0,0.0,0.0,0.0,0.0,0.0,0.4192,0.3125,0.2143,0.1307,0.0223,-0.094,0.0,0.0,0.0,0.0,0.0,0.0,0.0,0.0,0.0,0.0,0.0,0.0,0.0,0.0,0.0,0.0,0.0,0.0,0.0,0.0,0.0,0.0,0.0,0.0,0.0,0.0,0.0,0.0,0.0,0.0,0.0,0.0,0.0,0.0,0.0,0.0,0.0,0.0,0.0,0.0,0.0,0.0,0.0,0.0,0.0,0.0,0.0,0.0,0.0,0.0,0.0,0.0,0.0,0.0,0.0,0.0,0.0,0.0,0.0,0.0,0.0,0.0,0.0,0.0,0.0,0.0,0.0,0.0,0.0,0.0,0.0,0.0,0.0,0.0,0.0,0.0,0.0,0.0,0.0,0.0,0.0,0.0,0.0,0.0,0.0,0.0,0.0,0.0,0.0,0.0,0.0,0.0,0.0,0.0,0.0,0.0,0.0,0.0,0.0,0.0,0.0,0.0,0.0,0.0,0.0,0.0,0.0,0.0,0.4737,0.4543,0.3604,0.2666,0.1724,0.0529,-0.0586,0.0,0.0,0.0,0.0,0.0,0.0,0.0,0.0,0.0,0.0,0.0,0.0,0.0,0.0,0.0,0.0,0.0,0.0,0.0,0.0,0.0,0.0,0.0,0.0,0.0,0.0,0.0,0.0,0.0,0.0,0.0,0.0,0.0,0.0,0.0,0.0,0.0,0.0,0.0,0.0,0.0,0.0,0.0,0.0,0.0,0.0,0.0,0.0,0.0,0.0,0.0,0.0,0.0,0.0,0.0,0.0,0.0,0.0,0.0,0.0,0.0,0.0,0.0,0.0,0.0,0.0,0.0,0.0,0.0,0.0,0.0,0.0,0.0,0.0,0.0,0.0,0.0,0.0,0.0,0.0,0.0,0.0,0.0,0.0,0.0,0.0,0.0,0.0,0.0,0.0,0.0,0.0,0.0,0.0,0.0,0.0,0.0,0.0,0.0,0.0,0.0,0.0,0.0,0.0,0.0,0.0,0.0,0.0,0.489,0.4662,0.3917,0.3095,0.2233,0.0919,-0.0185,0.0,0.0,0.0,0.0,0.0,0.0,0.0,0.0,0.0,0.0,0.0,0.0,0.0,0.0,0.0,0.0,0.0,0.0,0.0,0.0,0.0,0.0,0.0,0.0,0.0,0.0,0.0,0.0,0.0,0.0,0.0,0.0,0.0,0.0,0.0,0.0,0.0,0.0,0.0,0.0,0.0,0.0,0.0,0.0,0.0,0.0,0.0,0.0,0.0,0.0,0.0,0.0,0.0,0.0,0.0,0.0,0.0,0.0,0.0,0.0,0.0,0.0,0.0,0.0,0.0,0.0,0.0,0.0,0.0,0.0,0.0,0.0,0.0,0.0,0.0,0.0,0.0,0.0,0.0,0.0,0.0,0.0,0.0,0.0,0.0,0.0,0.0,0.0,0.0,0.0,0.0,0.0,0.0,0.0,0.0,0.0,0.0,0.0,0.0,0.0,0.0,0.0,0.0,0.0,0.0,0.0,0.0,0.0,0.4774,0.4233,0.3763,0.3136,0.247,0.1378,0.0261,0.0,0.0,0.0,0.0,0.0,0.0,0.0,0.0,0.0,0.0,0.0,0.0,0.0,0.0,0.0,0.0,0.0,0.0,0.0,0.0,0.0,0.0,0.0,0.0,0.0,0.0,0.0,0.0,0.0,0.0,0.0,0.0,0.0,0.0,0.0,0.0,0.0,0.0,0.0,0.0,0.0,0.0,0.0,0.0,0.0,0.0,0.0,0.0,-0.8673,0.0,0.0,0.0,0.0,0.0,0.0,0.0,0.0,0.0,0.0,0.0,0.0,0.0,0.0,0.0,0.0,0.0,0.0,0.0,0.0,0.0,0.0,0.0,0.0,0.0,0.0,0.0,0.0,0.0,0.0,0.0,0.0,0.0,0.0,0.0,0.0,0.0,0.0,0.0,0.0,0.0,0.0,0.0,0.0,0.0,0.0,0.0,0.0,0.0,0.0,0.0,0.0,0.0,0.0,0.0,0.0,0.0,0.0,0.0,0.489,0.4392,0.3997,0.3411,0.2666,0.1858,0.0756,0.0,0.0,0.0,0.0,0.0,0.0,0.0,0.0,0.0,0.0,0.0,0.0,0.0,0.0,0.0,0.0,0.0,0.0,0.0,0.0,0.0,0.0,0.0,0.0,0.0,0.0,0.0,0.0,0.0,0.0,0.0,0.0,0.0,0.0,0.0,0.0,0.0,0.0,0.0,0.0,0.0,0.0,0.0,0.0,0.0,0.0,0.0,0.0,0.0,0.0,0.0,0.0,0.0,0.0,0.0,0.0,0.0,0.0,0.0,0.0,0.0,0.0,0.0,0.0,0.0,0.0,0.0,0.0,0.0,0.0,0.0,0.0,0.0,0.0,0.0,0.0,0.0,0.0,0.0,0.0,0.0,0.0,0.0,0.0,0.0,0.0,0.0,0.0,0.0,0.0,0.0,0.0,0.0,0.0,0.0,0.0,0.0,0.0,0.0,0.0,0.0,0.0,0.0,0.0,0.0,0.0,0.0,0.5476,0.5087,0.4662,0.4272,0.3686,0.2863,0.2273,0.1267,-0.022,0.0,0.0,0.0,0.0,0.0,0.0,0.0,0.0,0.0,0.0,0.0,0.0,0.0,0.0,0.0,0.0,0.0,0.0,0.0,0.0,0.0,0.0,0.0,0.0,0.0,0.0,0.0,0.0,0.0,0.0,0.0,0.0,0.0,0.0,0.0,0.0,0.0,0.0,-0.1283,-0.1089,0.0,0.0,0.0,0.0,0.0,0.0,0.0,0.0,-0.7414,0.0,0.0,0.0,0.0,0.0,0.0,0.0,0.0,0.0,0.0,0.0,0.0,0.0,0.0,0.0,0.0,0.0,0.0,0.0,0.0,0.0,0.0,0.0,0.0,0.0,0.0,0.0,0.0,0.0,0.0,0.0,0.0,0.0,0.0,0.0,0.0,0.0,0.0,0.0,0.0,0.0,0.0,0.0,0.0,0.0,0.0,0.0,0.0,0.0,0.0,0.0,0.0,0.0,0.0,0.0,0.0,0.5395,0.5318,0.501,0.4462,0.4233,0.3763,0.3095,0.2627,0.1742,0.0301,0.0,0.0,0.0,0.0,0.0,0.0,0.0,0.0,0.0,0.0,0.0,0.0,0.0,0.0,0.0,0.0,0.0,0.0,0.0,0.0,0.0,0.0,0.0,0.0,0.0,0.0,0.0,0.0,0.0,0.0,0.0,0.0,0.0,0.0,0.0,0.0,0.0,0.0,0.0,0.004,-0.0203,0.0,0.0,0.0,0.0,0.0,0.0,0.0,0.0,-0.7308,0.0,0.0,0.0,0.0,0.0,0.0,0.0,0.0,0.0,0.0,0.0,0.0,0.0,0.0,0.0,0.0,0.0,0.0,0.0,0.0,0.0,0.0,0.0,0.0,0.0,0.0,0.0,0.0,0.0,0.0,0.0,0.0,0.0,0.0,0.0,0.0,0.0,0.0,0.0,0.0,0.0,0.0,0.0,0.0,0.0,0.0,0.0,0.0,0.0,0.0,0.0,0.0,0.0,0.0,0.0,0.5628,0.5398,0.5049,0.4582,0.4467,0.4114,0.3487,0.294,0.2133,0.0,0.0,0.0,0.0,0.0,0.0,0.0,0.0,0.0,0.0,0.0,0.0,0.0,0.0,0.0,0.0,0.0,0.0,0.0,0.0,0.0,0.0,0.0,0.0,0.0,0.0,0.0,0.0,0.0,0.0,0.0,0.0,0.0,0.0,0.0,0.0,0.0,0.0,0.0,0.0,0.0721,0.0481,-0.0039,0.0,0.0,0.0,0.0,0.0,0.0,-0.5256,-0.616,0.0,0.0,0.0,0.0,0.0,0.0,0.0,0.0,0.0,0.0,0.0,0.0,0.0,0.0,0.0,0.0,0.0,0.0,0.0,0.0,0.0,0.0,0.0,0.0,0.0,0.0,0.0,0.0,0.0,0.0,0.0,0.0,0.0,0.0,0.0,0.0,0.0,0.0,0.0,0.0,0.0,0.0,0.0,0.0,0.0,0.0,0.0,0.0,0.0,0.0,0.0,0.0,0.0,0.0,0.0,0.598,0.5592,0.5243,0.4896,0.4776,0.4504,0.3999,0.3295,0.2564,0.0,0.0,0.0,0.0,0.0,0.0,0.0,0.0,0.0,0.0,0.0,0.0,0.0,0.0,0.0,0.0,0.0,0.0,0.0,0.0,0.0,0.0,0.0,0.0,0.0,0.0,0.0,0.0,0.0,0.0,0.0,0.0,0.0,0.0,0.0,0.0,0.0,0.0,0.0,0.0,0.0,0.1147,0.0931,-0.0156,0.0,0.0,0.0,0.0,-0.3414,-0.4059,0.0,0.0,0.0,0.0,0.0,0.0,0.0,0.0,0.0,0.0,0.0,0.0,0.0,0.0,0.0,0.0,0.0,0.0,0.0,0.0,0.0,0.0,0.0,0.0,0.0,0.0,0.0,0.0,0.0,0.0,0.0,0.0,0.0,0.0,0.0,0.0,0.0,0.0,0.0,0.0,0.0,0.0,0.0,0.0,0.0,0.0,0.0,0.0,0.0,0.0,0.0,0.0,0.0,0.0,0.0,0.0,0.6254,0.598,0.5712,0.5482,0.5124,0.4851,0.4582,0.3761,0.3054,0.0,0.0,0.0,0.0,0.0,0.0,0.0,0.0,0.0,0.0,0.0,0.0,0.0,0.0,0.0,0.0,0.0,0.0,0.0,0.0,0.0,0.0,0.0,0.0,0.0,0.0,0.0,0.0,0.0,0.0,0.0,0.0,0.0,0.0,0.0,0.0,0.0,0.0,0.0,0.0,0.0,0.2188,0.1672,0.0582,-0.0239,0.0,0.0,-0.1856,-0.2316,-0.2866,0.0,0.0,0.0,0.0,0.0,0.0,0.0,0.0,0.0,0.0,0.0,0.0,0.0,0.0,0.0,0.0,0.0,0.0,0.0,0.0,0.0,0.0,0.0,0.0,0.0,0.0,0.0,0.0,0.0,0.0,0.0,0.0,0.0,0.0,0.0,0.0,0.0,0.0,0.0,0.0,0.0,0.0,0.0,0.0,0.0,0.0,0.0,0.0,0.0,0.0,0.0,0.0,0.0,0.0,0.0,0.6266,0.6447,0.5983,0.5676,0.5598,0.5443,0.5204,0.489,0.4265,0.3641,0.0,0.0,0.0,0.0,0.0,0.0,0.0,0.0,0.0,0.0,0.0,0.0,0.0,0.0,0.0,0.0,0.0,0.0,0.0,0.0,0.0,0.0,0.0,0.0,0.0,0.0,0.0,0.0,0.0,0.0,0.0,0.0,0.0,0.0,0.0,0.0,0.0,0.0,0.0,0.0,0.0,0.0,0.2323,0.1604,0.0,0.0,0.0,-0.0492,-0.1173,0.0,0.0,0.0,0.0,0.0,0.0,0.0,0.0,0.0,0.0,0.0,0.0,0.0,0.0,0.0,0.0,0.0,0.0,0.0,0.0,0.0,0.0,0.0,0.0,0.0,0.0,0.0,0.0,0.0,0.0,0.0,0.0,0.0,0.0,0.0,0.0,0.0,0.0,0.0,0.0,0.0,0.0,0.0,0.0,0.0,0.0,0.0,0.0,0.0,0.0,0.0,0.0,0.0,0.0,0.0,0.0,0.0,0.6756,0.6138,0.5831,0.5831,0.5712,0.5518,0.5237,0.4849,0.0,0.0,0.0,0.0,0.0,0.0,0.0,0.0,0.0,0.0,0.0,0.0,0.0,0.0,0.0,0.0,0.0,0.0,0.0,0.0,0.0,0.0,0.0,0.0,0.0,0.0,0.0,-0.0284,0.0,0.0,0.0,0.0,0.0,0.0,0.0,0.0,0.0,0.0,0.0,0.0,0.0,0.0,0.3083,0.3045,0.2525,0.199,0.0,0.0,0.0641,-0.0074,-0.0687,-0.142,0.0,0.0,0.0,0.0,0.0,0.0,0.0,0.0,0.0,0.0,0.0,0.0,0.0,0.0,0.0,0.0,0.0,0.0,0.0,0.0,0.0,0.0,0.0,0.0,0.0,0.0,0.0,0.0,0.0,0.0,0.0,0.0,0.0,0.0,0.0,0.0,0.0,0.0,0.0,0.0,0.0,0.0,0.0,0.0,0.0,0.0,0.0,0.0,0.0,0.0,0.0,0.0,0.0,0.0,0.0,0.7142,0.6756,0.6525,0.6525,0.6096,0.586,0.5822,0.5437,0.5124,0.0,0.0,0.0,0.0,0.0,0.0,0.0,0.0,0.0,0.0,0.0,0.0,0.0,0.0,0.0,0.0,0.0,0.0,0.0,0.0,0.0,0.0,0.0,0.0,0.0,0.0,0.0,0.0,0.0,0.0,0.0,0.0,0.0,0.0,0.0,0.0,0.0,0.0,0.0,0.0,0.0,0.3867,0.3992,0.3175,0.2575,0.0,0.0,0.1341,0.1029,0.0466,-0.0252,-0.1266,0.0,0.0,0.0,0.0,0.0,0.0,0.0,0.0,0.0,0.0,0.0,0.0,0.0,0.0,0.0,0.0,0.0,0.0,0.0,0.0,0.0,0.0,0.0,0.0,0.0,0.0,0.0,0.0,0.0,0.0,0.0,0.0,0.0,0.0,0.0,0.0,0.0,0.0,0.0,0.0,0.0,0.0,0.0,0.0,0.0,0.0,0.0,0.0,0.0,0.0,0.0,0.0,0.0,0.7067,0.7369,0.6984,0.6788,0.6788,0.6595,0.644,0.6328,0.606,0.5789,0.0,0.0,0.0,0.0,0.0,0.0,0.0,0.0,0.0,0.0,0.0,0.0,0.0,0.0,0.0,0.0,0.0,0.0,0.0,0.0,0.0,0.0,0.0,0.0,0.0,0.0,0.0,0.0,0.1428,0.1544,0.1695,0.0,0.0,0.0,0.0,0.0,0.0,0.0,0.0,0.0,0.0,0.4609,0.4673,0.4301,0.0,0.0,0.3173,0.2569,0.1762,0.1196,0.0591,-0.0175,-0.0706,0.0,0.0,0.0,0.0,0.0,0.0,0.0,0.0,0.0,0.0,0.0,0.0,0.0,0.0,0.0,0.0,0.0,0.0,0.0,0.0,0.0,0.0,0.0,0.0,0.0,0.0,0.0,0.0,0.0,0.0,0.0,0.0,0.0,0.0,0.0,0.0,0.0,0.0,0.0,0.0,0.0,0.0,0.0,0.0,0.0,0.0,0.0,0.0,0.0,0.0,0.0,0.0,0.7324,0.7561,0.7253,0.7096,0.7057,0.7096,0.7022,0.6872,0.6683,0.6486,0.0,0.0,0.0,0.0,0.0,0.0,0.0,0.0,0.0,0.0,0.0,0.0,0.0,0.0,0.0,0.0,0.0,0.0,0.0,0.0,0.0,0.0,0.0,0.0,0.0,0.0,0.0,0.0,0.2108,0.2261,0.2568,0.0,0.0,0.0,0.0,0.0,0.0,0.0,0.0,0.0,0.0,0.5394,0.5383,0.5279,0.5073,0.468,0.4265,0.3657,0.2808,0.2264,0.1706,0.1104,0.0,0.0,0.0,0.0,0.0,0.0,0.0,0.0,0.0,0.0,0.0,0.0,0.0,0.0,0.0,0.0,0.0,0.0,0.0,0.0,0.0,0.0,0.0,0.0,0.0,0.0,0.0,0.0,0.0,0.0,0.718,0.0,0.0,0.0,0.0,0.0,0.0,0.0,0.0,0.0,0.0,0.0,0.0,0.0,0.0,0.0,0.0,0.0,0.0,0.0,0.0,0.0,0.0,0.7791,0.7799,0.7603,0.7484,0.7484,0.748,0.748,0.748,0.7296,0.7184,0.7142,0.0,0.0,0.0,0.0,0.0,0.0,0.0,0.0,0.0,0.0,0.0,0.0,0.0,0.0,0.0,0.0,0.0,0.0,0.0,0.0,0.0,0.0,0.0,0.0,0.0,0.0,0.1131,0.1763,0.2569,0.0,0.0,0.0,0.0,0.0,0.0,0.0,0.0,0.0,0.0,0.6094,0.6267,0.6272,0.6115,0.5975,0.5861,0.5145,0.452,0.4264,0.3735,0.3218,0.0,0.0,0.0,0.0,0.0,0.0,0.0,0.0,0.0,0.0,0.0,0.0,0.0,0.0,0.0,0.0,0.0,0.0,0.0,0.0,0.0,0.0,0.0,0.0,0.0,0.0,0.0,0.7096,0.7284,0.0,0.0,0.0,0.0,0.0,0.0,0.0,0.0,0.0,0.0,0.0,0.976,0.9609,0.0,0.0,0.0,0.0,0.0,0.0,0.0,0.0,0.0,0.0,0.0,0.0,0.8116,0.8356,0.8063,0.7906,0.791,0.791,0.7906,0.7868,0.7714,0.7518,0.7407,0.0,0.0,0.0,0.0,0.0,0.0,0.0,0.0,0.0,0.0,0.0,0.0,0.0,0.0,0.0,0.0,0.0,0.0,0.0,0.0,0.0,0.0,0.0,0.0,0.0,0.3149,0.0,0.0,0.0,0.0,0.0,0.0,0.0,0.0,0.0,0.0,0.0,0.6795,0.6756,0.6965,0.7125,0.7174,0.713,0.6978,0.0,0.0,0.0,0.0,0.0,0.0,0.0,0.0,0.0,0.0,0.0,0.0,0.0,0.0,0.04,-0.1022,-0.1571,-0.1843,-0.2119,0.0,0.0,0.0,0.0,0.0,0.0,0.0,0.0,0.0,0.0,0.0,0.0,0.0,0.0,0.8231,0.0,0.8432,0.0,0.0,0.0,0.0,0.0,0.0,0.0,0.0,1.055,1.0443,1.0406,1.018,1.0023,0.0,1.014,1.0062,0.0,0.0,0.0,0.0,0.0,0.0,0.0,0.0,0.8566,0.8889,0.8632,0.8484,0.8403,0.856,0.8599,0.8522,0.8246,0.7978,0.7714,0.7565,0.7407,0.0,0.0,0.0,0.0,0.0,0.0,0.0,0.0,0.0,0.0,0.0,0.0,0.0,0.0,0.0,0.0,0.0,0.0,0.0,0.0,0.0,0.0,0.0,0.4024,0.0,0.0,0.0,0.0,0.0,0.0,0.0,0.0,0.0,0.6645,0.722,0.7685,0.7708,0.7811,0.7969,0.7983,0.0,0.0,0.0,0.0,0.0,0.0,0.0,0.4933,0.4816,0.4537,0.4317,0.4447,0.4046,0.3623,0.3344,0.0,0.0,0.0739,0.0146,-0.018,-0.0581,-0.0542,-0.0612,-0.1053,-0.1034,-0.1016,0.0,0.0,0.0,0.0,0.0,0.0,0.0,0.0,0.937,0.9402,0.0,0.8965,0.0,0.0,0.0,0.0,0.0,1.0743,0.0,0.0,1.0368,1.025,1.0775,1.0625,1.07,1.1111,1.126,1.1254,1.1031,0.9922,0.0,0.0,0.0,0.0,0.0,0.0,0.916,0.9322,0.9327,0.9236,0.9041,0.9387,0.9506,0.9322,0.8932,0.8556,0.8178,0.814,0.8059,0.7863,0.7433,0.0,0.0,0.0,0.0,0.0,0.0,0.0,0.0,0.0,0.0,0.0,0.0,0.0,0.0,0.0,0.0,0.0,0.0,0.0,0.0,0.4582,0.0,0.0,0.0,0.0,0.0,0.0,0.0,0.0,0.0,0.0,0.7465,0.7911,0.8322,0.8594,0.0,0.0,0.0,0.0,0.8729,0.8444,0.7609,0.7029,0.7059,0.6646,0.6309,0.6205,0.0,0.0,0.551,0.5298,0.5045,0.4533,0.4421,0.4042,0.2779,0.2166,0.176,0.137,0.1173,0.0954,0.0396,0.0355,0.0314,1.1392,0.0,0.0,0.0,0.0,1.0763,1.0729,1.0651,1.0734,1.0599,1.0357,1.0244,0.0,0.0,0.0,0.0,0.0,0.0,1.1521,1.1706,1.1378,1.1223,1.1217,1.1037,1.0999,1.1111,1.1298,1.1378,1.1292,1.0956,1.07,1.055,0.0,0.0,0.0,0.0,1.0024,0.996,0.9809,0.969,0.9647,0.9771,0.9771,0.9733,0.9614,0.9501,0.9392,0.9094,0.8941,0.8861,0.836,0.0,0.0,0.0,0.0,0.0,0.0,0.0,0.0,0.0,0.0,0.0,0.0,0.0,0.0,0.0,0.0,0.0,0.0,0.0,0.5824,0.5981,0.6025,0.0,0.0,0.0,0.0,0.0,0.0,0.0,0.0,0.0,0.9287,0.921,0.9104,0.0,0.0,0.9092,0.891,0.9145,0.9215,0.8939,0.8735,0.0,0.0,0.7904,0.7515,0.7583,0.7493,0.7167,0.6437,0.6287,0.6052,0.5383,0.5249,0.506,0.4478,0.3517,0.2763,0.2368,0.2151,0.1975,0.1679,0.1366,0.0987,1.3673,1.2576,1.1979,1.1774,1.1924,1.1887,1.1818,1.1741,1.1741,1.1625,1.1409,1.1223,1.1298,1.1521,1.1564,0.0,0.0,0.0,1.1892,1.2003,1.1818,1.1669,1.1632,1.1446,1.1372,1.1453,1.1595,1.1626,1.1632,1.1706,1.1595,1.126,0.0,0.0,1.1149,1.0812,1.0588,1.055,1.0368,1.025,1.0261,1.0331,1.0331,1.0255,1.018,1.0105,1.003,0.9695,0.9549,0.9549,0.9127,0.878,0.0,0.0,0.0,0.0,0.0,0.0,0.0,0.0,0.0,0.0,0.0,0.5619,0.0,0.0,0.0,0.0,0.681,0.7062,0.7135,0.7243,0.0,0.0,0.0,0.0,0.0,0.0,0.0,0.8714,0.9463,1.0095,1.0378,1.0278,1.0125,1.0073,0.994,0.9793,0.9666,0.0,0.984,0.9661,0.9502,0.9395,0.9304,0.886,0.8514,0.8522,0.8247,0.7857,0.733,0.7199,0.6937,0.6346,0.6115,0.5984,0.5583,0.4855,0.412,0.3453,0.3119,0.2885,0.2584,0.2099,0.162,1.5825,1.5158,1.3327,1.2658,1.2876,1.279,1.2656,1.251,1.2465,1.2421,1.2311,1.1929,1.2077,1.2526,1.2378,0.0,1.2046,1.204,1.2077,1.2077,1.1898,1.1892,1.204,1.1898,1.1892,1.2077,1.2077,1.2083,1.2077,1.2268,1.2224,1.2077,1.1484,1.1409,1.1706,1.1223,1.1005,1.1149,1.0999,1.0887,1.0893,1.1037,1.1074,1.0887,1.0663,1.0513,1.0331,1.0105,0.9992,0.9992,0.9771,0.9657,0.962,0.0,0.0,0.0,0.0,0.0,0.0,0.0,0.0,0.0,0.0,0.0,0.0,0.0,0.0,0.0,0.7969,0.0,0.8689,0.8361,0.0,0.0,0.0,0.8728,0.9235,0.9604,0.9909,1.014,0.0,0.0,1.0953,1.1158,1.1296,1.1311,1.0923,1.0669,1.0729,1.0659,1.0637,1.0449,1.0059,0.9814,0.9951,0.9669,0.9356,0.9177,0.8835,0.8511,0.8182,0.8079,0.7787,0.7106,0.6979,0.6843,0.6309,0.6129,0.5789,0.4695,0.4179,0.3792,0.3286,0.2871,0.247,1.5998,1.5674,1.498,1.4547,1.4345,1.3666,1.3348,1.3317,1.3158,1.288,1.2526,1.2452,1.2298,1.215,1.2083,1.2114,1.2224,1.2378,1.2519,1.2673,1.2636,1.2643,1.2673,1.2636,1.2636,1.2673,1.2673,1.268,1.2673,1.2599,1.2562,1.268,1.2378,1.2224,1.215,1.2003,1.1892,1.1781,1.1744,1.1632,1.1484,1.1521,1.1521,1.1484,1.1298,1.1223,1.1329,1.0999,1.0812,1.0812,1.0475,1.0218,1.0067,0.962,0.0,0.0,0.0,0.0,0.0,0.0,0.0,0.0,0.0,0.7355,0.7217,0.0,0.7991,0.0,0.8723,0.9366,0.9496,0.9638,0.0,0.0,0.9671,0.9788,1.0227,1.0516,1.068,1.072,1.1243,1.1638,1.1795,1.1861,1.1981,1.2202,1.1556,1.1019,1.0882,1.1055,1.1111,1.095,1.0996,1.1062,1.0942,1.0658,1.0326,1.0047,0.9792,0.9504,0.9049,0.8861,0.8533,0.7917,0.7727,0.7591,0.7228,0.6819,0.6436,0.6081,0.5593,0.502,0.4459,0.4196,0.3916,1.6373,1.6373,1.5713,1.5467,1.5403,1.4468,1.3954,1.3815,1.3703,1.3527,1.3258,1.3185,1.2973,1.2673,1.2599,1.2526,1.2569,1.2673,1.2826,1.301,1.2943,1.2929,1.301,1.2936,1.29,1.29,1.29,1.29,1.29,1.2783,1.2783,1.29,1.2783,1.2709,1.2673,1.2526,1.2372,1.2268,1.2194,1.2046,1.1855,1.1929,1.2003,1.2083,1.1892,1.1892,1.2077,1.1706,1.1446,1.1372,1.1074,1.0887,1.085,1.055,1.0475,0.0,0.0,0.0,0.0,0.0,0.0,0.0,0.0,0.0,0.0,0.0,0.8833,0.8723,0.9433,0.9959,1.0073,1.031,1.0524,1.0617,1.0746,1.0975,1.1234,1.1524,1.1682,1.1684,1.2047,1.2349,1.2475,1.2515,1.257,1.2768,1.2331,1.1877,1.1596,1.1656,1.1687,1.1582,1.1709,1.1747,1.1553,1.131,1.1021,1.0744,1.0491,1.0206,0.9722,0.953,0.921,0.8598,0.8436,0.8344,0.8004,0.7546,0.7154,0.6997,0.6566,0.5887,0.5159,0.4696,0.4307,1.6854,1.709,1.616,1.5964,1.6134,1.5179,1.4542,1.4191,1.4152,1.4101,1.4101,1.3891,1.3717,1.3535,1.3346,1.3119,1.298,1.2973,1.3083,1.3236,1.3053,1.3046,1.3236,1.3046,1.2973,1.2973,1.2973,1.2973,1.2973,1.2929,1.2936,1.2973,1.2929,1.3046,1.3236,1.29,1.268,1.2643,1.2452,1.2305,1.212,1.2342,1.2526,1.2709,1.2489,1.2489,1.268,1.2305,1.204,1.1855,1.1669,1.1632,1.1781,1.1552,1.1589,0.0,1.1626,0.0,0.0,0.0,0.0,0.0,0.0,0.0,0.0,0.9824,0.9948,0.9794,1.0175,1.0508,1.0563,1.0753,1.1028,1.1407,1.1761,1.2045,1.2166,1.2436,1.2621,1.2629,1.2775,1.2897,1.2997,1.3042,1.3042,1.3019,1.2983,1.28,1.2506,1.2298,1.2267,1.2367,1.2274,1.2151,1.1965,1.1778,1.156,1.1247,1.1028,1.0744,1.0231,1.011,0.9856,0.9306,0.9079,0.8945,0.8662,0.8264,0.7891,0.7685,0.7198,0.6542,0.565,0.4973,0.4406,1.7649,1.7602,1.7353,1.6893,1.6248,1.588,1.5358,1.4714,1.4288,1.4101,1.4093,1.3899,1.3754,1.3717,1.3535,1.3419,1.3375,1.3382,1.3419,1.3455,1.3382,1.3419,1.3455,1.3382,1.3382,1.3382,1.3382,1.3382,1.3382,1.3236,1.3236,1.3382,1.3236,1.3346,1.3645,0.0,0.0,0.0,1.2783,1.2746,1.2746,1.3083,1.3302,1.3309,1.298,0.0,1.3083,1.2856,1.2709,1.2673,1.2489,0.0,0.0,0.0,0.0,0.0,0.0,0.0,0.0,0.0,0.0,0.0,1.1215,1.0917,1.0438,1.0827,1.0977,1.0707,1.1088,1.1396,1.1518,1.1728,1.1896,1.2087,1.2336,1.2476,1.2506,1.2652,1.2775,1.2744,1.3028,1.3211,1.3241,1.3346,1.3368,1.3263,1.3241,1.3211,1.3119,1.2928,1.2828,1.2836,1.2713,1.259,1.2475,1.2274,1.205,1.1747,1.1553,1.1303,1.0944,1.0629,1.0358,0.9862,0.9524,0.9326,0.9273,0.8811,0.8283,0.808,0.756,0.6992,0.6271,0.5791,0.5415,1.766,0.0,1.7296,1.6927,0.0,1.6195,1.5781,1.5253,1.4719,1.4569,1.4625,1.4525,1.4433,1.4333,1.4145,1.3956,1.3775,1.3681,1.3601,1.3492,1.3492,1.3492,1.3492,1.3608,1.3645,1.3645,1.3739,1.3775,1.3775,1.3601,1.3528,1.3645,1.3463,1.3455,1.3645,1.3455,1.3229,1.3046,1.3046,1.301,1.29,1.3083,1.3273,1.3346,0.0,0.0,0.0,0.0,0.0,0.0,0.0,0.0,0.0,0.0,0.0,1.2709,1.231,1.2017,1.1991,1.1842,1.1729,1.1648,1.1799,1.1594,1.0942,1.1481,1.1662,1.1288,1.1592,1.1904,1.2041,1.2151,1.2243,1.2436,1.2529,1.2629,1.2683,1.2775,1.2867,1.3028,1.3211,1.3333,1.3376,1.3459,1.348,1.3407,1.3407,1.3376,1.3376,1.3164,1.3011,1.3011,1.2958,1.2897,1.2805,1.2705,1.2574,1.232,1.2012,1.1699,1.1349,1.0915,1.0446,1.0077,0.9777,0.9571,0.943,0.9012,0.8604,0.8344,0.7796,0.7245,0.6824,0.6273,0.5756,1.7519,1.7681,1.7054,1.6757,1.6768,1.6317,1.5953,1.5642,0.0,0.0,0.0,1.5196,1.5106,1.4935,1.4756,1.4489,1.4165,1.4008,1.3855,1.3637,1.3681,1.3674,1.3681,1.3826,1.3899,1.3935,1.4065,1.4165,1.4201,1.4036,1.3899,1.3899,1.371,1.3564,1.3499,1.3382,1.3302,1.3273,1.3273,1.32,1.301,1.3083,1.3193,1.3339,1.3375,1.3419,1.3535,1.3419,1.3302,1.3119,1.3083,1.3083,1.3112,1.3156,1.3273,1.3448,1.3093,1.2769,1.251,1.2311,1.2098,1.1892,1.2203,1.2134,1.1455,1.2054,1.2228,1.1722,1.2018,1.2251,1.2313,1.2297,1.2375,1.259,1.2621,1.2683,1.2805,1.2875,1.2997,1.3241,1.3302,1.3385,1.3519,1.3571,1.3571,1.3571,1.3571,1.3532,1.348,1.3277,1.3133,1.3133,1.3103,1.3072,1.3042,1.2951,1.2899,1.2668,1.2273,1.1844,1.1468,1.0995,1.0516,1.0148,0.9921,0.9712,0.9537,0.9238,0.8905,0.8704,0.8078,0.7528,0.7327,0.6642,0.6041,1.79,1.7917,1.753,1.7197,1.6847,1.6319,1.5883,1.5501,1.5265,1.5169,1.5196,1.5196,1.5204,1.5169,1.4935,1.4756,1.4533,1.4497,1.4425,0.0,1.4397,1.4389,1.4281,1.4281,1.4317,1.4325,1.4353,1.4425,1.4497,1.4497,1.4433,1.4325,1.4101,1.3848,1.3572,1.3811,1.3811,1.3455,1.3463,1.3455,1.3419,1.3775,1.3949,1.3985,1.3985,1.3884,1.3754,1.3891,1.3985,1.3912,1.379,1.3746,1.392,1.3448,1.3273,1.3492,1.3411,1.3368,1.3317,1.3596,1.3514,1.2978,1.2907,1.2701,1.221,1.2663,1.2745,1.2126,1.2428,1.2593,1.2352,1.2305,1.2428,1.2705,1.2775,1.2836,1.2958,1.3119,1.3241,1.3302,1.3407,1.3549,1.367,1.3731,1.3791,1.3851,1.3791,1.37,1.358,1.348,1.345,1.342,1.342,1.3368,1.3268,1.2948,1.2789,1.2571,1.215,1.1732,1.1464,1.1037,1.0649,1.0294,0.9939,0.9792,0.9887,0.9771,0.9377,0.8992,0.8625,0.8303,0.777,0.7187,0.6701,1.792,1.7715,1.7583,1.7132,1.653,1.6107,1.5816,1.5655,1.5576,1.5541,1.5541,1.5532,1.5541,1.5505,1.5328,1.5106,1.4927,1.482,1.4677,1.4533,1.4569,1.4569,1.4497,1.4605,1.4685,1.4685,1.4649,1.4729,1.4756,1.4569,1.4461,1.4389,1.4209,1.3992,1.3848,1.3891,1.3863,1.3688,1.3645,1.3601,1.3528,1.3674,1.3819,1.3928,1.3928,1.3928,1.3964,1.4057,1.4029,1.3928,1.3964,1.3884,1.3775,1.3601,1.3535,1.3484,1.3439,1.3297,1.312,1.3146,1.2976,1.2594,1.262,1.2519,1.2334,1.2704,1.2721,1.2274,1.2523,1.2641,1.2575,1.2498,1.259,1.2897,1.2844,1.2897,1.3119,1.3241,1.3333,1.3407,1.3459,1.3541,1.361,1.3739,1.383,1.389,1.389,1.386,1.3791,1.3761,1.37,1.3541,1.358,1.358,1.3459,1.3361,1.3212,1.3054,1.2635,1.2171,1.1769,1.1229,1.0679,1.024,0.9882,0.9699,0.9761,0.9553,0.9301,0.9099,0.8775,0.8408,0.802,0.7515,0.6928,1.7729,1.7427,1.7272,1.6758,1.6046,1.5774,1.5691,1.5691,1.5655,1.5647,1.5691,1.5761,1.5805,1.577,1.5611,1.5461,1.5248,1.5114,1.4927,1.4748,1.474,1.474,1.474,1.4892,1.4971,1.4979,1.4963,1.4971,1.4935,1.4713,1.4569,1.4497,1.4281,1.4173,1.4165,1.4,1.3899,1.379,1.3826,1.3754,1.3492,1.3492,1.3572,1.3717,1.379,1.3863,1.3956,1.4029,1.3964,1.379,1.3884,1.384,1.3637,1.3674,1.3651,1.3483,1.3368,1.3251,1.2972,1.2604,1.2391,1.236,1.2352,1.2398,1.2421,1.2609,1.2664,1.2484,1.2567,1.2721,1.2805,1.2713,1.2744,1.2958,1.2897,1.2997,1.3241,1.3333,1.3376,1.348,1.348,1.3511,1.361,1.37,1.3799,1.386,1.401,1.41,1.404,1.401,1.395,1.3761,1.3731,1.3761,1.3631,1.3617,1.3574,1.3472,1.3028,1.2436,1.1878,1.1239,1.0654,1.0143,0.9814,0.9632,0.948,0.9408,0.9258,0.9088,0.8831,0.8493,0.8141,0.7628,0.7036,1.7521,1.7145,1.6646,1.5968,1.5358,1.5284,1.5275,1.5275,1.5275,1.524,1.5311,1.5655,1.5805,1.5805,1.577,1.5655,1.547,1.5461,1.5319,1.5125,1.5133,1.5125,1.5125,1.5169,1.5169,1.5169,1.5169,1.5133,1.5133,1.5098,1.4999,1.4828,1.4541,1.4353,1.4353,1.4353,1.4181,1.379,1.4,1.3884,1.3528,1.3492,1.3528,1.3528,1.3725,1.3717,1.3637,1.3754,1.3826,1.379,1.3645,1.3702,1.3949,1.3702,1.3468,1.3329,1.3402,1.3485,1.3467,1.3048,1.2845,1.3108,1.2789,1.259,1.2705,1.2653,1.2661,1.2713,1.2744,1.2836,1.2958,1.2836,1.2836,1.2981,1.2989,1.308,1.3241,1.3407,1.348,1.348,1.348,1.3593,1.3821,1.3821,1.3851,1.398,1.4169,1.4297,1.4139,1.4139,1.4207,1.401,1.398,1.398,1.3885,1.3632,1.3532,1.3299,1.2911,1.2404,1.1768,1.1326,1.0902,1.015,0.9844,0.9732,0.9614,0.9569,0.9465,0.9211,0.8975,0.8718,0.8135,0.7681,0.7252,1.6679,1.6363,1.613,1.5691,1.5237,1.5196,1.5196,1.5196,1.5196,1.5196,1.5204,1.539,1.5532,1.5611,1.5611,1.5576,1.5505,1.562,1.5505,1.524,1.5426,1.5426,1.524,1.5311,1.5311,1.5204,1.507,1.4999,1.5007,1.4883,1.482,1.4713,1.4605,1.4497,1.4482,1.4123,1.3945,1.3985,1.3617,1.3349,1.3264,1.3404,1.3572,1.3681,1.3761,1.3826,1.3848,1.392,1.3928,1.3826,1.3819,1.3721,1.3456,1.3491,1.3349,1.3028,1.3054,1.3152,1.3306,1.2909,1.2743,1.2876,1.2709,1.2621,1.2683,1.2629,1.2691,1.2867,1.2867,1.2836,1.2958,1.2897,1.2905,1.3089,1.2989,1.2928,1.3111,1.3164,1.3246,1.3346,1.3385,1.3467,1.367,1.3761,1.389,1.4109,1.4237,1.4198,1.4267,1.4297,1.4297,1.4297,1.4237,1.4109,1.4022,1.3984,1.3838,1.3685,1.3471,1.2989,1.2138,1.1757,1.1339,1.0288,1.0022,0.9844,0.9614,0.9543,0.9413,0.9211,0.8916,0.8606,0.8168,0.7836,0.7456,1.6004,1.57,1.5557,1.5279,1.4991,1.4991,1.4991,1.4955,1.4911,1.4919,1.4991,1.4991,1.5062,1.5248,1.5355,1.5426,1.5417,1.5439,1.5307,1.5144,1.5263,1.522,1.5125,1.5256,1.5248,1.5141,1.4971,1.4864,1.4828,1.4685,1.4641,1.4649,1.4613,1.4522,1.4427,1.3979,1.3729,1.3704,1.3353,1.3103,1.2958,1.3279,1.3528,1.3598,1.3673,1.3745,1.3777,1.3784,1.3703,1.345,1.3577,1.3464,1.2996,1.312,1.3074,1.2743,1.2647,1.2719,1.2949,1.2742,1.2629,1.2652,1.2621,1.2621,1.2652,1.2621,1.2683,1.2828,1.2836,1.2867,1.305,1.2958,1.2958,1.3119,1.2928,1.2844,1.2928,1.3019,1.3141,1.3272,1.3354,1.3376,1.3519,1.3761,1.401,1.4118,1.4169,1.4169,1.4387,1.4387,1.4366,1.4407,1.4275,1.4141,1.4133,1.4181,1.4237,1.41,1.3918,1.3459,1.2634,1.2228,1.1696,1.0645,1.0309,0.9999,0.981,0.9621,0.9387,0.9185,0.8896,0.8573,0.8295,0.7969,0.7649,1.5824,1.5421,1.4872,1.4601,1.4469,1.4433,1.4425,1.4461,1.4274,1.4274,1.4461,1.4461,1.4497,1.4677,1.4991,1.5204,1.5163,1.4735,1.4663,1.4811,1.4458,1.4455,1.4892,1.4908,1.4927,1.4851,1.4856,1.4792,1.4605,1.4605,1.4713,1.4872,1.4577,1.4348,1.4248,1.4123,1.3686,1.3119,1.3416,1.334,1.2716,1.317,1.3331,1.3147,1.3338,1.3396,1.3125,1.3073,1.2941,1.2584,1.264,1.2679,1.2751,1.2635,1.2539,1.2495,1.2279,1.2282,1.2576,1.2614,1.2652,1.2752,1.2652,1.2652,1.2744,1.2652,1.2629,1.2621,1.2752,1.2905,1.315,1.305,1.292,1.2867,1.2805,1.2805,1.2805,1.3028,1.3272,1.3302,1.3385,1.3459,1.3511,1.3959,1.4019,1.4019,1.4198,1.4369,1.4273,1.438,1.4378,1.4239,1.4037,1.3874,1.4316,1.4266,1.4225,1.4237,1.4007,1.3655,1.2897,1.2202,1.1597,1.1013,1.0558,1.0231,1.0017,0.9758,0.9491,0.9237,0.8982,0.8692,0.8448,0.8109,0.7815,1.4723,1.4598,1.4364,1.4238,1.4209,1.4209,1.4201,1.4201,1.4129,1.4129,1.4201,1.4201,1.4238,1.4274,1.4418,1.4597,1.4788,1.4528,1.4327,1.4217,1.4189,1.4125,1.4068,1.4258,1.4299,1.4226,1.4458,1.4569,1.4605,1.4605,1.4641,1.4685,1.4613,1.4498,1.4395,1.401,1.3587,1.332,1.3142,1.278,1.2543,1.295,1.3126,1.3031,1.3323,1.3338,1.3016,1.3009,1.2862,1.2541,1.2526,1.2423,1.2285,1.2118,1.2116,1.2217,1.2158,1.2182,1.2375,1.2398,1.2467,1.2652,1.2621,1.2629,1.2652,1.2621,1.2621,1.2713,1.2744,1.2836,1.2836,1.2867,1.2867,1.2797,1.2713,1.2683,1.2691,1.2783,1.2897,1.2989,1.3202,1.3407,1.3489,1.367,1.3799,1.3799,1.386,1.3865,1.3882,1.4039,1.4111,1.4021,1.3762,1.3731,1.4412,1.4123,1.3983,1.4189,1.4147,1.3613,1.2972,1.2468,1.19,1.1111,1.0683,1.0411,1.0172,0.9732,0.9465,0.9263,0.8982,0.8771,0.858,0.8242,0.8002,1.4101,1.4101,1.4101,1.4057,1.4,1.3956,1.392,1.3884,1.3768,1.3768,1.3876,1.392,1.3956,1.3992,1.4,1.4101,1.4314,1.4186,1.4033,1.3913,1.396,1.389,1.3789,1.3881,1.3874,1.3801,1.4073,1.4344,1.4525,1.4569,1.4605,1.4605,1.4569,1.447,1.4289,1.3889,1.3552,1.318,1.2809,1.2599,1.2426,1.2789,1.3009,1.306,1.3323,1.3287,1.2877,1.2848,1.2643,1.2284,1.2211,1.2109,1.1889,1.1772,1.1817,1.1965,1.2003,1.2089,1.2212,1.2212,1.2305,1.2406,1.2436,1.2444,1.2436,1.2436,1.2498,1.256,1.256,1.2529,1.2467,1.2529,1.259,1.2621,1.2621,1.259,1.259,1.2652,1.2752,1.2867,1.305,1.3224,1.3338,1.339,1.345,1.3558,1.3434,1.3388,1.3386,1.3467,1.3608,1.3586,1.3272,1.3449,1.3897,1.3814,1.3857,1.4093,1.4121,1.3602,1.3056,1.2623,1.2105,1.13,1.0812,1.059,1.0223,0.9732,0.9446,0.9237,0.9035,0.8824,0.8613,0.8401,0.8135,1.4057,1.4021,1.4057,1.392,1.3717,1.3572,1.3492,1.3455,1.3156,1.3229,1.3492,1.3492,1.3564,1.3754,1.3754,1.379,1.3774,1.3653,1.3678,1.3894,1.3627,1.3604,1.3838,1.3588,1.3492,1.3496,1.3727,1.4003,1.4252,1.4383,1.4442,1.451,1.4378,1.4194,1.389,1.3777,1.3302,1.2658,1.2704,1.2609,1.2164,1.2553,1.2858,1.2966,1.3229,1.3055,1.2514,1.2507,1.2284,1.1745,1.165,1.1606,1.1643,1.163,1.1685,1.1771,1.1809,1.1895,1.2058,1.2058,1.2027,1.2096,1.2089,1.2089,1.212,1.212,1.2127,1.2189,1.2158,1.2127,1.2127,1.2158,1.222,1.2274,1.2436,1.2529,1.259,1.2713,1.2836,1.295,1.2989,1.2989,1.3042,1.3186,1.3246,1.3174,1.3135,1.3084,1.2914,1.2885,1.2844,1.2863,1.2819,1.3002,1.3264,1.352,1.3759,1.3987,1.3909,1.3623,1.2961,1.2483,1.2047,1.1344,1.0854,1.059,1.0172,0.9732,0.9446,0.9237,0.9061,0.885,0.8606,0.8395,0.8182,1.3258,1.3266,1.3266,1.3266,1.3193,1.3119,1.309,1.3083,1.2936,1.2973,1.3083,1.3083,1.3127,1.32,1.3309,1.3382,1.3375,1.3295,1.3276,1.3152,1.2807,1.2671,1.2694,1.2605,1.2561,1.2684,1.2782,1.2929,1.3216,1.3544,1.3706,1.3706,1.3807,1.3789,1.3673,1.352,1.3023,1.2295,1.2393,1.2224,1.172,1.1869,1.2075,1.2281,1.2394,1.2272,1.1869,1.2234,1.2197,1.1628,1.1591,1.1591,1.1591,1.1591,1.1622,1.1646,1.1522,1.1522,1.1677,1.1654,1.1622,1.1716,1.1755,1.1817,1.1872,1.1895,1.1934,1.2065,1.2096,1.2058,1.1934,1.2027,1.2096,1.2158,1.222,1.2313,1.2398,1.256,1.2713,1.2828,1.2867,1.2897,1.2989,1.3072,1.3064,1.3083,1.2949,1.2741,1.2555,1.2413,1.236,1.2264,1.2333,1.2528,1.2914,1.3082,1.3168,1.3444,1.3488,1.3304,1.2755,1.2334,1.1892,1.1428,1.0944,1.0539,1.012,0.9732,0.9446,0.9237,0.9061,0.8844,0.86,0.8388,0.8182,1.29,1.29,1.282,1.279,1.279,1.2716,1.2643,1.2599,1.2643,1.2673,1.2673,1.2746,1.2826,1.2936,1.3046,1.309,1.3083,1.301,1.2878,1.2669,1.2444,1.2259,1.2141,1.1905,1.1934,1.2102,1.2164,1.2353,1.2689,1.3121,1.3331,1.3262,1.3324,1.3334,1.3313,1.3137,1.2691,1.2186,1.2108,1.1916,1.1596,1.1514,1.1628,1.19,1.1983,1.1755,1.1398,1.1843,1.1905,1.1512,1.1435,1.1404,1.1404,1.1404,1.1404,1.1404,1.131,1.1279,1.1373,1.1303,1.1279,1.1373,1.1404,1.1435,1.1522,1.1553,1.1677,1.1778,1.1879,1.184,1.1778,1.1848,1.191,1.1817,1.1996,1.212,1.2243,1.2344,1.2436,1.249,1.2521,1.259,1.2652,1.2736,1.2702,1.2701,1.2501,1.2167,1.1956,1.1785,1.1679,1.1655,1.176,1.2102,1.2648,1.2666,1.2571,1.2811,1.305,1.2742,1.2326,1.2088,1.1751,1.1213,1.0726,1.0514,1.0128,0.9681,0.9309,0.9185,0.9061,0.8738,0.8501,0.8368,0.8189,1.2826,1.2826,1.2636,1.2526,1.2489,1.2342,1.2187,1.2077,1.2187,1.2268,1.2305,1.2415,1.2599,1.2783,1.2705,1.2734,1.2806,1.2549,1.2425,1.2318,1.2235,1.2107,1.1971,1.1612,1.1491,1.1619,1.1745,1.2045,1.2296,1.2791,1.32,1.2825,1.2738,1.286,1.2742,1.2635,1.2302,1.1931,1.1808,1.1659,1.1374,1.1367,1.1419,1.1594,1.1688,1.1457,1.1041,1.1178,1.1302,1.1133,1.116,1.116,1.1129,1.1097,1.109,1.1122,1.1097,1.1066,1.1059,1.1059,1.1059,1.1059,1.1059,1.1097,1.1115,1.1209,1.1303,1.1365,1.1498,1.1591,1.156,1.1622,1.1567,1.1428,1.1747,1.1996,1.2065,1.2127,1.2158,1.2127,1.2096,1.2127,1.2174,1.2251,1.2125,1.1972,1.1815,1.1543,1.1277,1.1147,1.0969,1.106,1.1284,1.1605,1.2089,1.2172,1.2052,1.2132,1.2351,1.2156,1.1951,1.1768,1.1499,1.0975,1.0573,1.0368,1.0102,0.9629,0.9335,0.9211,0.8975,0.8633,0.8454,0.8321,0.8162,1.215,1.2003,1.1966,1.1929,1.1929,1.1898,1.1818,1.1781,1.1818,1.1855,1.1855,1.1892,1.2003,1.2027,1.1982,1.2055,1.2105,1.1806,1.1671,1.1713,1.1225,1.1115,1.1159,1.1067,1.0873,1.0766,1.0822,1.0757,1.0791,1.1397,1.1655,1.1681,1.1669,1.1729,1.192,1.1778,1.1453,1.123,1.1358,1.1135,1.0708,1.0656,1.0541,1.0471,1.0549,1.0477,1.029,1.0348,1.0673,1.108,1.1097,1.1097,1.1066,1.094,1.0902,1.0996,1.0846,1.0776,1.0839,1.0782,1.0751,1.0751,1.0744,1.0782,1.087,1.0895,1.1028,1.1122,1.131,1.1373,1.1397,1.1498,1.1466,1.1373,1.156,1.1747,1.1872,1.2003,1.2096,1.2096,1.2065,1.2027,1.1989,1.1905,1.1773,1.169,1.145,1.1133,1.0891,1.0787,1.0721,1.0767,1.0946,1.1204,1.1431,1.1548,1.1577,1.1527,1.1582,1.1536,1.1444,1.1427,1.106,1.0632,1.0368,1.0162,0.9921,0.9577,0.942,0.9185,0.8923,0.8613,0.8454,0.8301,0.8141,1.1818,1.1669,1.1515,1.144,1.1446,1.1335,1.126,1.126,1.1372,1.1446,1.1446,1.1558,1.1564,1.1576,1.1657,1.17,1.1704,1.1397,1.1407,1.1488,1.0924,1.0632,1.0597,1.0523,1.0358,1.0193,1.0174,1.0173,1.0203,1.0544,1.0805,1.0913,1.0816,1.093,1.1081,1.0974,1.0799,1.0646,1.0767,1.0625,1.0219,1.018,1.0085,0.9958,0.9989,1.0021,1.0021,0.9958,1.0212,1.0618,1.0688,1.0681,1.0744,1.0555,1.0523,1.0618,1.0428,1.0396,1.0428,1.0403,1.0396,1.0466,1.0466,1.0555,1.0713,1.0776,1.087,1.0965,1.1115,1.1216,1.1216,1.1247,1.1247,1.1216,1.1247,1.1334,1.1498,1.1591,1.1685,1.1747,1.1771,1.1742,1.1699,1.1541,1.1366,1.1178,1.098,1.0748,1.0556,1.0548,1.053,1.0558,1.0649,1.0864,1.1015,1.1102,1.1145,1.1104,1.1045,1.0968,1.1019,1.1028,1.0782,1.0445,1.0187,0.9947,0.9732,0.9498,0.9271,0.9035,0.8824,0.8613,0.8401,0.8221,0.8062,1.1632,1.1552,1.118,1.1037,1.0999,1.085,1.0738,1.0625,1.085,1.0975,1.0983,1.1131,1.107,1.1255,1.1107,1.1304,1.1144,1.0879,1.0963,1.0896,1.0551,1.0233,0.9963,1.0047,0.9983,0.9881,0.9927,0.9931,0.9982,1.0282,1.0427,1.0323,1.0315,1.0327,1.0315,1.0245,1.0212,1.0206,1.0232,1.0149,0.9951,0.9888,0.9824,0.9798,0.983,0.9862,0.9856,0.9824,0.9894,1.0199,1.0079,1.0142,1.0238,1.0079,1.0015,1.0009,1.0015,0.9951,1.0015,1.0047,1.0079,1.0244,1.0276,1.0339,1.0491,1.0618,1.0713,1.0713,1.0965,1.1059,1.109,1.0965,1.0965,1.1028,1.0933,1.0933,1.0965,1.1066,1.1153,1.124,1.1303,1.1245,1.1157,1.1115,1.101,1.0671,1.0473,1.0287,1.0177,1.019,1.0213,1.0314,1.0399,1.0512,1.0613,1.069,1.0714,1.0722,1.0643,1.0587,1.0613,1.0587,1.0468,1.0257,0.9973,0.9758,0.9621,0.9387,0.9113,0.8929,0.8745,0.8507,0.8268,0.8115,0.7928,1.1149,1.0999,1.0743,1.0625,1.0625,1.0588,1.0519,1.0475,1.04,1.0304,1.0163,1.0045,1.0008,0.9997,0.9946,0.9807,0.9969,0.9663,0.9298,0.9203,0.9488,0.9225,0.9125,0.945,0.9638,0.9522,0.9546,0.9485,0.9365,0.9396,0.9466,0.9593,0.9512,0.9498,0.9777,0.9641,0.9588,0.9652,0.9684,0.9684,0.962,0.953,0.9504,0.9548,0.958,0.9536,0.9466,0.9402,0.9498,0.9658,0.9856,0.9951,0.9983,0.9754,0.969,0.9728,0.969,0.969,0.9824,0.9894,1.0021,1.0047,1.0047,1.0079,1.0117,1.0301,1.0396,1.046,1.0681,1.087,1.0965,1.1028,1.0933,1.0839,1.0776,1.0674,1.0586,1.0846,1.1059,1.1122,1.1202,1.1188,1.0903,1.0777,1.0558,1.0197,0.9975,0.9802,0.9788,0.9818,0.9895,1.0007,1.0128,1.0257,1.0316,1.0368,1.0385,1.036,1.0283,1.0172,1.0205,1.0257,1.0154,0.9991,0.9725,0.9569,0.9439,0.9237,0.8989,0.8824,0.8639,0.8427,0.8215,0.8008,0.7919,1.0738,1.0625,1.0331,1.0293,1.0293,1.0067,0.9922,0.9884,0.9722,0.9596,0.9484,0.9369,0.9327,0.9312,0.9249,0.9291,0.9249,0.9036,0.8795,0.8696,0.8772,0.8708,0.8516,0.8731,0.8887,0.8781,0.885,0.8748,0.8657,0.8668,0.8777,0.8942,0.882,0.8961,0.9226,0.9118,0.9157,0.9236,0.9268,0.9268,0.9242,0.921,0.9177,0.9253,0.9285,0.9215,0.9177,0.9145,0.921,0.93,0.9428,0.9594,0.9626,0.9428,0.937,0.937,0.9338,0.9306,0.944,0.9504,0.9594,0.9786,0.9754,0.9856,0.9951,1.011,1.0142,1.018,1.0301,1.0491,1.0555,1.0586,1.0523,1.0466,1.0428,1.0333,1.0269,1.0491,1.0713,1.0744,1.0776,1.0698,1.0565,1.037,1.0194,0.9887,0.9608,0.9442,0.9494,0.9524,0.9603,0.9706,0.9862,0.9966,1.0058,1.0084,1.0076,1.0051,0.9999,0.9862,0.9784,0.9836,0.9888,0.9732,0.9577,0.9394,0.9237,0.9035,0.8831,0.856,0.8374,0.8295,0.8129,0.7922,0.788,1.04,1.0368,0.996,0.9916,0.9954,0.9501,0.9279,0.9241,0.9003,0.8886,0.8813,0.8768,0.8696,0.8781,0.8869,0.8892,0.8759,0.8585,0.8269,0.815,0.8133,0.8087,0.8018,0.8001,0.7941,0.7965,0.8139,0.8144,0.8139,0.8107,0.8225,0.836,0.8392,0.8463,0.8619,0.8679,0.87,0.8791,0.8791,0.8856,0.8888,0.8856,0.8856,0.8856,0.9017,0.892,0.8888,0.8888,0.892,0.8894,0.8861,0.8952,0.9049,0.9087,0.899,0.8985,0.899,0.9022,0.9055,0.9049,0.9172,0.9422,0.9422,0.9524,0.9722,0.9824,0.9856,0.9951,1.0015,1.0085,1.0021,1.011,1.0079,1.0053,1.0021,0.9983,0.9951,1.0079,1.0168,1.0295,1.0291,1.023,1.0067,0.9858,0.9721,0.9556,0.9286,0.9133,0.9185,0.9256,0.9342,0.9439,0.9595,0.9673,0.9758,0.9721,0.974,0.9766,0.9714,0.9603,0.9472,0.9524,0.9603,0.9603,0.9446,0.9271,0.9061,0.8877,0.8639,0.8321,0.8162,0.8109,0.7975,0.7815,0.7845,0.9997,0.996,0.9544,0.943,0.9392,0.916,0.9003,0.9003,0.8627,0.8322,0.801,0.7847,0.7794,0.7788,0.7755,0.7786,0.7768,0.7593,0.7375,0.7324,0.7368,0.7346,0.7207,0.7288,0.716,0.7019,0.7297,0.7624,0.7722,0.7684,0.7689,0.7792,0.7829,0.7927,0.8084,0.8149,0.8182,0.8242,0.8274,0.8371,0.8506,0.8468,0.8398,0.8431,0.8727,0.8694,0.8463,0.8506,0.8576,0.8576,0.8312,0.8306,0.8436,0.8662,0.8765,0.877,0.877,0.8765,0.8765,0.8888,0.8985,0.9081,0.9081,0.9081,0.921,0.9338,0.9498,0.9626,0.9817,0.9983,1.0021,0.9926,0.9983,0.9983,0.9919,0.9817,0.9652,0.9652,0.9722,0.9811,0.9787,0.9707,0.9562,0.9363,0.9149,0.9056,0.8911,0.8811,0.885,0.8975,0.9106,0.9237,0.9387,0.9439,0.9465,0.9394,0.9349,0.9446,0.9446,0.9446,0.9342,0.929,0.929,0.9297,0.9271,0.9113,0.8929,0.8745,0.856,0.8321,0.8168,0.7981,0.7869,0.7779,0.781,0.9614,0.9382,0.9122,0.9008,0.8937,0.8551,0.8389,0.8318,0.7978,0.761,0.736,0.7226,0.7185,0.7186,0.7171,0.7193,0.7093,0.6923,0.682,0.6873,0.6837,0.6762,0.6576,0.6641,0.6537,0.6441,0.6597,0.6868,0.7167,0.7097,0.7171,0.7241,0.7274,0.74,0.7563,0.7689,0.7759,0.7824,0.7922,0.8052,0.8214,0.8112,0.8112,0.8209,0.8306,0.8306,0.8209,0.8182,0.8252,0.8214,0.8084,0.8052,0.8149,0.8247,0.8376,0.8376,0.8414,0.8409,0.8376,0.8468,0.8538,0.8738,0.8738,0.8861,0.8952,0.9113,0.9145,0.9242,0.9338,0.9498,0.9466,0.9504,0.9498,0.9472,0.9504,0.937,0.921,0.921,0.9242,0.9288,0.9156,0.9101,0.9107,0.8884,0.8618,0.8522,0.849,0.8493,0.8487,0.8613,0.8738,0.889,0.9021,0.9099,0.9126,0.9106,0.9054,0.9133,0.9152,0.9178,0.9185,0.9133,0.9061,0.9035,0.8962,0.8883,0.8798,0.8606,0.8448,0.8295,0.8029,0.7842,0.7783,0.7751,0.7773,0.9311,0.8927,0.8742,0.8623,0.8513,0.7974,0.7744,0.7668,0.7292,0.6996,0.6776,0.6714,0.6672,0.6682,0.6666,0.6673,0.6693,0.6462,0.6452,0.6485,0.6335,0.6295,0.6183,0.6057,0.589,0.5842,0.5777,0.5881,0.6511,0.6576,0.6642,0.6712,0.6745,0.6876,0.7106,0.7265,0.7396,0.7531,0.7666,0.7792,0.7889,0.7922,0.7954,0.7959,0.7922,0.7922,0.7787,0.7792,0.7824,0.7792,0.7759,0.7759,0.7792,0.7787,0.7787,0.7819,0.7922,0.7982,0.8014,0.8052,0.8182,0.8382,0.8414,0.8538,0.87,0.8727,0.8823,0.8823,0.8888,0.892,0.8958,0.892,0.8926,0.892,0.8926,0.8856,0.8765,0.8732,0.8662,0.8649,0.8484,0.8421,0.8421,0.8167,0.7831,0.7921,0.7904,0.8,0.8029,0.8156,0.8282,0.8461,0.8626,0.8738,0.8791,0.8817,0.8817,0.8896,0.8896,0.887,0.8923,0.8949,0.885,0.8718,0.8672,0.8593,0.8501,0.8415,0.8235,0.8023,0.7809,0.767,0.7649,0.7629,0.7611,0.9089,0.8699,0.8513,0.8327,0.8102,0.7676,0.7518,0.7403,0.6868,0.656,0.6367,0.6157,0.6079,0.603,0.5971,0.597,0.5952,0.584,0.5754,0.5878,0.5702,0.5581,0.5475,0.5474,0.5252,0.5175,0.5143,0.5587,0.5947,0.5984,0.6115,0.6247,0.6313,0.6412,0.6642,0.6806,0.6843,0.6975,0.7012,0.7204,0.7493,0.7661,0.7661,0.7694,0.7694,0.7563,0.7363,0.7335,0.7335,0.7269,0.7138,0.7138,0.7204,0.7106,0.7045,0.7204,0.7563,0.7982,0.7917,0.7884,0.7917,0.8019,0.8052,0.8084,0.8214,0.8306,0.8366,0.8301,0.8436,0.8538,0.8576,0.8538,0.8576,0.8544,0.8538,0.8436,0.8339,0.8312,0.8242,0.7981,0.788,0.7742,0.7687,0.7341,0.7095,0.722,0.7349,0.7473,0.7595,0.7729,0.7889,0.807,0.8229,0.8342,0.8368,0.8395,0.8448,0.8547,0.8527,0.8501,0.858,0.8606,0.8533,0.8427,0.8381,0.8301,0.8235,0.8103,0.7949,0.7815,0.7649,0.7568,0.7515,0.7488,0.748,0.8708,0.8327,0.7906,0.7599,0.7365,0.6826,0.6595,0.6518,0.6215,0.5986,0.5912,0.5792,0.571,0.5641,0.552,0.5416,0.5395,0.5296,0.5272,0.5252,0.5157,0.5021,0.49,0.4733,0.4498,0.4558,0.4522,0.4625,0.5054,0.5385,0.5554,0.5719,0.5818,0.5914,0.6145,0.6313,0.6449,0.6515,0.6613,0.6773,0.6999,0.7101,0.7171,0.7237,0.7241,0.7106,0.6975,0.6905,0.6843,0.6773,0.6745,0.6811,0.6909,0.6909,0.6913,0.6946,0.7176,0.7339,0.7372,0.7405,0.7531,0.7657,0.7722,0.7819,0.7949,0.8014,0.8047,0.8079,0.8149,0.8182,0.8214,0.8214,0.8214,0.8214,0.8149,0.8019,0.7884,0.7917,0.7804,0.7505,0.7264,0.7188,0.7083,0.6866,0.6721,0.6839,0.6954,0.7068,0.7219,0.7375,0.7542,0.7676,0.7836,0.7943,0.7916,0.7916,0.7937,0.799,0.7943,0.7969,0.8162,0.8189,0.8162,0.8162,0.8195,0.8109,0.7975,0.7887,0.783,0.7678,0.7547,0.7474,0.7432,0.7439,0.7492,0.8284,0.791,0.7411,0.7065,0.6788,0.6173,0.5899,0.5822,0.5553,0.5401,0.5365,0.5323,0.5227,0.5185,0.4968,0.4855,0.4923,0.4862,0.4861,0.4767,0.4664,0.4588,0.4451,0.4168,0.3991,0.4092,0.3892,0.3992,0.4192,0.4489,0.4824,0.5193,0.5322,0.5418,0.555,0.5749,0.5914,0.6079,0.6218,0.6383,0.6544,0.6572,0.6675,0.6712,0.6745,0.6679,0.6576,0.6511,0.6379,0.635,0.6416,0.6449,0.6482,0.6515,0.6548,0.6581,0.6679,0.6778,0.6811,0.6909,0.704,0.7237,0.7363,0.7428,0.7591,0.7727,0.7727,0.7661,0.7661,0.7694,0.7727,0.7694,0.7661,0.7661,0.7661,0.7531,0.7433,0.7428,0.7386,0.721,0.6934,0.67,0.659,0.6429,0.6388,0.6475,0.6566,0.6668,0.6793,0.695,0.7085,0.7219,0.7354,0.7461,0.7434,0.7434,0.7461,0.7482,0.7408,0.7494,0.7708,0.7815,0.7842,0.7875,0.7928,0.7794,0.7601,0.7647,0.7693,0.7581,0.7472,0.7417,0.7384,0.7408,0.7415,0.7748,0.7518,0.7296,0.6949,0.6563,0.6093,0.5783,0.5506,0.5198,0.4929,0.4779,0.4574,0.4518,0.4457,0.4351,0.4315,0.4397,0.4323,0.4323,0.4332,0.4275,0.4163,0.3989,0.3741,0.3577,0.3515,0.3399,0.3426,0.3529,0.3699,0.4131,0.4558,0.4758,0.4957,0.509,0.5219,0.5418,0.5583,0.5752,0.5987,0.6148,0.621,0.628,0.635,0.6317,0.6247,0.621,0.605,0.5954,0.5888,0.5958,0.602,0.6053,0.6086,0.6152,0.6152,0.6251,0.6317,0.635,0.6618,0.6848,0.6946,0.6979,0.704,0.7138,0.704,0.7012,0.7073,0.7171,0.7077,0.7045,0.6979,0.7106,0.7073,0.7106,0.704,0.6942,0.6942,0.6896,0.6804,0.6614,0.6305,0.6072,0.5914,0.5972,0.6093,0.6101,0.6168,0.625,0.6381,0.6571,0.6707,0.6847,0.6928,0.6928,0.6923,0.6912,0.6972,0.695,0.709,0.7311,0.7392,0.744,0.7467,0.7467,0.7338,0.729,0.7378,0.7444,0.7442,0.7385,0.7314,0.7373,0.743,0.7374,0.7365,0.6911,0.644,0.6128,0.5935,0.5398,0.5046,0.4888,0.4693,0.4504,0.4309,0.4054,0.3908,0.3861,0.3734,0.3686,0.3725,0.3602,0.3616,0.3567,0.352,0.3434,0.331,0.3234,0.3093,0.302,0.2954,0.2924,0.3065,0.3125,0.3297,0.3658,0.4061,0.4395,0.4561,0.4791,0.4994,0.506,0.5193,0.5359,0.5657,0.5719,0.5752,0.5885,0.5881,0.5683,0.555,0.5455,0.5422,0.5458,0.5528,0.5591,0.5686,0.5789,0.5822,0.5859,0.5954,0.602,0.6086,0.6354,0.6585,0.6651,0.6782,0.6843,0.6745,0.6815,0.6811,0.6843,0.6811,0.6749,0.6618,0.6679,0.6773,0.6646,0.6581,0.6548,0.6515,0.6515,0.6445,0.6359,0.6117,0.5817,0.5605,0.5388,0.5535,0.567,0.5662,0.5677,0.5759,0.5868,0.6059,0.6218,0.6359,0.6381,0.6359,0.6376,0.6372,0.6399,0.6458,0.6625,0.6793,0.6928,0.6977,0.7009,0.7036,0.696,0.6969,0.7121,0.7184,0.7163,0.7169,0.7185,0.7283,0.7426,0.7394,0.6907,0.6331,0.5702,0.5431,0.5354,0.4851,0.4504,0.4309,0.4268,0.4036,0.3802,0.3542,0.344,0.3402,0.3253,0.3219,0.3202,0.3073,0.3052,0.3081,0.3046,0.289,0.2815,0.2716,0.267,0.2569,0.2512,0.2511,0.2543,0.2698,0.2815,0.3001,0.3257,0.3627,0.4097,0.4367,0.4597,0.4634,0.4731,0.4864,0.5196,0.5229,0.5226,0.5355,0.5355,0.5256,0.5123,0.5093,0.506,0.506,0.5126,0.5259,0.5392,0.5491,0.5591,0.5657,0.5727,0.5756,0.5888,0.6057,0.6255,0.6284,0.6416,0.6482,0.6515,0.6552,0.6449,0.6449,0.6515,0.6486,0.6255,0.6346,0.6379,0.6251,0.6251,0.6218,0.6185,0.6185,0.6053,0.5914,0.565,0.5426,0.5248,0.506,0.4968,0.5095,0.5102,0.5179,0.5344,0.5481,0.5654,0.5786,0.5896,0.5868,0.5809,0.5805,0.5778,0.575,0.5832,0.6028,0.6191,0.6354,0.6539,0.662,0.6625,0.6603,0.6626,0.6678,0.6781,0.6887,0.7012,0.7245,0.7114,0.7239,0.731,0.6374,0.5864,0.5276,0.5004,0.4927,0.4577,0.427,0.4038,0.3841,0.3569,0.318,0.3088,0.3051,0.301,0.2807,0.2807,0.2848,0.2663,0.263,0.282,0.2655,0.2623,0.255,0.2381,0.2196,0.2022,0.2016,0.2054,0.1977,0.2162,0.2293,0.2375,0.2599,0.296,0.3498,0.3863,0.4097,0.43,0.4461,0.4595,0.4761,0.4797,0.4794,0.4861,0.4827,0.4761,0.4728,0.4694,0.4694,0.4764,0.4827,0.4894,0.496,0.496,0.5027,0.5156,0.5326,0.5455,0.5583,0.5789,0.5855,0.5921,0.6086,0.6053,0.5987,0.5958,0.5991,0.602,0.5991,0.5954,0.5888,0.5888,0.5888,0.5822,0.5789,0.5723,0.5653,0.5657,0.5524,0.5355,0.5221,0.5076,0.4919,0.4744,0.4515,0.4483,0.4507,0.4625,0.4873,0.5042,0.5211,0.5321,0.543,0.543,0.5371,0.5266,0.5207,0.5152,0.5262,0.5508,0.5673,0.5837,0.6028,0.6182,0.6241,0.6218,0.6223,0.6205,0.6325,0.6484,0.7131,0.7363,0.715,0.7047,0.7165,0.6221,0.5664,0.5046,0.4579,0.4231,0.4073,0.388,0.3684,0.3333,0.2981,0.2707,0.2588,0.2393,0.2316,0.2278,0.224,0.2278,0.2239,0.2239,0.2278,0.2121,0.2055,0.1959,0.1853,0.1752,0.1739,0.1762,0.1749,0.178,0.1825,0.1836,0.1959,0.2138,0.2592,0.306,0.3393,0.3563,0.3732,0.3863,0.3997,0.4228,0.4295,0.4361,0.4464,0.4361,0.4295,0.4328,0.4328,0.4364,0.4464,0.4528,0.4661,0.4728,0.4728,0.4797,0.4894,0.4994,0.5027,0.5123,0.5259,0.5484,0.562,0.5789,0.5756,0.5719,0.5719,0.5653,0.5591,0.5561,0.5425,0.5229,0.5326,0.5289,0.5057,0.4957,0.4888,0.4821,0.4924,0.4891,0.4788,0.4635,0.4502,0.4352,0.4284,0.4116,0.4051,0.4062,0.4212,0.4442,0.4601,0.4739,0.4822,0.4932,0.4963,0.4963,0.4963,0.4959,0.4959,0.5014,0.5124,0.5262,0.5403,0.5563,0.575,0.5805,0.5864,0.5923,0.5955,0.5918,0.6142,0.6668,0.7012,0.6843,0.6835,0.7049,0.5828,0.524,0.4737,0.4192,0.3724,0.3684,0.3565,0.3214,0.2863,0.2588,0.2392,0.2196,0.2042,0.1925,0.1769,0.1808,0.1848,0.1651,0.1769,0.173,0.1612,0.1533,0.142,0.1281,0.1228,0.131,0.137,0.138,0.1414,0.1422,0.1511,0.1636,0.1776,0.2057,0.2453,0.2788,0.3125,0.3326,0.3462,0.3596,0.3794,0.3897,0.3995,0.4064,0.4028,0.3928,0.3928,0.3961,0.3995,0.4128,0.4261,0.4392,0.4461,0.4498,0.4531,0.4597,0.4761,0.4794,0.4894,0.4927,0.5123,0.5289,0.5491,0.5488,0.5388,0.5289,0.5256,0.5193,0.516,0.503,0.4864,0.496,0.4758,0.4522,0.4459,0.4389,0.4389,0.4492,0.4495,0.4356,0.4215,0.403,0.3856,0.3764,0.3682,0.3658,0.3666,0.3826,0.3981,0.4135,0.4294,0.4408,0.4574,0.4688,0.477,0.4825,0.4794,0.4763,0.4791,0.4818,0.4901,0.5011,0.5179,0.5348,0.5553,0.5694,0.5713,0.569,0.5625,0.5725,0.6046,0.6296,0.6391,0.6664,0.696,0.5251,0.4659,0.4272,0.388,0.3526,0.3409,0.3175,0.2785,0.255,0.2353,0.2157,0.1963,0.1807,0.173,0.1454,0.1454,0.1612,0.1179,0.1258,0.1375,0.1218,0.1078,0.0982,0.0851,0.0768,0.0692,0.0761,0.0901,0.0914,0.1067,0.1202,0.1303,0.1337,0.1525,0.1854,0.2183,0.2621,0.2857,0.3027,0.3192,0.336,0.3558,0.3658,0.3694,0.3694,0.3694,0.3692,0.3725,0.3725,0.3758,0.3825,0.3825,0.3859,0.3928,0.4097,0.43,0.4564,0.4628,0.4694,0.4694,0.4728,0.4824,0.4957,0.4927,0.4927,0.4924,0.4891,0.4827,0.4728,0.4728,0.4697,0.4525,0.4356,0.4256,0.4223,0.4189,0.4189,0.4225,0.4195,0.4092,0.3992,0.3834,0.3683,0.3535,0.338,0.3258,0.3282,0.3361,0.3531,0.3691,0.3824,0.4021,0.4187,0.4467,0.4522,0.4525,0.4519,0.4463,0.446,0.4487,0.457,0.4664,0.4799,0.5032,0.5365,0.5512,0.5489,0.5389,0.5302,0.5442,0.5641,0.5881,0.6087,0.6608,0.693,0.521,0.4665,0.4275,0.3765,0.3217,0.2744,0.251,0.2353,0.2159,0.1963,0.1767,0.1533,0.1375,0.1179,0.0904,0.0904,0.0864,0.0825,0.0786,0.0786,0.0746,0.0695,0.057,0.0412,0.0296,0.0293,0.0365,0.0404,0.0485,0.0644,0.0738,0.0739,0.0903,0.1062,0.1253,0.1547,0.195,0.2321,0.2557,0.2757,0.2891,0.3056,0.319,0.3291,0.3291,0.3324,0.3357,0.3357,0.3324,0.3257,0.346,0.3563,0.3596,0.3761,0.3928,0.3928,0.4128,0.4228,0.4295,0.4492,0.4558,0.4359,0.4461,0.4664,0.4697,0.4661,0.4592,0.4492,0.4328,0.4295,0.4261,0.4125,0.3959,0.3859,0.3792,0.3725,0.3725,0.3692,0.3694,0.3727,0.3627,0.3591,0.3478,0.3296,0.3111,0.2948,0.2887,0.2982,0.3076,0.3273,0.3436,0.3633,0.3828,0.4058,0.407,0.4042,0.4113,0.4135,0.4175,0.4203,0.4242,0.4342,0.4465,0.4717,0.5083,0.5209,0.5209,0.5165,0.5129,0.5089,0.5263,0.5564,0.5864,0.6331,0.6707,0.5156,0.4545,0.4155,0.353,0.2747,0.2276,0.2002,0.1844,0.1807,0.1651,0.1454,0.1218,0.1022,0.0825,0.0589,0.055,0.0629,0.055,0.0511,0.0471,0.0236,0.0156,0.0038,-0.0113,-0.0223,-0.0221,-0.0221,-0.0221,-0.0038,0.0151,0.0259,0.0581,0.0641,0.0661,0.0823,0.1017,0.1311,0.1681,0.1985,0.2287,0.2421,0.2555,0.2757,0.2922,0.2889,0.2956,0.2991,0.2958,0.2857,0.2757,0.2993,0.2993,0.3094,0.336,0.3627,0.3687,0.3777,0.3895,0.3972,0.4169,0.4125,0.4048,0.4064,0.4228,0.4295,0.4261,0.4225,0.4192,0.3961,0.3797,0.3794,0.3725,0.356,0.3429,0.3328,0.3226,0.3192,0.3159,0.3192,0.3295,0.3295,0.3295,0.3203,0.3027,0.2883,0.2811,0.2716,0.2656,0.2809,0.2969,0.3128,0.3299,0.3477,0.3653,0.364,0.3671,0.3789,0.3908,0.3993,0.401,0.3968,0.4079,0.4263,0.4545,0.4819,0.4937,0.5052,0.5045,0.4997,0.4988,0.5027,0.5307,0.5575,0.5892,0.6226,0.509,0.4384,0.3917,0.3136,0.2275,0.2003,0.165,0.1336,0.1454,0.1415,0.1218,0.0943,0.0707,0.0471,0.0236,0.0236,0.0236,0.0196,0.0079,0.0196,-0.0079,-0.0274,-0.0541,-0.0677,-0.0785,-0.0896,-0.0893,-0.0738,-0.064,-0.0456,-0.0152,0.0453,0.0254,0.0177,0.0313,0.0548,0.078,0.0975,0.1413,0.1783,0.2085,0.2255,0.2423,0.2619,0.2653,0.2653,0.2621,0.2522,0.2389,0.2322,0.2322,0.2356,0.2557,0.2859,0.3161,0.3349,0.3438,0.3581,0.3694,0.3838,0.3873,0.3834,0.3894,0.3861,0.3861,0.3894,0.3894,0.3859,0.3661,0.3527,0.3491,0.3424,0.3259,0.3192,0.3125,0.3058,0.3025,0.3023,0.3058,0.3125,0.3159,0.3125,0.2948,0.2777,0.2733,0.2686,0.257,0.2456,0.2511,0.2695,0.2781,0.2943,0.304,0.32,0.3278,0.3338,0.3537,0.3653,0.3735,0.3809,0.3772,0.3901,0.4116,0.4378,0.4658,0.4798,0.4911,0.487,0.4844,0.4847,0.492,0.5115,0.5335,0.5529,0.5817,0.4851,0.4307,0.3411,0.2785,0.2353,0.1885,0.1533,0.1297,0.114,0.0943,0.0746,0.0393,0.0196,0.0118,-0.0196,-0.0275,-0.0275,-0.0236,-0.0471,-0.0511,-0.0629,-0.0786,-0.1094,-0.1217,-0.1318,-0.1311,-0.1302,-0.1216,-0.1058,-0.0996,-0.0924,-0.0569,-0.0555,-0.0437,-0.0176,0.0069,0.024,0.0405,0.0707,0.1212,0.1649,0.1783,0.1916,0.2185,0.2285,0.2353,0.2354,0.2389,0.2221,0.2085,0.2188,0.2221,0.2255,0.249,0.2591,0.2688,0.2963,0.3162,0.3334,0.3489,0.3524,0.3573,0.3596,0.3493,0.346,0.3529,0.3529,0.346,0.3393,0.3257,0.319,0.309,0.3025,0.2956,0.2922,0.2922,0.2889,0.2855,0.2889,0.2922,0.2991,0.2921,0.2748,0.2622,0.2577,0.2463,0.2346,0.228,0.2319,0.2434,0.2439,0.2538,0.2568,0.2675,0.2839,0.2998,0.3183,0.3251,0.3299,0.3389,0.3542,0.379,0.4028,0.4247,0.444,0.4547,0.4621,0.4668,0.4665,0.4664,0.4706,0.483,0.4958,0.5148,0.5492,0.4851,0.4304,0.3255,0.2591,0.2199,0.169,0.1297,0.0983,0.0746,0.0471,0.0236,0.0039,-0.0079,-0.0236,-0.0511,-0.0629,-0.0668,-0.0707,-0.0746,-0.0864,-0.1178,-0.1335,-0.1555,-0.1723,-0.1765,-0.1784,-0.1676,-0.1601,-0.1505,-0.1452,-0.1378,-0.1149,-0.1066,-0.0966,-0.0678,-0.0494,-0.0242,0.0034,0.0169,0.0573,0.1111,0.1279,0.148,0.1748,0.1884,0.1951,0.1951,0.1985,0.1816,0.1681,0.1715,0.1715,0.1782,0.2018,0.2221,0.2345,0.2498,0.2687,0.2904,0.307,0.3199,0.3247,0.3464,0.3429,0.3125,0.3161,0.3125,0.3058,0.3023,0.2921,0.2989,0.2922,0.279,0.2723,0.2721,0.2721,0.2554,0.2455,0.2488,0.2522,0.2656,0.282,0.2683,0.2547,0.2479,0.2302,0.218,0.1973,0.2035,0.2147,0.2152,0.2187,0.2241,0.2365,0.2545,0.2698,0.2809,0.2845,0.2897,0.3071,0.3299,0.3663,0.3961,0.4033,0.4094,0.4227,0.4306,0.435,0.4461,0.4493,0.4478,0.4515,0.4633,0.4778,0.5055,0.4813,0.4112,0.3136,0.2434,0.1886,0.1415,0.1022,0.0629,0.0354,0.0039,-0.0275,-0.0236,-0.0393,-0.055,-0.0746,-0.0746,-0.0825,-0.11,-0.11,-0.1296,-0.1571,-0.1885,-0.2101,-0.2219,-0.2239,-0.2227,-0.215,-0.2032,-0.1895,-0.1925,-0.184,-0.1475,-0.1381,-0.135,-0.1241,-0.1034,-0.0732,-0.0442,-0.0202,0.0067,0.0438,0.0774,0.1043,0.1244,0.1378,0.1512,0.1479,0.1445,0.1344,0.1278,0.1312,0.1244,0.1312,0.1547,0.1782,0.1944,0.199,0.2257,0.2496,0.2612,0.2755,0.2937,0.3222,0.3228,0.2891,0.279,0.2723,0.2621,0.2621,0.2586,0.2619,0.2654,0.2522,0.2421,0.2453,0.2453,0.2253,0.2052,0.2085,0.2119,0.2319,0.2552,0.2519,0.2386,0.228,0.2139,0.1967,0.1798,0.169,0.18,0.1856,0.1923,0.2019,0.2145,0.2329,0.2413,0.2502,0.2597,0.2687,0.2839,0.3059,0.3403,0.3597,0.3612,0.3727,0.3931,0.3977,0.3988,0.411,0.4192,0.4193,0.4165,0.4333,0.4486,0.4655,0.4231,0.3297,0.2588,0.2158,0.1808,0.1218,0.0825,0.055,0.0196,-0.0157,-0.055,-0.0904,-0.1022,-0.0904,-0.1297,-0.1375,-0.1375,-0.1572,-0.1924,-0.2237,-0.2198,-0.2512,-0.2689,-0.2638,-0.2726,-0.2709,-0.2647,-0.2555,-0.2338,-0.2387,-0.2349,-0.1986,-0.2022,-0.1901,-0.1574,-0.1362,-0.1092,-0.0821,-0.0573,-0.0303,-0.0169,0.0168,0.0606,0.0774,0.0941,0.1109,0.1277,0.1479,0.1412,0.1278,0.1078,0.0943,0.0942,0.1111,0.1379,0.1579,0.163,0.1834,0.2068,0.2163,0.2344,0.2512,0.2725,0.2757,0.2555,0.249,0.2388,0.2186,0.2118,0.2017,0.2051,0.2151,0.2085,0.2018,0.1983,0.1983,0.1883,0.1748,0.1715,0.1782,0.1883,0.2017,0.2051,0.1983,0.1983,0.1811,0.1676,0.154,0.1473,0.1504,0.1534,0.1667,0.1767,0.1973,0.2153,0.2165,0.2251,0.2355,0.247,0.2601,0.2822,0.3131,0.329,0.3329,0.3517,0.3747,0.3751,0.3677,0.3667,0.3744,0.3781,0.384,0.4007,0.4209,0.4381]}]]